     2              OBSERVATION DATA    GPS                 RINEX VERSION / TYPE
srx-v1.5-(11/13/93) SEISMO 11-MAR-1994                      PGM / RUN BY / DATE
                                                            COMMENT
sig: 9 8 7 6 5 4 1 0                                        COMMENT
sig: 9 8 7 6 5 4 1 0                                        COMMENT
sig: 9 8 7 6 5 4 1 0                                        COMMENT
Original Marker Name: LOVE                                  COMMENT
Campaign Name: jpl 1993-1997                                COMMENT
4-Character Station Name: LOVE                              COMMENT
6-Character Antenna Code: DMRCHT                            COMMENT
Vertical Measurement Point: BPA                             COMMENT
Vertical Offset to Rinex Ref. Point: 0.0000                 COMMENT
Radial Measurement Point: RRP                               COMMENT
Radial Offset to Rinex Ref. Point: 0.0000                   COMMENT
Antenna Height from Field Measurement: 0.0614 m             COMMENT
Additional Antenna Identification Info.:                    COMMENT
Turborogue and Ashtech Choke Ring                           COMMENT
Original XYZ: -2524802.6755 -4616998.0769 3592616.4760      COMMENT
New XYZ position is based on association with SCEC monument COMMENT
E1E9J0Z4+0011. Position of that monument is believed to be  COMMENT
valid to within 1 m horizontally; vertical accuracy         COMMENT
should be no worse than 3-times this value.                 COMMENT
                                                            COMMENT
Revised Rinex header created by UCSD GPS archive for        COMMENT
GSAC on 15-Apr-1999 (1999:105) 02:05:18 GMT                 COMMENT
For assistance contact dagnew@ucsd.edu or hjohnson@ucsd.edu COMMENT
                                                            COMMENT
LOMA VERDE RE 1961                                          MARKER NAME
LOVE                                                        MARKER NUMBER
JSH JET PROPULSION LABORATORY                               OBSERVER / AGENCY
262 TURBOROGUE SNR-8000 2.8                                 REC # / TYPE / VERS
329 DORNE-MARGOL. TYPE T                                    ANT # / TYPE
 -2524830.0000 -4617691.0000  3592367.0000                  APPROX POSITION XYZ
        0.0614        0.0000        0.0000                  ANTENNA: DELTA H/E/N
     1     1     0                                          WAVELENGTH FACT L1/2
     5    L1    L2    P1    P2    C1                        # / TYPES OF OBSERV
    30                                                      INTERVAL
  1994     2    11     0     0    0.000000                  TIME OF FIRST OBS
  1994     2    11    23    59   30.000000                  TIME OF LAST OBS
    26                                                      # OF SATELLITES
          01   842   842     0   842   842                  PRN / # OF OBS
          02   946   946     0   946   946                  PRN / # OF OBS
          03   885   885   885   885     0                  PRN / # OF OBS
          04   330   330     0   330   330                  PRN / # OF OBS
          05   809   809     0   809   809                  PRN / # OF OBS
          07   842   842     0   842   842                  PRN / # OF OBS
          09   713   713     0   713   713                  PRN / # OF OBS
          12   940   940   940   940     0                  PRN / # OF OBS
          13   803   803   803   803     0                  PRN / # OF OBS
          14   790   790     0   790   790                  PRN / # OF OBS
          15   776   776     0   776   776                  PRN / # OF OBS
          16   691   691     0   691   691                  PRN / # OF OBS
          17   935   935     0   935   935                  PRN / # OF OBS
          18   866   866     0   866   866                  PRN / # OF OBS
          19   911   911     0   911   911                  PRN / # OF OBS
          20   900   900     0   900   900                  PRN / # OF OBS
          21   942   942     0   942   942                  PRN / # OF OBS
          22   881   881     0   881   881                  PRN / # OF OBS
          23   904   904     0   904   904                  PRN / # OF OBS
          24   469   469     0   469   469                  PRN / # OF OBS
          25   815   815     0   815   815                  PRN / # OF OBS
          26   913   913     0   913   913                  PRN / # OF OBS
          27   919   919     0   919   919                  PRN / # OF OBS
          28  1102  1102     0  1102  1102                  PRN / # OF OBS
          29   933   933     0   933   933                  PRN / # OF OBS
                                                            END OF HEADER
 94 02 11 00 00 00.0000000  0  7 02 07 18 19 26 27 31
 -14374139.71749 -11200609.23348         0.00041  21136804.95448  21136803.61749
 -13681486.25948 -10660872.54546         0.00041  22494807.53046  22494805.69948
  19006539.51948  14810282.69946         0.00041  24035003.06346  24034998.65248
   3247845.67249   2530792.58947         0.00041  21353246.23847  21353245.46749
  -4301827.80848  -3352067.75345         0.00041  24263678.54945  24263677.82648
  -8899942.29149  -6935011.76248         0.00041  20209098.77248  20209098.36249
   7310017.79048   5696121.93746         0.00041  23657604.56746  23657603.56148
 94 02 11 00 00 30.0000000  0  7 02 07 18 19 26 27 31
 -14399281.69249 -11220200.35048         0.00041  21132020.64748  21132019.25049
 -13776362.02148 -10734801.62446         0.00041  22476753.63846  22476751.32348
  19118206.11648  14897295.52946         0.00041  24056250.81846  24056248.01748
   3292221.08649   2565370.82047         0.00041  21361690.61447  21361689.85849
  -4390376.24448  -3421066.45746         0.00041  24246831.53446  24246827.69048
  -8900626.14449  -6935544.61648         0.00041  20208968.66548  20208968.16849
   7401701.34248   5767563.60846         0.00041  23675051.64046  23675050.39748
 94 02 11 00 01 00.0000000  0  7 02 07 18 19 26 27 31
 -14424171.24449 -11239594.77348         0.00041  21127284.24748  21127282.93149
 -13871007.54748 -10808551.29646         0.00041  22458743.28046  22458740.82248
  19229947.20448  14984366.43546         0.00041  24077515.65946  24077511.79648
   3336889.48049   2600177.35347         0.00041  21370190.97347  21370190.09949
  -4478633.91548  -3489838.59945         0.00041  24230034.06645  24230032.95348
  -8900929.52049  -6935780.99948         0.00041  20208910.91748  20208910.54349
   7493681.31148   5839236.24646         0.00041  23692555.73946  23692553.47448
 94 02 11 00 01 30.0000000  0  7 02 07 18 19 26 27 31
 -14448813.40249 -11258796.42348         0.00041  21122594.89948  21122593.67749
 -13965405.26348 -10882107.86946         0.00041  22440779.13146  22440777.42548
  19341769.33248  15071500.48446         0.00041  24098794.21646  24098791.00148
   3381855.02949   2635215.43647         0.00041  21378747.47947  21378746.73049
  -4566605.95848  -3558388.18046         0.00041  24213294.58446  24213292.48148
  -8900872.44649  -6935736.51548         0.00041  20208921.80048  20208921.29049
   7585960.57248   5911142.09346         0.00041  23710116.20046  23710113.90348
 94 02 11 00 02 00.0000000  0  7 02 07 18 19 26 27 31
 -14473205.16949 -11277802.95848         0.00041  21117953.34948  21117952.01049
 -14059529.12948 -10955451.06246         0.00041  22422868.00246  22422866.27348
  19453689.11448  15158710.61446         0.00041  24120092.06546  24120088.68748
   3427144.53949   2670505.95947         0.00041  21387365.95147  21387364.99049
  -4654299.25848  -3626720.49945         0.00041  24196609.34945  24196605.04948
  -8900469.30049  -6935422.36248         0.00041  20208998.47548  20208997.95349
   7678547.94148   5983288.04646         0.00041  23727735.30746  23727732.72048
 94 02 11 00 02 30.0000000  0  7 02 07 18 19 26 27 31
 -14497361.24749 -11296625.84548         0.00041  21113356.51048  21113355.27849
 -14153362.52748 -11028567.91746         0.00041  22405012.59446  22405010.34048
  19565690.50448  15245984.31946         0.00041  24141404.74546  24141401.96648
   3472747.69549   2706040.88047         0.00041  21396043.73147  21396042.93849
  -4741725.11348  -3694844.47646         0.00041  24179970.14146  24179968.17848
  -8899749.04849  -6934861.11848         0.00041  20209135.32548  20209135.03249
   7771456.15448   6055684.01046         0.00041  23745415.04946  23745412.62348
 94 02 11 00 03 00.0000000  0  7 02 07 18 19 26 27 31
 -14521305.45449 -11315283.64048         0.00041  21108799.99448  21108798.74349
 -14246914.77548 -11101465.70046         0.00041  22387209.66546  22387207.90548
  19677750.17948  15333303.45846         0.00041  24162729.17046  24162726.20048
   3518619.36349   2741785.03547         0.00041  21404772.86247  21404772.09449
  -4828909.76948  -3762780.47246         0.00041  24163379.72946  24163377.14848
  -8898729.47249  -6934066.63348         0.00041  20209329.54048  20209329.06549
   7864672.56648   6128320.13446         0.00041  23763151.75846  23763151.12748
 94 02 11 00 03 30.0000000  0  7 02 07 18 19 26 27 31
 -14545037.60349 -11333776.19548         0.00041  21104283.91448  21104282.60749
 -14340177.99448 -11174138.26946         0.00041  22369462.57546  22369460.38648
  19789869.70048  15420669.22846         0.00041  24184066.04346  24184061.92548
   3564757.84249   2777737.09547         0.00041  21413552.81047  21413552.06249
  -4915855.98148  -3830530.70245         0.00041  24146834.27445  24146831.85848
  -8897382.84949  -6933017.30848         0.00041  20209585.64448  20209585.31249
   7958203.19448   6201201.10246         0.00041  23780951.27646  23780949.54648
 94 02 11 00 04 00.0000000  0  7 02 07 18 19 26 27 31
 -14568567.15249 -11352110.88248         0.00041  21099806.32448  21099805.10049
 -14433168.12348 -11246598.04546         0.00041  22351766.76146  22351764.92248
  19902024.64848  15508062.59246         0.00041  24205409.20446  24205404.33648
   3611152.24349   2813888.57647         0.00041  21422381.44047  21422380.52749
  -5002554.97348  -3898088.28345         0.00041  24130334.38845  24130333.50848
  -8895700.99149  -6931706.76148         0.00041  20209905.68948  20209905.36349
   8052025.51648   6274309.38146         0.00041  23798805.33046  23798803.40148
 94 02 11 00 04 30.0000000  0  7 02 07 18 19 26 27 31
 -14591880.76249 -11370277.30448         0.00041  21095369.89748  21095368.61949
 -14525893.74448 -11318851.71346         0.00041  22334121.47346  22334119.64048
  20014211.99648  15595481.20646         0.00041  24226755.49946  24226752.95948
   3657789.52249   2850229.31547         0.00041  21431256.18847  21431255.26449
  -5088991.70848  -3965441.51245         0.00041  24113886.90945  24113885.25048
  -8893669.37649  -6930123.68448         0.00041  20210292.35348  20210291.96549
   8146134.79648   6347641.23146         0.00041  23816713.91746  23816711.58448
 94 02 11 00 05 00.0000000  0  7 02 07 18 19 26 27 31
 -14614972.53849 -11388270.86948         0.00041  21090975.59848  21090974.35949
 -14618375.23248 -11390915.15546         0.00041  22316522.93446  22316521.03148
  20126440.98148  15682932.26346         0.00041  24248114.34346  24248109.55448
   3704679.86949   2886767.24847         0.00041  21440178.91347  21440178.16249
  -5175169.66948  -4032593.10346         0.00041  24097486.67746  24097486.08048
  -8891276.64149  -6928259.21448         0.00041  20210747.59148  20210747.24649
   8240518.03148   6421186.58846         0.00041  23834672.63046  23834672.23648
 94 02 11 00 05 30.0000000  0  7 02 07 18 19 26 27 31
 -14637837.32649 -11406087.56248         0.00041  21086624.54248  21086623.31149
 -14710608.45748 -11462785.14646         0.00041  22298971.35846  22298969.61748
  20238709.37948  15770414.04546         0.00041  24269476.78446  24269473.70548
   3751842.80549   2923517.58147         0.00041  21449153.88847  21449153.09649
  -5261086.82648  -4099541.45346         0.00041  24081137.29546  24081136.27248
  -8888517.24549  -6926109.03048         0.00041  20211272.87448  20211272.37049
   8335172.80948   6494943.50346         0.00041  23852686.17546  23852684.55748
 94 02 11 00 06 00.0000000  0  7 02 07 18 19 26 27 31
 -14660455.92549 -11423712.41748         0.00041  21082320.40648  21082319.11249
 -14802594.17648 -11534462.27246         0.00041  22281466.92246  22281465.25448
  20351017.32248  15857926.62846         0.00041  24290847.27746  24290845.15348
   3799282.20049   2960483.34247         0.00041  21458181.34547  21458180.51149
  -5346749.58748  -4166291.60346         0.00041  24064837.00446  24064835.39448
  -8885395.43149  -6923676.44248         0.00041  20211866.88748  20211866.50849
   8430085.00448   6568901.03746         0.00041  23870748.44146  23870745.65448
 94 02 11 00 06 30.0000000  0  7 02 07 18 19 26 27 31
 -14682808.37449 -11441129.88548         0.00041  21078066.92848  21078065.64749
 -14894308.11048 -11605927.62346         0.00041  22264014.74246  22264012.56248
  20463381.15248  15945482.75746         0.00041  24312230.64546  24312227.52548
   3847011.17149   2997674.74247         0.00041  21467263.82947  21467262.97749
  -5432162.73048  -4232847.21345         0.00041  24048583.01745  24048581.78248
  -8881907.25749  -6920958.37748         0.00041  20212530.53848  20212530.24549
   8525271.44048   6643072.24846         0.00041  23888859.52046  23888859.03748
 94 02 11 00 07 00.0000000  0  7 02 07 18 19 26 27 31
 -14704891.02549 -11458337.12048         0.00041  21073864.67548  21073863.48649
 -14985737.09848 -11677170.93347         0.00041  22246615.71247  22246614.07748
  20575791.62348  16033075.20646         0.00041  24333621.86746  24333618.51748
   3895041.03349   3035100.60647         0.00041  21476403.76347  21476402.84049
  -5517328.77048  -4299210.31546         0.00041  24032376.91046  24032375.18748
  -8878051.42749  -6917953.82348         0.00041  20213264.35448  20213264.02549
   8620738.02148   6717461.77246         0.00041  23907027.80346  23907025.67048
 94 02 11 00 07 30.0000000  0  7 02 07 18 19 26 27 31
 -14726675.69349 -11475312.16248         0.00041  21069719.12148  21069717.99549
 -15076857.65448 -11748173.91347         0.00041  22229275.95547  22229274.44648
  20688242.42648  16120699.11146         0.00041  24355021.59046  24355017.41848
   3943377.61849   3072765.47247         0.00041  21485601.89247  21485601.01349
  -5602217.70748  -4365357.46546         0.00041  24016223.16346  24016221.27348
  -8873812.64349  -6914650.86548         0.00041  20214071.01348  20214070.61449
   8716496.99648   6792079.10346         0.00041  23925251.96446  23925248.05148
 94 02 11 00 08 00.0000000  0  7 02 07 18 19 26 27 31
 -14748167.57049 -11492059.05848         0.00041  21065629.29848  21065628.09449
 -15167678.61548 -11818943.43547         0.00041  22211993.46847  22211991.83348
  20800728.19548  16208350.22746         0.00041  24376426.04246  24376422.85948
   3992015.41849   3110665.05047         0.00041  21494857.31547  21494856.44149
  -5686818.96248  -4431280.45846         0.00041  24000124.77646  24000122.10748
  -8869207.03749  -6911062.07048         0.00041  20214947.37048  20214946.99049
   8812547.12048   6866923.31646         0.00041  23943527.74846  23943525.83348
 94 02 11 00 08 30.0000000  0  7 02 07 18 19 26 27 31
 -14769405.35749 -11508607.96248         0.00041  21061587.89648  21061586.74749
 -15258213.38948 -11889489.95547         0.00041  22194765.51647  22194763.70748
  20913232.83848  16296016.07146         0.00041  24397835.04946  24397831.70648
   4040942.24649   3148789.84447         0.00041  21504167.83647  21504167.01849
  -5771121.78848  -4496970.90846         0.00041  23984082.29846  23984079.82448
  -8864246.15149  -6907196.43348         0.00041  20215891.36848  20215890.93949
   8908883.98848   6941990.96446         0.00041  23961860.91846  23961858.11948
 94 02 11 00 09 00.0000000  0  7 02 07 18 19 26 27 31
 -14790382.96049 -11524954.12348         0.00041  21057595.91848  21057594.72849
 -15348452.69248 -11959806.24147         0.00041  22177593.48447  22177591.65948
  21025768.97548  16383706.45346         0.00041  24419250.52046  24419246.56448
   4090167.97649   3187147.55047         0.00041  21513535.09847  21513534.41349
  -5855090.47948  -4562400.97746         0.00041  23968101.97446  23968100.76548
  -8858898.79149  -6903029.65048         0.00041  20216908.79148  20216908.53949
   9005510.49348   7017284.30146         0.00041  23980246.77546  23980245.75448
 94 02 11 00 09 30.0000000  0  7 02 07 18 19 26 27 31
 -14811129.46849 -11541120.21148         0.00041  21053648.02848  21053646.85949
 -15438410.83148 -12029903.42947         0.00041  22160474.75047  22160473.08548
  21138325.73848  16471412.90846         0.00041  24440669.94546  24440665.51748
   4139672.32949   3225722.36147         0.00041  21522955.14547  21522954.62349
  -5938727.21048  -4627572.37846         0.00041  23952187.10246  23952185.25048
  -8853183.41349  -6898576.10348         0.00041  20217996.54348  20217996.09449
   9102391.56948   7092776.00246         0.00041  23998683.91746  23998681.64048
 94 02 11 00 10 00.0000000  0  7 02 07 18 19 26 27 31
 -14831659.22249 -11557117.39948         0.00041  21049741.23048  21049740.10449
 -15528076.49048 -12099772.71047         0.00041  22143411.81647  22143410.24648
  21250919.67048  16559148.28446         0.00041  24462095.83746  24462091.59148
   4189463.12049   3264520.36847         0.00041  21532430.33547  21532429.57449
  -6022030.47348  -4692483.93446         0.00041  23936337.48446  23936333.43548
  -8847100.70749  -6893836.32648         0.00041  20219153.85048  20219153.53649
   9199518.01748   7168458.90346         0.00041  24017167.06046  24017164.03048
 94 02 11 00 10 30.0000000  0  7 02 07 18 19 26 27 31
 -14851971.04949 -11572944.77848         0.00041  21045876.17548  21045874.89149
 -15617424.57248 -12169394.53147         0.00041  22126409.33447  22126407.80048
  21363558.70548  16646918.86146         0.00041  24483529.91846  24483526.21848
   4239532.56449   3303535.50747         0.00041  21541958.11947  21541957.36249
  -6105005.48648  -4757139.69846         0.00041  23920546.14846  23920543.50748
  -8840628.71949  -6888793.21048         0.00041  20220385.53848  20220385.19049
   9296887.83448   7244331.43946         0.00041  24035695.11546  24035692.90348
 94 02 11 00 11 00.0000000  0  7 02 07 18 19 26 27 31
 -14872051.36449 -11588591.75848         0.00041  21042054.98248  21042053.72749
 -15706446.06148 -12238761.86047         0.00041  22109469.18147  22109467.64048
  21476249.59848  16734729.80845         0.00041  24504974.53245  24504970.77548
   4289884.32949   3342770.62847         0.00041  21551539.80147  21551538.93349
  -6187667.13348  -4821551.32546         0.00041  23904815.84546  23904813.63148
  -8833769.81449  -6883448.60548         0.00041  20221690.66248  20221690.34949
   9394493.03448   7320387.38946         0.00041  24054268.27946  24054266.50648
 94 02 11 00 11 30.0000000  0  7 02 07 18 19 26 27 31
 -14891921.38249 -11604074.87448         0.00041  21038273.84848  21038272.61049
 -15795153.95848 -12307884.82947         0.00041  22092588.44747  22092587.02848
  21588971.34248  16822564.81646         0.00041  24526424.36946  24526421.01248
   4340506.89549   3382216.76747         0.00041  21561173.34347  21561172.33049
  -6270051.63248  -4885746.94646         0.00041  23889137.39146  23889136.37448
  -8826555.79849  -6877827.29248         0.00041  20223063.39748  20223063.23449
   9492325.55448   7396620.48546         0.00041  24072886.38246  24072883.65648
 94 02 11 00 12 00.0000000  0  7 02 07 18 19 26 27 31
 -14911577.67649 -11619391.44848         0.00041  21034533.19748  21034532.07449
 -15883543.28748 -12376759.56147         0.00041  22075768.63147  22075767.03748
  21701722.27048  16910422.57446         0.00041  24547881.14846  24547877.15348
   4391399.60449   3421873.40847         0.00041  21570857.70447  21570856.84449
  -6352169.93348  -4949735.18346         0.00041  23873511.08946  23873509.80448
  -8818975.07649  -6871920.22648         0.00041  20224506.17248  20224505.80849
   9590409.43448   7473049.42946         0.00041  24091551.17246  24091548.34848
 94 02 11 00 12 30.0000000  0  7 02 07 18 19 26 27 31
 -14931035.08149 -11634553.04848         0.00041  21030830.74248  21030829.49349
 -15971621.70949 -12445392.02847         0.00041  22059007.50147  22059006.25949
  21814480.09548  16998285.67545         0.00041  24569338.25045  24569334.35248
   4442559.55749   3461738.28747         0.00041  21580592.86547  21580592.19849
  -6434035.22948  -5013526.24946         0.00041  23857933.65546  23857931.15748
  -8811027.91049  -6865727.62448         0.00041  20226018.36248  20226018.13649
   9688737.50548   7549668.64745         0.00041  24110263.73745  24110259.58548
 94 02 11 00 13 00.0000000  0  7 02 07 18 19 26 27 31
 -14950267.66149 -11649539.46248         0.00041  21027170.86948  21027169.63349
 -16059388.19849 -12513781.42947         0.00041  22042306.23147  22042304.81849
  21927241.00448  17086151.18545         0.00041  24590794.44045  24590792.33348
   4494016.74149   3501834.77847         0.00041  21590384.91647  21590384.16749
  -6515620.50048  -5077099.13446         0.00041  23842406.92346  23842406.15448
  -8802696.61449  -6859235.69748         0.00041  20227603.74348  20227603.53449
   9787327.94548   7626492.32446         0.00041  24129022.55146  24129021.02448
 94 02 11 00 13 30.0000000  0  7 02 07 18 19 26 27 31
 -14969280.83049 -11664354.90648         0.00041  21023552.67748  21023551.44549
 -16146832.29249 -12581919.61347         0.00041  22025666.22247  22025664.74049
  22039997.49248  17174013.25846         0.00041  24612254.44246  24612249.26748
   4545770.01149   3542161.98547         0.00041  21600233.26247  21600232.48949
  -6596906.40148  -5140438.76146         0.00041  23826939.72246  23826937.80248
  -8793966.95449  -6852433.35548         0.00041  20229265.09348  20229264.72849
   9886181.94548   7703521.36046         0.00041  24147834.26646  24147832.16548
 94 02 11 00 14 00.0000000  0  7 02 07 18 19 26 27 31
 -14988063.18049 -11678990.49148         0.00041  21019978.57048  21019977.32649
 -16233944.25349 -12649798.99547         0.00041  22009089.41747  22009087.85949
  22152745.68848  17261868.83745         0.00041  24633708.97745  24633704.48748
   4597829.87049   3582728.09547         0.00041  21610140.15547  21610139.20149
  -6677875.29148  -5203531.36646         0.00041  23811531.06646  23811529.91248
  -8784827.44349  -6845311.64948         0.00041  20231004.21448  20231003.83049
   9985285.76848   7780745.10646         0.00041  24166694.30646  24166691.13848
 94 02 11 00 14 30.0000000  0  7 02 07 18 19 26 27 31
 -15006592.73249 -11693429.09248         0.00041  21016452.33148  21016451.25149
 -16320714.13249 -12717411.82147         0.00041  21992577.31447  21992575.99249
  22265493.52748  17349724.15345         0.00041  24655164.31145  24655159.89048
   4650210.60949   3623544.24147         0.00041  21620107.89747  21620106.97449
  -6758507.84948  -5266361.86846         0.00041  23796187.79046  23796185.82448
  -8775278.89549  -6837871.21248         0.00041  20232821.22848  20232820.90449
  10084629.53448   7858155.77046         0.00041  24185596.52046  24185595.64248
 94 02 11 00 15 00.0000000  0  7 02 07 18 19 26 27 31
 -15024860.15649 -11707663.43448         0.00041  21012976.19448  21012975.08149
 -16407155.85349 -12784768.94147         0.00041  21976127.93647  21976126.52149
  22378243.00148  17437580.75045         0.00041  24676619.96345  24676615.50848
   4702899.32249   3664600.37147         0.00041  21630134.22247  21630133.30649
  -6838801.45348  -5328928.24246         0.00041  23780908.83046  23780906.53848
  -8765345.62049  -6830130.99048         0.00041  20234711.42648  20234711.14549
  10184213.48948   7935753.62545         0.00041  24204548.55945  24204545.98248
 94 02 11 00 15 30.0000000  0  7 02 07 18 19 26 27 31
 -15042879.82949 -11721704.72548         0.00041  21009547.20248  21009546.08949
 -16493261.97449 -12851864.56147         0.00041  21959742.53547  21959740.89249
  22491010.30848  17525451.25345         0.00041  24698077.31245  24698074.39948
   4755895.73049   3705896.26247         0.00041  21640219.21747  21640218.12649
  -6918761.99648  -5391235.08246         0.00041  23765692.64646  23765690.51348
  -8755041.40849  -6822101.72648         0.00041  20236672.19848  20236671.96849
  10284030.51048   8013533.05645         0.00041  24223542.73645  24223540.41248
 94 02 11 00 16 00.0000000  0  7 02 07 18 19 26 27 31
 -15060642.16149 -11735545.48548         0.00041  21006167.20748  21006165.99149
 -16579037.44849 -12918702.52447         0.00041  21943419.69447  21943418.31349
  22603799.19448  17613338.56445         0.00041  24719541.92045  24719537.45448
   4809201.35849   3747433.10647         0.00041  21650362.61147  21650361.92049
  -6998392.80948  -5453284.99446         0.00041  23750539.89746  23750537.17548
  -8744376.16149  -6813791.14148         0.00041  20238701.74548  20238701.42649
  10384082.28848   8091495.41945         0.00041  24242582.12445  24242579.71748
 94 02 11 00 16 30.0000000  0  7 02 07 18 19 26 27 31
 -15078165.55449 -11749200.05748         0.00041  21002832.52748  21002831.47849
 -16664497.49249 -12985294.71147         0.00041  21927157.42647  21927155.87049
  22716611.28448  17701243.90945         0.00041  24741009.72945  24741005.00248
   4862793.90649   3789193.52447         0.00041  21660561.10047  21660560.28649
  -7077695.13548  -5515078.93046         0.00041  23735446.68546  23735446.30848
  -8733358.96049  -6805206.30448         0.00041  20240798.14048  20240797.92049
  10484367.77048   8169639.90245         0.00041  24261664.85545  24261663.28048
 94 02 11 00 17 00.0000000  0  7 02 07 18 19 26 27 31
 -15095475.83649 -11762688.56748         0.00041  20999538.52148  20999537.37349
 -16749643.49349 -13051642.18847         0.00041  21910954.62147  21910953.14149
  22829430.98048  17789155.21845         0.00041  24762477.92445  24762474.07348
   4916669.98249   3831174.87547         0.00041  21670813.33947  21670812.60749
  -7156678.83948  -5576624.59346         0.00041  23720418.66146  23720416.11348
  -8721975.82149  -6796336.32548         0.00041  20242964.38348  20242964.05049
  10584881.39848   8247962.14946         0.00041  24280792.02646  24280790.41448
 94 02 11 00 17 30.0000000  0  7 02 07 18 19 26 27 31
 -15112585.98849 -11776021.12848         0.00041  20996282.46848  20996281.33249
 -16834456.98749 -13117730.56947         0.00041  21894815.18647  21894813.60349
  22942248.96348  17877065.15845         0.00041  24783945.54745  24783942.38348
   4970825.39849   3873373.89347         0.00041  21681118.54247  21681117.95049
  -7235349.14048  -5637926.05646         0.00041  23705448.14546  23705445.56348
  -8710199.92049  -6787160.29548         0.00041  20245205.26248  20245205.01849
  10685607.41148   8326449.92646         0.00041  24299961.40446  24299958.03248
 94 02 11 00 18 00.0000000  0  7 02 07 18 19 26 27 31
 -15129494.96349 -11789196.92948         0.00041  20993064.89648  20993063.70349
 -16918952.20249 -13183570.95147         0.00041  21878736.12447  21878734.67249
  23055045.92748  17964958.74045         0.00041  24805409.63245  24805407.33048
   5025243.74849   3915777.79447         0.00041  21691474.15047  21691473.47849
  -7313705.40848  -5698982.81346         0.00041  23690536.68346  23690534.79248
  -8698035.26049  -6777681.33848         0.00041  20247520.14248  20247519.87949
  10786535.13048   8405094.86446         0.00041  24319167.29746  24319163.97548
 94 02 11 00 18 30.0000000  0  7 02 07 18 19 26 27 31
 -15146182.13349 -11802199.89848         0.00041  20989889.30248  20989888.15349
 -17003110.28349 -13249148.62047         0.00041  21862721.18947  21862719.86249
  23167839.87448  18052849.98345         0.00041  24826875.37945  24826871.37048
   5079949.47449   3958405.62247         0.00041  21701884.28747  21701883.56749
  -7391728.12348  -5759779.67046         0.00041  23675688.88946  23675687.68548
  -8685448.79549  -6767873.70148         0.00041  20249915.29448  20249915.02449
  10887678.42648   8483907.79046         0.00041  24338412.30346  24338410.96048
 94 02 11 00 19 00.0000000  0  7 02 07 18 19 26 27 31
 -15162637.18249 -11815021.99548         0.00041  20986757.90348  20986756.79549
 -17086928.82349 -13314461.72447         0.00041  21846770.83947  21846769.65549
  23280619.90348  18140730.34745         0.00041  24848338.07745  24848332.67548
   5134943.15449   4001257.83247         0.00041  21712349.29847  21712348.60549
  -7469423.06448  -5820321.12446         0.00041  23660904.78046  23660902.65348
  -8672447.54549  -6757742.85148         0.00041  20252389.29848  20252389.02049
  10989028.08948   8562881.50946         0.00041  24357699.49646  24357697.21348
 94 02 11 00 19 30.0000000  0  7 02 07 18 19 26 27 31
 -15178850.02049 -11827655.35448         0.00041  20983672.68748  20983671.61449
 -17170413.30349 -13379514.51647         0.00041  21830884.44047  21830883.06849
  23393394.24448  18228606.30745         0.00041  24869796.07645  24869793.34248
   5190213.96949   4044325.98947         0.00041  21722867.12147  21722866.36049
  -7546775.95848  -5880596.06046         0.00041  23646184.77546  23646182.96648
  -8659061.47049  -6747312.13948         0.00041  20254936.69648  20254936.32849
  11090582.63248   8642014.86545         0.00041  24377024.98145  24377022.55348
 94 02 11 00 20 00.0000000  0  7 02 07 18 19 26 27 31
 -15194809.07749 -11840090.96548         0.00041  20980635.78948  20980634.65349
 -17253566.73149 -13444309.34547         0.00041  21815060.88447  21815059.30849
  23506155.38248  18316471.95745         0.00041  24891255.51145  24891250.82548
   5245763.49049   4087611.31947         0.00041  21733437.87847  21733437.11549
  -7623779.45448  -5940598.72746         0.00041  23631532.07246  23631529.55148
  -8645298.76949  -6736587.94948         0.00041  20257555.59748  20257555.32649
  11192338.13348   8721304.82446         0.00041  24396388.92746  24396385.97748
 94 02 11 00 20 30.0000000  0  7 02 07 18 19 26 27 31
 -15210518.11349 -11852331.75648         0.00041  20977646.32748  20977645.29749
 -17336368.93149 -13508830.49247         0.00041  21799303.91147  21799302.70449
  23618897.81248  18404323.03045         0.00041  24912708.94945  24912705.38648
   5301593.12349   4131114.91447         0.00041  21744061.92447  21744061.18249
  -7700435.82748  -6000330.90646         0.00041  23616944.62246  23616942.18848
  -8631154.66749  -6725566.56248         0.00041  20260246.97448  20260246.85849
  11294290.08348   8800747.84746         0.00041  24415788.94846  24415786.78348
 94 02 11 00 21 00.0000000  0  7 02 07 18 19 26 27 31
 -15225984.40249 -11864383.39548         0.00041  20974703.41748  20974702.20849
 -17418813.62449 -13573073.06547         0.00041  21783615.32947  21783614.03349
  23731613.59248  18492153.29645         0.00041  24934160.15045  24934154.14448
   5357705.31249   4174838.68547         0.00041  21754739.64747  21754738.83449
  -7776730.18848  -6059781.01046         0.00041  23602426.08446  23602424.05348
  -8616632.01049  -6714250.19648         0.00041  20263010.67448  20263010.44949
  11396436.07348   8880342.06946         0.00041  24435227.43346  24435224.67148
 94 02 11 00 21 30.0000000  0  7 02 07 18 19 26 27 31
 -15241214.62849 -11876251.09148         0.00041  20971805.17848  20971804.01449
 -17500899.71049 -13637036.20147         0.00041  21767994.86947  21767993.41749
  23844288.17248  18579951.51145         0.00041  24955598.36545  24955595.92448
   5414099.17649   4218781.94547         0.00041  21765471.00147  21765470.28749
  -7852662.38548  -6118948.91746         0.00041  23587975.37946  23587974.45948
  -8601714.64749  -6702626.26648         0.00041  20265849.18548  20265849.02349
  11498769.82748   8960082.59845         0.00041  24454700.09945  24454698.03448
 94 02 11 00 22 00.0000000  0  7 02 07 18 19 26 27 31
 -15256217.68549 -11887941.77448         0.00041  20968950.09448  20968948.99149
 -17582624.60349 -13700717.88447         0.00041  21752442.93547  21752441.74749
  23956906.15648  18667705.64045         0.00041  24977029.61545  24977026.25648
   5470780.35149   4262949.08347         0.00041  21776257.13747  21776256.33549
  -7928232.31048  -6177834.53346         0.00041  23573595.60846  23573593.83548
  -8586387.35049  -6690682.91148         0.00041  20268765.99348  20268765.73849
  11601296.33948   9039973.32445         0.00041  24474211.05845  24474208.41648
 94 02 11 00 22 30.0000000  0  7 02 07 18 19 26 27 31
 -15271004.57749 -11899464.02148         0.00041  20966136.17648  20966135.14449
 -17663986.95649 -13764117.07147         0.00041  21736959.96847  21736958.78549
  24069472.77948  18755419.69045         0.00041  24998450.62845  24998447.26848
   5527760.39349   4307349.10047         0.00041  21787100.13247  21787099.33749
  -8003433.62248  -6236432.90746         0.00041  23559285.05546  23559283.54248
  -8570648.81149  -6678419.10848         0.00041  20271760.80748  20271760.66349
  11704030.51148   9120025.89446         0.00041  24493759.34946  24493758.05248
 94 02 11 00 23 00.0000000  0  7 02 07 18 19 26 27 31
 -15285567.87849 -11910812.04148         0.00041  20963365.08348  20963363.83349
 -17744977.31649 -13827226.39347         0.00041  21721547.76347  21721546.80049
  24182008.54648  18843109.78545         0.00041  25019870.88945  25019861.89348
   5585051.77349   4351991.71947         0.00041  21798002.01647  21798001.54149
  -8078260.77848  -6294739.71946         0.00041  23545045.66846  23545044.48248
  -8554491.21749  -6665828.77048         0.00041  20274835.54748  20274835.44449
  11806987.88348   9200252.35146         0.00041  24513353.61146  24513350.08548
 94 02 11 00 23 30.0000000  0  7 02 07 18 19 26 27 31
 -15299928.03249 -11922001.76348         0.00041  20960632.33948  20960631.21349
 -17825591.85649 -13890042.87047         0.00041  21706207.86447  21706206.35249
  24294508.52048  18930771.92445         0.00041  25041276.66245  25041270.14448
   5642637.45149   4396863.65847         0.00041  21808960.60347  21808959.76949
  -8152741.39148  -6352776.51646         0.00041  23530873.16446  23530871.42348
  -8537936.28249  -6652928.81548         0.00041  20277985.89148  20277985.65549
  11910170.09148   9280654.04345         0.00041  24532987.41145  24532985.08848
 94 02 11 00 24 00.0000000  0  7 02 07 18 19 26 27 31
 -15314095.42249 -11933041.28448         0.00041  20957936.39948  20957935.30549
 -17905822.69349 -13952560.35447         0.00041  21690940.03747  21690938.87549
  24406986.25448  19018416.71645         0.00041  25062679.78245  25062674.15948
   5700517.29949   4441964.82247         0.00041  21819974.62047  21819973.92049
  -8226881.45448  -6410547.93446         0.00041  23516764.09746  23516762.88348
  -8521005.52549  -6639736.01448         0.00041  20281207.76648  20281207.47049
  12013568.32648   9361224.04745         0.00041  24552665.70145  24552661.36148
 94 02 11 00 24 30.0000000  0  7 02 07 18 19 26 27 31
 -15328072.22149 -11943932.29148         0.00041  20955276.52948  20955275.48049
 -17985679.34049 -14014786.26647         0.00041  21675743.96847  21675742.71449
  24519440.44448  19106043.26845         0.00041  25084078.61845  25084073.45948
   5758681.08849   4487287.24147         0.00041  21831043.24347  21831042.12849
  -8300705.85048  -6468073.39246         0.00041  23502716.38046  23502714.46148
  -8503714.12549  -6626262.19448         0.00041  20284498.20048  20284497.94549
  12117140.63548   9441929.69845         0.00041  24572371.48345  24572370.41448
 94 02 11 00 25 00.0000000  0  7 02 07 18 19 26 27 31
 -15341838.02049 -11954658.88548         0.00041  20952657.07948  20952655.96349
 -18065159.99449 -14076719.19547         0.00041  21660619.38347  21660618.07349
  24631877.73348  19193656.59945         0.00041  25105473.60545  25105469.81148
   5817132.93849   4532834.11547         0.00041  21842166.19347  21842165.19049
  -8374196.34648  -6525338.65546         0.00041  23488730.95146  23488729.81848
  -8486057.52149  -6612503.79848         0.00041  20287858.06748  20287857.85449
  12220878.76248   9522764.54545         0.00041  24592113.54445  24592111.09148
 94 02 11 00 25 30.0000000  0  7 02 07 18 19 26 27 31
 -15355389.15549 -11965218.21348         0.00041  20950078.48948  20950077.27949
 -18144276.42649 -14138368.31547         0.00041  21645563.86847  21645562.52449
  24744277.67848  19281240.83945         0.00041  25126866.08445  25126858.68148
   5875871.13349   4578604.12647         0.00041  21853343.66347  21853342.73949
  -8447332.71648  -6582328.00546         0.00041  23474813.36046  23474812.51448
  -8468035.86249  -6598460.94148         0.00041  20291287.40948  20291287.28949
  12324759.56948   9603710.58945         0.00041  24611882.39945  24611879.03248
 94 02 11 00 26 00.0000000  0  7 02 07 18 19 26 27 31
 -15368698.09149 -11975588.81348         0.00041  20947545.82648  20947544.69349
 -18223038.02049 -14199740.94347         0.00041  21630576.05547  21630574.77349
  24856634.57748  19368791.47345         0.00041  25148242.10845  25148239.86548
   5934907.93449   4624606.81047         0.00041  21864577.88247  21864577.06549
  -8520082.02148  -6639015.71846         0.00041  23460970.89546  23460968.57648
  -8449626.55049  -6584116.01848         0.00041  20294790.48848  20294790.48049
  12428771.23448   9684758.60345         0.00041  24631675.53745  24631671.72748
 94 02 11 00 26 30.0000000  0  7 02 07 18 19 26 27 31
 -15381762.28149 -11985768.69848         0.00041  20945059.72448  20945058.68649
 -18301450.95449 -14260841.88247         0.00041  21615654.51347  21615653.30749
  24968932.49948  19456296.22745         0.00041  25169610.53545  25169609.44548
   5994253.07349   4670849.76447         0.00041  21875870.59047  21875869.97649
  -8592423.06848  -6695385.32346         0.00041  23447203.55646  23447202.62548
  -8430809.81349  -6569453.62148         0.00041  20298371.27448  20298371.17649
  12532938.64848   9765927.98145         0.00041  24651497.59245  24651494.11348
 94 02 11 00 27 00.0000000  0  7 02 07 18 19 26 27 31
 -15394594.89149 -11995768.13348         0.00041  20942617.90148  20942616.74649
 -18379510.54149 -14321667.48847         0.00041  21600800.14547  21600798.97349
  25081164.20948  19543749.34545         0.00041  25190969.88045  25190966.59148
   6053896.03849   4717324.79047         0.00041  21887220.73047  21887219.72549
  -8664342.05748  -6751426.04946         0.00041  23433518.94746  23433516.80848
  -8411573.56749  -6554464.33148         0.00041  20302031.88748  20302031.67249
  12637296.21148   9847245.51745         0.00041  24671355.09545  24671352.87248
 94 02 11 00 27 30.0000000  0  7 02 07 18 19 26 27 31
 -15407217.96749 -12005604.29548         0.00041  20940215.70348  20940214.63249
 -18457211.31749 -14382213.50447         0.00041  21586014.20247  21586012.98249
  25193320.90948  19631144.05144         0.00041  25212314.00844  25212309.38448
   6113822.46149   4764020.68947         0.00041  21898624.24947  21898623.44249
  -8735855.43348  -6807150.71146         0.00041  23419910.78546  23419908.00048
  -8391914.18449  -6539145.32648         0.00041  20305772.78648  20305772.70349
  12741842.42148   9928710.07645         0.00041  24691248.90945  24691247.38048
 94 02 11 00 28 00.0000000  0  7 02 07 18 19 26 27 31
 -15419634.14049 -12015279.23348         0.00041  20937853.01748  20937851.90849
 -18534549.26249 -14442476.79347         0.00041  21571297.33447  21571296.11249
  25305413.02548  19718488.38945         0.00041  25233647.48445  25233640.27148
   6174027.12449   4810933.40147         0.00041  21910080.66847  21910079.95849
  -8806980.37648  -6862572.70746         0.00041  23406374.47946  23406373.49748
  -8371821.63749  -6523488.79048         0.00041  20309596.36248  20309596.15749
  12846599.06948  10010338.63545         0.00041  24711185.24245  24711181.95448
 94 02 11 00 28 30.0000000  0  7 02 07 18 19 26 27 31
 -15431865.47349 -12024810.13448         0.00041  20935525.57248  20935524.36349
 -18611514.03949 -14502449.30347         0.00041  21556651.14447  21556650.13749
  25417431.48848  19805775.34045         0.00041  25254959.86545  25254956.67748
   6234493.05949   4858049.70347         0.00041  21921587.06247  21921586.17749
  -8877742.76548  -6917712.19346         0.00041  23392909.92746  23392907.57348
  -8351306.69349  -6507503.11648         0.00041  20313500.23448  20313500.07649
  12951558.60748  10092125.23845         0.00041  24731157.58245  24731155.05548
 94 02 11 00 29 00.0000000  0  7 02 07 18 19 26 27 31
 -15443912.60749 -12034197.50648         0.00041  20933232.94048  20933231.86349
 -18688108.04849 -14562132.90647         0.00041  21542075.79747  21542074.80449
  25529378.62948  19893006.64944         0.00041  25276259.85744  25276259.75848
   6295206.30249   4905358.71047         0.00041  21933140.28647  21933139.58949
  -8948164.82348  -6972586.48146         0.00041  23379508.17446  23379506.86448
  -8330390.54449  -6491204.81548         0.00041  20317480.52248  20317480.31649
  13056669.28848  10174029.64145         0.00041  24751159.49945  24751156.91148
 94 02 11 00 29 30.0000000  0  7 02 07 18 19 26 27 31
 -15455758.89049 -12043428.36948         0.00041  20930978.71348  20930977.57649
 -18764324.93549 -14621522.64147         0.00041  21527572.25247  21527571.25349
  25641252.48048  19980180.94844         0.00041  25297554.66844  25297548.80848
   6356184.15249   4952873.91247         0.00041  21944744.24647  21944743.23349
  -9018245.49748  -7027194.76946         0.00041  23366172.36346  23366170.90148
  -8309083.55249  -6474601.96148         0.00041  20321535.07448  20321534.86449
  13161900.00648  10256027.57845         0.00041  24771183.85945  24771181.71748
 94 02 11 00 30 00.0000000  0  7 02 07 18 19 26 27 31
 -15467380.42449 -12052484.10048         0.00041  20928767.26648  20928766.00349
 -18840150.95649 -14680607.81347         0.00041  21513142.92747  21513141.92749
  25753056.08048  20067300.36144         0.00041  25318830.97544  25318824.39448
   6417451.11249   5000614.38747         0.00041  21956402.70047  21956401.95849
  -9087964.56048  -7081521.26646         0.00041  23352904.69146  23352903.76348
  -8287380.27149  -6457690.31048         0.00041  20325665.02148  20325664.87249
  13267255.99148  10338123.15545         0.00041  24791230.61545  24791230.10348
 94 02 11 00 30 30.0000000  0  7 02 07 18 19 26 27 31
 -15478758.37649 -12061350.02048         0.00041  20926602.00748  20926600.97449
 -18915553.00649 -14739362.61047         0.00041  21498794.56747  21498793.33349
  25864813.42648  20154383.84245         0.00041  25340094.67345  25340091.38948
   6479043.72449   5048608.61947         0.00041  21968123.81047  21968122.79049
  -9157281.84748  -7135534.71146         0.00041  23339715.17746  23339713.19048
  -8265271.19649  -6440462.45148         0.00041  20329872.30848  20329872.11649
  13372743.31348  10420321.04045         0.00041  24811305.25945  24811303.68148
 94 02 11 00 31 00.0000000  0  7 02 07 18 19 26 27 31
 -15489663.16149 -12069847.24048         0.00041  20924526.76748  20924525.71249
 -18990320.84449 -14797623.21747         0.00041  21484566.71847  21484565.45049
  25976742.10448  20241600.67644         0.00041  25361396.26044  25361390.51048
   6541183.44749   5097029.17747         0.00041  21979948.37847  21979947.54049
  -9225970.16048  -7189058.02846         0.00041  23326643.34346  23326642.28848
  -8242545.84449  -6422754.37748         0.00041  20334196.65148  20334196.64349
  13478577.75148  10502789.41245         0.00041  24831442.43845  24831443.51348
 94 02 11 00 31 30.0000000  0  7 02 07 18 19 26 27 31
 -15500033.92249 -12077928.33448         0.00041  20922553.35848  20922552.27749
 -19064377.57949 -14855329.71747         0.00041  21470473.96647  21470472.85949
  26088902.13248  20328997.82844         0.00041  25382736.37444  25382734.49148
   6603930.31949   5145922.83947         0.00041  21991888.86047  21991887.84449
  -9293956.82848  -7242034.63146         0.00041  23313706.92246  23313705.03448
  -8219129.69849  -6404508.02248         0.00041  20338652.70948  20338652.54649
  13584856.04448  10585603.64945         0.00041  24851670.14145  24851667.32748
 94 02 11 00 32 00.0000000  0  7 02 07 18 19 26 27 31
 -15510776.28149 -12086298.98348         0.00041  20920509.02048  20920507.94549
 -19138613.77149 -14913176.05347         0.00041  21456347.20147  21456346.27749
  26200407.96548  20415885.13144         0.00041  25403949.03044  25403953.25248
   6666383.36648   5194587.54347         0.00041  22003773.06847  22003772.21048
  -9362132.45748  -7295158.45846         0.00041  23300732.21946  23300731.40048
  -8195899.57149  -6386406.61848         0.00041  20343073.27048  20343073.16949
  13690700.90148  10668080.14945         0.00041  24871811.43345  24871808.93648
 94 02 11 00 32 30.0000000  0  7 02 07 18 19 26 27 31
 -15521365.72049 -12094550.47348         0.00041  20918494.13048  20918492.96049
 -19212494.79249 -14970745.63147         0.00041  21442288.20747  21442287.02049
  26311799.63648  20502683.48844         0.00041  25425158.93544  25425150.81648
   6729053.73648   5243421.59447         0.00041  22015698.70947  22015698.04948
  -9429968.99848  -7348018.06246         0.00041  23287823.75446  23287822.51248
  -8172321.07149  -6368033.75148         0.00041  20347560.08348  20347559.99349
  13796642.15448  10750631.75645         0.00041  24891970.13545  24891969.04548
 94 02 11 00 33 00.0000000  0  7 02 07 18 19 26 27 31
 -15531743.80649 -12102637.27248         0.00041  20916519.11348  20916518.07049
 -19285976.56849 -15028004.11447         0.00041  21428305.08347  21428303.82949
  26423125.15248  20589430.29844         0.00041  25446343.80244  25446335.55048
   6791987.59748   5292460.96147         0.00041  22027675.04147  22027673.95048
  -9497420.12048  -7400577.34546         0.00041  23274988.04846  23274987.07948
  -8148331.16949  -6349340.31348         0.00041  20352125.15948  20352125.03649
  13902735.58048  10833301.94645         0.00041  24912161.37945  24912157.92648
 94 02 11 00 33 30.0000000  0  7 02 07 18 19 26 27 31
 -15541893.76249 -12110546.30648         0.00041  20914587.67248  20914586.55949
 -19359031.35649 -15084929.87947         0.00041  21414402.72847  21414401.75449
  26534420.98848  20676153.93644         0.00041  25467521.79644  25467514.47548
   6855226.29048   5341737.86147         0.00041  22039708.75047  22039707.92448
  -9564445.95648  -7452805.22946         0.00041  23262233.86446  23262232.46048
  -8123890.57249  -6330295.68348         0.00041  20356776.05648  20356776.01749
  14009012.75648  10916115.33345         0.00041  24932385.45845  24932381.93348
 94 02 11 00 34 00.0000000  0  7 02 07 18 19 26 27 31
 -15551823.14849 -12118283.46948         0.00041  20912698.11248  20912697.03549
 -19431679.23349 -15141538.57048         0.00041  21400578.37248  21400577.40749
  26645667.92148  20762839.49044         0.00041  25488693.37844  25488684.73448
   6918768.93448   5391251.60347         0.00041  22051800.47747  22051799.66948
  -9631043.53648  -7504699.39846         0.00041  23249561.04346  23249559.26748
  -8099012.21549  -6310909.94148         0.00041  20361510.20948  20361510.09049
  14115446.04148  10999050.33545         0.00041  24952639.11845  24952635.45948
 94 02 11 00 34 30.0000000  0  7 02 07 18 19 26 27 31
 -15561543.47349 -12125857.72748         0.00041  20910848.44048  20910847.29149
 -19503935.33649 -15197841.98748         0.00041  21386828.48048  21386827.40749
  26756836.96748  20849464.39344         0.00041  25509844.45144  25509839.49648
   6982600.68648   5440990.62147         0.00041  22063947.42847  22063946.49148
  -9697218.39848  -7556264.19246         0.00041  23236967.94146  23236966.58048
  -8073731.39249  -6291210.59048         0.00041  20366320.98548  20366320.94449
  14222010.27248  11082087.38845         0.00041  24972915.86545  24972913.81948
 94 02 11 00 35 00.0000000  0  7 02 07 18 19 26 27 31
 -15571049.32949 -12133264.87148         0.00041  20909039.56348  20909038.38049
 -19575785.73049 -15253829.26648         0.00041  21373156.07848  21373154.86649
  26867924.56848  20936025.89044         0.00041  25530984.96244  25530979.22348
   7046750.76148   5490977.68447         0.00041  22076155.07747  22076153.92048
  -9762952.69848  -7607485.68546         0.00041  23224459.64146  23224457.86848
  -8048034.49849  -6271187.03348         0.00041  20371211.01848  20371210.88649
  14328706.88548  11165227.56845         0.00041  24993219.14445  24993217.63848
 94 02 11 00 35 30.0000000  0  7 02 07 18 19 26 27 31
 -15580346.53749 -12140509.43348         0.00041  20907270.20548  20907269.10649
 -19647222.13749 -15309493.96548         0.00041  21359562.12748  21359560.93749
  26978923.17948  21022518.00444         0.00041  25552104.74744  25552101.75848
   7111207.10748   5541203.40647         0.00041  22088420.32647  22088419.49548
  -9828243.70848  -7658361.75946         0.00041  23212034.44846  23212033.35348
  -8021920.27649  -6250838.28548         0.00041  20376180.42948  20376180.23849
  14435541.40248  11248475.24545         0.00041  25013549.31545  25013547.64748
 94 02 11 00 36 00.0000000  0  7 02 07 18 19 26 27 31
 -15589438.00249 -12147593.67948         0.00041  20905540.23348  20905539.07649
 -19718243.39949 -15364835.17848         0.00041  21346047.00348  21346045.93249
  27089823.43148  21108933.48444         0.00041  25573215.65644  25573205.43448
   7175941.24848   5591645.58546         0.00041  22100738.77846  22100738.02848
  -9893107.49448  -7708904.92846         0.00041  23199691.12746  23199689.81148
  -7995395.82549  -6230169.87948         0.00041  20381227.87648  20381227.70049
  14542504.31048  11331822.97045         0.00041  25033905.21045  25033901.92948
 94 02 11 00 36 30.0000000  0  7 02 07 18 19 26 27 31
 -15598332.26349 -12154524.26348         0.00041  20903847.63148  20903846.55049
 -19788858.01449 -15419859.51848         0.00041  21332609.46748  21332608.43049
  27200623.72648  21195271.07544         0.00041  25594296.22744  25594290.38048
   7240937.79348   5642292.23747         0.00041  22113106.90647  22113106.35548
  -9957560.31748  -7759127.86146         0.00041  23187426.31546  23187424.93448
  -7968462.80149  -6209183.10648         0.00041  20386352.97548  20386352.85049
  14649597.98848  11415272.61145         0.00041  25054285.08545  25054281.26248
 94 02 11 00 37 00.0000000  0  7 02 07 18 19 26 27 31
 -15607019.56649 -12161293.58148         0.00041  20902194.56048  20902193.45949
 -19859055.74349 -15474559.01648         0.00041  21319251.29448  21319250.24649
  27311329.04448  21281534.66944         0.00041  25615355.64644  25615357.08348
   7306205.75848   5693150.38147         0.00041  22125527.54747  22125526.50048
 -10021603.16648  -7809031.34746         0.00041  23175239.09246  23175237.99548
  -7941091.95449  -6187855.17248         0.00041  20391561.52748  20391561.38149
  14756841.93248  11498839.33145         0.00041  25074693.03445  25074688.99348
 94 02 11 00 37 30.0000000  0  7 02 07 18 19 26 27 31
 -15615521.74449 -12167918.64948         0.00041  20900576.55148  20900575.49849
 -19928863.61949 -15528954.73248         0.00041  21305967.15448  21305966.24449
  27421917.19448  21367707.05844         0.00041  25636410.88544  25636401.50348
   7371710.70448   5744193.18646         0.00041  22137992.66546  22137991.83148
 -10085259.58248  -7858633.70846         0.00041  23163125.25046  23163124.74148
  -7913316.94549  -6166212.30648         0.00041  20396846.89248  20396846.69849
  14864213.85648  11582505.75945         0.00041  25095123.61145  25095121.30448
 94 02 11 00 38 00.0000000  0  7 02 07 18 19 26 27 31
 -15623810.03949 -12174377.05848         0.00041  20898999.34448  20898998.20149
 -19998255.10049 -15583025.98548         0.00041  21292762.46048  21292761.49949
  27532407.49748  21453803.04844         0.00041  25657435.15444  25657427.27848
   7437497.02548   5795455.24146         0.00041  22150511.07646  22150510.43348
 -10148492.37548  -7907905.97646         0.00041  23151092.77546  23151091.77248
  -7885111.82649  -6144234.28948         0.00041  20402214.12848  20402214.01649
  14971712.34948  11666270.87245         0.00041  25115582.27045  25115577.55848
 94 02 11 00 38 30.0000000  0  7 02 07 18 19 26 27 31
 -15631899.90249 -12180680.84248         0.00041  20897459.95048  20897458.82349
 -20067242.05849 -15636782.02748         0.00041  21279634.87948  21279633.76449
  27642771.17048  21539800.39044         0.00041  25678427.15344  25678428.99248
   7503569.91348   5846940.59946         0.00041  22163084.62546  22163083.68748
 -10211306.39448  -7956851.93246         0.00041  23139140.21046  23139138.59248
  -7856493.87549  -6121934.58448         0.00041  20407659.89348  20407659.87049
  15079316.01848  11750117.90745         0.00041  25136054.90645  25136054.00948
 94 02 11 00 39 00.0000000  0  7 02 07 18 19 26 27 31
 -15639786.30849 -12186826.09148         0.00041  20895959.18148  20895958.14149
 -20135810.41749 -15690211.88748         0.00041  21266586.43848  21266585.58149
  27753007.74147  21625698.89644         0.00041  25699404.50344  25699406.49847
   7569935.84348   5898654.29446         0.00041  22175713.50946  22175712.61848
 -10273694.08148  -8005465.67846         0.00041  23127267.57646  23127266.48948
  -7827463.43849  -6099313.46148         0.00041  20413184.26048  20413184.14549
  15187009.41848  11834034.87945         0.00041  25156549.07045  25156547.13048
 94 02 11 00 39 30.0000000  0  7 02 07 18 19 26 27 31
 -15647471.65549 -12192814.66948         0.00041  20894496.67148  20894495.61049
 -20203957.39649 -15743313.39848         0.00041  21253618.67648  21253617.59649
  27863130.49247  21711508.59744         0.00041  25720359.86944  25720362.31747
   7636602.39548   5950602.24246         0.00041  22188399.47946  22188398.91948
 -10335643.06448  -8053737.58346         0.00041  23115479.27946  23115478.02348
  -7798023.08949  -6076372.92348         0.00041  20418786.56148  20418786.47749
  15294776.01648  11918008.90745         0.00041  25177059.35645  25177054.53148
 94 02 11 00 40 00.0000000  0  7 02 07 18 19 26 27 31
 -15654953.50149 -12198644.67148         0.00041  20893072.88648  20893071.87949
 -20271679.78649 -15796084.06048         0.00041  21240731.50048  21240730.36349
  27973146.33547  21797235.22644         0.00041  25741295.53844  25741297.75047
   7703567.16048   6002782.56446         0.00041  22201142.96046  22201141.86648
 -10397149.77448  -8101664.85846         0.00041  23103775.09746  23103773.77248
  -7768166.78749  -6053108.26448         0.00041  20424467.91748  20424467.89249
  15402617.24148  12002041.08145         0.00041  25197579.08045  25197576.06648
 94 02 11 00 40 30.0000000  0  7 02 07 18 19 26 27 31
 -15662229.35649 -12204314.15848         0.00041  20891688.42348  20891687.33449
 -20338961.98449 -15848511.71548         0.00041  21227928.03448  21227927.00049
  28083068.80147  21882889.50344         0.00041  25762218.18844  25762215.42247
   7770821.56748   6055188.58046         0.00041  22213941.28146  22213939.99148
 -10458221.52748  -8149253.20246         0.00041  23092153.88246  23092152.04448
  -7737898.96149  -6029522.93848         0.00041  20430227.83748  20430227.70349
  15510558.84548  12086151.44145         0.00041  25218120.86545  25218116.55848
 94 02 11 00 41 00.0000000  0  7 02 07 18 19 26 27 31
 -15669294.26649 -12209819.27148         0.00041  20890343.97948  20890342.81549
 -20405788.60749 -15900584.37848         0.00041  21215211.28748  21215210.30149
  28192919.22547  21968486.97944         0.00041  25783128.41344  25783119.49447
   7838365.29348   6107820.03646         0.00041  22226793.83446  22226793.09948
 -10518855.69148  -8196500.57446         0.00041  23080614.67146  23080613.60948
  -7707200.22149  -6005601.83848         0.00041  20436069.59548  20436069.48649
  15618612.07048  12170348.84045         0.00041  25238681.98645  25238678.47448
 94 02 11 00 41 30.0000000  0  7 02 07 18 19 26 27 31
 -15676163.05449 -12215171.56048         0.00041  20889036.86448  20889035.72849
 -20472169.05549 -15952309.36648         0.00041  21202579.42248  21202578.51349
  28302689.02547  22054021.72144         0.00041  25804002.32244  25804008.09947
   7906186.90248   6160668.02546         0.00041  22239699.93646  22239699.08048
 -10579066.40348  -8243417.97646         0.00041  23069156.94446  23069155.79148
  -7676082.34949  -5981354.13848         0.00041  20441991.20348  20441991.01149
  15726775.58048  12254632.17345         0.00041  25259262.39545  25259261.09148
 94 02 11 00 42 00.0000000  0  8 02 07 13 18 19 26 27 31
 -15682828.50949 -12220365.40448         0.00041  20887768.34748  20887767.32849
 -20538108.62549 -16003690.81848         0.00041  21190031.47848  21190030.58749
        -0.36417        -0.99516  25351614.50117  25351621.09316         0.00011
  28412358.96147  22139479.12444         0.00041  25824879.00444  25824877.98047
   7974277.71948   6213725.77746         0.00041  22252657.42446  22252656.49748
 -10638862.31448  -8290012.16846         0.00041  23057778.28646  23057777.11348
  -7644556.75049  -5956788.73248         0.00041  20447990.20848  20447990.16749
  15835040.54148  12338994.53645         0.00041  25279864.61245  25279863.33648
 94 02 11 00 42 30.0000000  0  7 02 07 13 19 26 27 31
 -15689316.75249 -12225421.16048         0.00041  20886533.76548  20886532.75649
 -20603634.08449 -16054749.58248         0.00041  21177562.35148  21177561.47349
   -120342.07007    -93773.27706  25328713.91307  25328720.56706         0.00001
   8042615.05248   6266975.63346         0.00041  22265661.83146  22265660.55748
 -10698282.62848  -8336313.67846         0.00041  23046470.29546  23046470.03348
  -7612641.11049  -5931919.39848         0.00041  20454063.65548  20454063.49549
  15943361.07348  12423400.19745         0.00041  25300478.70545  25300475.87948
 94 02 11 00 43 00.0000000  0  8 02 07 13 15 19 26 27 31
 -15695552.55249 -12230280.20348         0.00041  20885346.99848  20885346.06249
 -20668683.86049 -16105437.68448         0.00041  21165183.71048  21165182.82849
   -240696.04107   -187555.14406  25305810.84807  25305817.39006         0.00001
        -0.99358        -0.51055         0.00051  24028407.99455  24028408.89458
   8111279.13348   6320480.08946         0.00041  22278728.08946  22278727.04048
 -10757252.59948  -8382264.27846         0.00041  23035250.07146  23035248.29748
  -7580256.79949  -5906684.86548         0.00041  20460226.15548  20460225.99549
  16051789.23248  12507889.73645         0.00041  25321111.95545  25321109.03648
 94 02 11 00 43 30.0000000  0  8 02 07 13 15 19 26 27 31
 -15701531.90949 -12234939.42148         0.00041  20884209.22948  20884208.14349
 -20733268.50349 -16155763.34748         0.00041  21152893.76748  21152892.82949
   -361060.56407   -281345.25706  25282906.01307  25282912.27106         0.00001
    -38037.95748    -29639.64445         0.00041  24021171.46145  24021170.57548
   8180270.80848   6374239.81646         0.00041  22291856.71046  22291855.79148
 -10815752.34248  -8427848.46846         0.00041  23024117.28146  23024116.17348
  -7547418.04549  -5881096.22148         0.00041  20466475.09748  20466474.94049
  16160313.31248  12592454.01044         0.00041  25341762.43244  25341760.62448
 94 02 11 00 44 00.0000000  0  8 02 07 13 15 19 26 27 31
 -15707314.85749 -12239445.59148         0.00041  20883108.82048  20883107.73949
 -20797450.55649 -16205775.29948         0.00041  21140680.23848  21140679.30749
   -481482.03707   -375179.74706  25259990.21107  25259996.55506         0.00001
    -75668.56148    -58962.10945         0.00041  24014009.50645  24014009.51648
   8249528.79348   6428207.05246         0.00041  22305035.52246  22305035.19448
 -10873830.04448  -8473103.79246         0.00041  23013065.44146  23013064.42348
  -7514171.86749  -5855190.10348         0.00041  20472801.59348  20472801.56049
  16268876.95848  12677049.13145         0.00041  25362421.96345  25362419.58248
 94 02 11 00 44 30.0000000  0  8 02 07 13 15 19 26 27 31
 -15712895.18149 -12243793.87048         0.00041  20882046.79348  20882045.79549
 -20861206.66649 -16255455.34748         0.00041  21128547.61048  21128546.77849
   -601929.99407   -469034.87207  25237069.50607  25237075.64007         0.00001
   -112862.80548    -87944.52045         0.00041  24006933.23445  24006931.53648
   8319077.72048   6482401.00146         0.00041  22318270.57946  22318269.88648
 -10931449.74848  -8518002.23246         0.00041  23002100.51546  23002099.63248
  -7480497.36949  -5828950.22748         0.00041  20479209.59448  20479209.50849
  16377512.42448  12761700.20144         0.00041  25383097.69144  25383092.04848
 94 02 11 00 45 00.0000000  0  8 02 07 13 15 19 26 27 31
 -15718275.59549 -12247986.37648         0.00041  20881022.96648  20881021.90149
 -20924529.24049 -16304797.57548         0.00041  21116497.75548  21116496.88449
   -722390.81807   -562900.05007  25214146.06707  25214152.24607         0.00001
   -149607.52148   -116576.69345         0.00041  23999941.63045  23999939.23448
   8388920.99648   6536824.31546         0.00041  22331561.48446  22331560.62448
 -10988581.25848  -8562520.26746         0.00041  22991228.74446  22991227.85148
  -7446398.91149  -5802379.99048         0.00041  20485698.46948  20485698.35849
  16486250.30348  12846431.00245         0.00041  25403787.67045  25403784.34848
 94 02 11 00 45 30.0000000  0  8 02 07 13 15 19 26 27 31
 -15723498.78849 -12252056.37148         0.00041  20880028.96848  20880027.92049
 -20987442.34749 -16353820.73748         0.00041  21104526.13148  21104525.11249
   -842889.70607   -656794.91207  25191215.58707  25191221.60507         0.00001
   -185928.55448   -144878.73945         0.00041  23993026.63045  23993027.51548
   8459026.66948   6591452.09046         0.00041  22344902.29946  22344901.37048
 -11045249.13748  -8606677.02046         0.00041  22980445.17646  22980444.22548
  -7411900.26849  -5775497.92148         0.00041  20492263.24948  20492263.21349
  16595077.85648  12931231.70845         0.00041  25424496.58545  25424493.68448
 94 02 11 00 46 00.0000000  0  8 02 07 13 15 19 26 27 31
 -15728557.62949 -12255998.29948         0.00041  20879066.36748  20879065.26149
 -21049929.99549 -16402512.36948         0.00041  21092634.98448  21092634.10149
   -963413.71407   -750709.38607  25168280.42707  25168286.38507         0.00001
   -221813.67348   -172841.08745         0.00041  23986200.50545  23986198.80048
   8529402.31648   6646290.24546         0.00041  22358294.65946  22358293.38548
 -11101464.43348  -8650481.11646         0.00041  22969748.35646  22969746.76448
  -7376999.75649  -5748302.70448         0.00041  20498904.60248  20498904.61249
  16704008.35948  13016112.67145         0.00041  25445222.75645  25445222.16748
 94 02 11 00 46 30.0000000  0  8 02 07 13 15 19 26 27 31
 -15733421.41249 -12259788.23548         0.00041  20878140.72248  20878139.66449
 -21111963.62249 -16450850.22148         0.00041  21080830.24848  21080829.34649
  -1083946.05607   -844630.36707  25145343.67607  25145349.66607         0.00001
   -257246.98148   -200451.36845         0.00041  23979458.23845  23979456.23148
   8600072.96148   6701358.26846         0.00041  22371742.43346  22371741.53348
 -11157206.87248  -8693916.75246         0.00041  22959140.09146  22959139.26248
  -7341686.93649  -5720786.20948         0.00041  20505624.44248  20505624.32549
  16813050.18748  13101080.42844         0.00041  25465975.12644  25465972.14448
 94 02 11 00 47 00.0000000  0  8 02 07 13 15 19 26 27 31
 -15738101.15549 -12263434.76448         0.00041  20877250.31848  20877249.28649
 -21173562.75449 -16498849.50248         0.00041  21069108.21448  21069107.33449
  -1204512.52407   -938577.94807  25122400.32507  25122406.27107         0.00001
   -292254.39248   -227729.80145         0.00041  23972797.24445  23972794.26348
   8671002.22048   6756627.81246         0.00041  22385239.66846  22385239.01648
 -11212513.86348  -8737013.08346         0.00041  22948615.42646  22948614.83048
  -7305977.42549  -5692960.60148         0.00041  20512419.64848  20512419.57249
  16922163.95448  13186104.24644         0.00041  25486735.81944  25486735.69748
 94 02 11 00 47 30.0000000  0  8 02 07 13 15 19 26 27 31
 -15742580.79149 -12266925.36648         0.00041  20876397.67448  20876396.68649
 -21234725.19249 -16546508.50148         0.00041  21057469.44748  21057468.61749
  -1325105.84507  -1032546.44707  25099451.97907  25099457.75107         0.00001
   -326829.59248   -254671.46345         0.00041  23966216.88945  23966214.61548
   8742200.71948   6812107.14846         0.00041  22398788.53646  22398787.64548
 -11267390.47148  -8779774.02946         0.00041  22938172.98646  22938171.94448
  -7269861.59549  -5664818.38048         0.00041  20519292.34648  20519292.21449
  17031330.86248  13271169.52945         0.00041  25507508.27345  25507509.37048
 94 02 11 00 48 00.0000000  0  8 02 07 13 15 19 26 27 31
 -15746843.06649 -12270246.59748         0.00041  20875586.56048  20875585.58749
 -21295447.89949 -16593824.85048         0.00041  21045914.05348  21045913.42649
  -1445723.38608  -1126533.81707  25076499.05308  25076504.42307         0.00001
   -360970.68748   -281274.84945         0.00041  23959719.74245  23959717.93548
   8813665.76048   6867794.19146         0.00041  22412387.55346  22412387.01348
 -11321827.14748  -8822192.18646         0.00041  22927813.78646  22927813.17548
  -7233332.47849  -5636354.12348         0.00041  20526243.50648  20526243.46949
  17140539.74948  13356267.48644         0.00041  25528296.25544  25528290.93448
 94 02 11 00 48 30.0000000  0  8 02 07 13 15 19 26 27 31
 -15750885.35749 -12273396.41348         0.00041  20874817.44748  20874816.42549
 -21355713.54349 -16640785.04648         0.00041  21034445.92448  21034445.17749
  -1566357.11408  -1220533.78707  25053542.94008  25053548.31907         0.00001
   -394670.26248   -307534.20945         0.00041  23953306.40945  23953304.95248
   8885395.33948   6923687.35846         0.00041  22426037.68946  22426036.74048
 -11375799.57348  -8864248.58946         0.00041  22917543.84546  22917542.57748
  -7196357.98149  -5607542.81548         0.00041  20533279.48548  20533279.47549
  17249794.09948  13441400.81544         0.00041  25549086.35444  25549081.27248
 94 02 11 00 49 00.0000000  0  8 02 07 13 15 19 26 27 31
 -15754738.51449 -12276398.85548         0.00041  20874084.03248  20874083.02349
 -21415534.69649 -16687398.88548         0.00041  21023062.31148  21023061.57349
  -1687015.68807  -1314553.09807  25030582.00707  25030587.46607         0.00001
   -427937.81248   -333456.96545         0.00041  23946976.93245  23946974.18848
   8957381.33948   6979780.33746         0.00041  22439735.31446  22439735.01648
 -11429320.75348  -8905953.36746         0.00041  22907358.48746  22907357.65248
  -7158936.28349  -5578383.04248         0.00041  20540400.60248  20540400.49749
  17359088.09948  13526565.24644         0.00041  25569874.74444  25569878.98448
 94 02 11 00 49 30.0000000  0  8 02 07 13 15 19 26 27 31
 -15758430.76749 -12279275.91948         0.00041  20873381.56648  20873380.44649
 -21474911.09049 -16733666.16248         0.00041  21011763.31948  21011762.43849
  -1807698.08108  -1408590.97607  25007616.63508  25007622.04407         0.00001
   -460773.09348   -359042.79045         0.00041  23940727.42445  23940725.75948
   9029634.40848   7036081.43246         0.00041  22453485.27346  22453484.30348
 -11482379.95048  -8947298.16046         0.00041  22897261.62046  22897260.77148
  -7121077.14149  -5548882.40548         0.00041  20547604.89448  20547604.85649
  17468428.87448  13611766.01145         0.00041  25590686.54145  25590685.73748
 94 02 11 00 50 00.0000000  0  8 02 07 13 15 19 26 27 31
 -15761964.02049 -12282029.09048         0.00041  20872709.02748  20872708.07949
 -21533818.44949 -16779567.95448         0.00041  21000553.67948  21000552.87349
  -1928391.95108  -1502637.80707  24984649.17608  24984654.47507         0.00001
   -493164.47648   -384282.79145         0.00041  23934562.73945  23934561.88648
   9102157.18348   7092592.68346         0.00041  22467286.07546  22467284.98348
 -11534953.16148  -8988264.25646         0.00041  22887257.46646  22887256.50948
  -7082774.05649  -5519035.84048         0.00041  20554893.71548  20554893.67949
  17577830.09647  13697013.93444         0.00041  25611507.17644  25611503.94547
 94 02 11 00 50 30.0000000  0  7 02 07 13 15 19 26 27
 -15765335.01049 -12284655.82648         0.00041  20872067.58348  20872066.58249
 -21592258.22749 -16825105.39948         0.00041  20989432.91348  20989432.12549
  -2049089.03208  -1596687.16907  24961681.02208  24961686.18007         0.00001
   -525104.41948   -409170.98845         0.00041  23928487.69645  23928484.14848
   9174958.73048   7149321.14446         0.00041  22481139.65946  22481138.60248
 -11587039.61148  -9028851.05946         0.00041  22877345.79646  22877344.74648
  -7044038.50049  -5488852.28748         0.00041  20562264.85248  20562264.80849
 94 02 11 00 51 00.0000000  0  8 02 07 13 15 16 19 26 27
 -15768519.78249 -12287137.45948         0.00041  20871461.70948  20871460.61149
 -21650224.97149 -16870274.24748         0.00041  20978402.21648  20978401.46049
  -2169765.17508  -1690720.20307  24938716.81008  24938722.10407         0.00001
   -556569.93048   -433689.48545         0.00041  23922498.30945  23922496.42448
        -0.36058         0.07054         0.00051  25514590.07354  25514585.86858
   9248066.85048   7206288.51546         0.00041  22495051.42746  22495050.72248
 -11638633.50348  -9069054.04746         0.00041  22867528.00846  22867526.60248
  -7004873.84849  -5458334.37448         0.00041  20569717.55748  20569717.56349
 94 02 11 00 51 30.0000000  0  8 02 07 13 15 16 19 26 27
 -15771503.88149 -12289462.71948         0.00041  20870893.80648  20870892.70449
 -21707709.34049 -16915067.22348         0.00041  20967463.12248  20967462.43849
  -2290413.51908  -1784731.59407  24915757.87908  24915763.05507         0.00001
   -587554.76748   -457833.47945         0.00041  23916602.70245  23916600.25648
     65526.64548     51060.02344         0.00041  25527056.79144  25527055.47948
   9321466.60748   7263483.12046         0.00041  22509018.87846  22509018.22548
 -11689725.18348  -9108865.70546         0.00041  22857805.18146  22857804.18148
  -6965307.09449  -5427503.13648         0.00041  20577247.03248  20577246.93849
 94 02 11 00 52 00.0000000  0  8 02 07 13 15 16 19 26 27
 -15774280.61849 -12291626.40348         0.00041  20870365.29648  20870364.24249
 -21764745.31849 -16959510.79848         0.00041  20956609.50848  20956608.77149
  -2411057.39308  -1878739.51907  24892799.99308  24892804.93907         0.00001
   -618083.36948   -481621.93445         0.00041  23910792.50145  23910790.51148
    131083.65248    102143.29644         0.00041  25539538.33244  25539530.67148
   9395119.01748   7320874.60146         0.00041  22523034.41546  22523033.76248
 -11740355.03648  -9148317.49546         0.00041  22848170.99246  22848169.62448
  -6925368.17849  -5396381.90148         0.00041  20584847.15948  20584847.03649
 94 02 11 00 52 30.0000000  0  8 02 07 13 15 16 19 26 27
 -15776841.48249 -12293621.87048         0.00041  20869877.97848  20869876.96549
 -21821350.06949 -17003618.36048         0.00041  20945837.80948  20945837.13049
  -2531700.09608  -1972746.55207  24869842.32108  24869847.19207         0.00001
   -648159.54548   -505057.83145         0.00041  23905068.35045  23905067.12048
    196663.19647    153244.03944         0.00041  25552021.04544  25552010.38947
   9469015.11648   7378455.97546         0.00041  22537096.85446  22537095.69148
 -11790544.37848  -9187426.02846         0.00041  22838620.49146  22838618.91348
  -6885057.83249  -5364971.24448         0.00041  20592517.81448  20592517.86749
 94 02 11 00 53 00.0000000  0  8 02 07 13 15 16 19 26 27
 -15779188.89949 -12295451.01748         0.00041  20869431.48748  20869430.31949
 -21877486.83049 -17047361.25348         0.00041  20935155.20348  20935154.55049
  -2652320.00008  -2066735.83107  24846888.86708  24846893.85607         0.00001
   -677762.74048   -528125.22246         0.00041  23899436.75246  23899433.95348
    262273.78547    204369.14044         0.00041  25564497.04144  25564495.59147
   9543169.30648   7436238.44946         0.00041  22551208.07846  22551206.68948
 -11840267.39348  -9226171.19446         0.00041  22829158.67946  22829156.94948
  -6844342.53949  -5333245.04248         0.00041  20600265.76748  20600265.70949
 94 02 11 00 53 30.0000000  0  8 02 07 13 15 16 19 26 27
 -15781346.04949 -12297131.90048         0.00041  20869020.82148  20869019.80849
 -21933177.87849 -17090756.84048         0.00041  20924557.67948  20924556.84849
  -2772931.87208  -2160718.87007  24823937.01708  24823941.79407         0.00001
   -706908.80448   -550836.36445         0.00041  23893888.44345  23893887.72548
    327889.13847    255497.87644         0.00041  25576983.36344  25576981.93747
   9617560.33548   7494205.47846         0.00041  22565363.98646  22565362.80848
 -11889524.47248  -9264553.29146         0.00041  22819784.97346  22819783.63848
  -6803223.34949  -5301204.11148         0.00041  20608090.51648  20608090.43649
 94 02 11 00 54 00.0000000  0  8 02 07 13 15 16 19 26 27
 -15783307.12049 -12298659.99448         0.00041  20868647.65148  20868646.51249
 -21988429.06549 -17133809.67948         0.00041  20914043.83548  20914043.00649
  -2893522.62908  -2254685.46707  24800989.14608  24800993.96907         0.00001
   -735585.60248   -573181.85045         0.00041  23888432.34945  23888430.67348
    393513.29047    306633.42644         0.00041  25589464.72544  25589469.71247
   9692203.43548   7552368.91946         0.00041  22579568.04846  22579567.03548
 -11938310.32848  -9302568.20846         0.00041  22810500.83446  22810499.96848
  -6761656.78849  -5268814.58148         0.00041  20616000.22248  20616000.29349
 94 02 11 00 54 30.0000000  0  8 02 07 13 15 16 19 26 27
 -15785106.82849 -12300062.34948         0.00041  20868305.17948  20868304.04649
 -22043228.50949 -17176510.51048         0.00041  20903615.84448  20903615.06949
  -3014097.29208  -2348639.54207  24778044.50508  24778049.05307         0.00001
   -763799.20748   -595166.42846         0.00041  23883064.00446  23883061.47548
    459129.90047    357763.22144         0.00041  25601955.93244  25601956.05447
   9767095.68748   7610726.51946         0.00041  22593819.29946  22593818.55148
 -11986618.57748  -9340210.95846         0.00041  22801307.97046  22801306.94448
  -6719640.29949  -5236074.45748         0.00041  20623995.63348  20623995.79549
 94 02 11 00 55 00.0000000  0  7 02 07 13 15 19 26 27
 -15786750.75449 -12301343.31448         0.00041  20867992.37848  20867991.24549
 -22097558.02449 -17218845.16148         0.00041  20893277.22248  20893276.46049
  -3134645.22608  -2442572.79907  24755104.79108  24755109.45107         0.00001
   -791539.74648   -616782.38245         0.00041  23877782.30245  23877782.53748
   9842265.05648   7669300.04046         0.00041  22608123.38046  22608122.85448
 -12034439.36548  -9377473.87946         0.00041  22792208.26246  22792207.11248
  -6677172.70849  -5202982.82348         0.00041  20632077.07348  20632077.10049
 94 02 11 00 55 30.0000000  0  7 02 07 13 15 19 26 27
 -15788243.49049 -12302506.46648         0.00041  20867708.20748  20867707.18749
 -22151447.87549 -17260837.21948         0.00041  20883022.31548  20883021.56149
  -3255184.81608  -2536499.57407  24732166.64508  24732171.35507         0.00001
   -818826.97548   -638045.11446         0.00041  23872592.23346  23872590.23448
   9917695.66748   7728077.13146         0.00041  22622478.29146  22622476.89248
 -12081801.31148  -9414379.26846         0.00041  22783195.33446  22783194.40948
  -6634286.07749  -5169564.66348         0.00041  20640238.06248  20640238.18049
 94 02 11 00 56 00.0000000  0  7 02 07 13 15 19 26 27
 -15789566.70249 -12303537.52148         0.00041  20867456.40448  20867455.37849
 -22204858.14649 -17302455.57948         0.00041  20872858.49348  20872857.77849
  -3375699.67608  -2630407.09407  24709233.35208  24709237.93607         0.00001
   -845645.51248   -658942.61346         0.00041  23867487.44946  23867486.81948
   9993411.89548   7787076.78846         0.00041  22636886.02746  22636885.20048
 -12128705.57748  -9450928.02446         0.00041  22774270.44246  22774268.79548
  -6590969.82849  -5135811.73848         0.00041  20648481.00248  20648480.92249
 94 02 11 00 56 30.0000000  0  7 02 07 13 15 19 26 27
 -15790694.82549 -12304416.55648         0.00041  20867241.61548  20867240.62549
 -22257746.51249 -17343667.26048         0.00041  20862794.28848  20862793.52049
  -3496162.62008  -2724274.17907  24686309.95308  24686314.43007         0.00001
   -871969.18548   -679454.52946         0.00041  23862477.92246  23862477.24448
  10069454.28648   7846330.58846         0.00041  22651357.05246  22651355.51548
 -12175129.12848  -9487102.18846         0.00041  22765435.45446  22765434.68548
  -6547214.58449  -5101716.73548         0.00041  20656807.40548  20656807.27149
 94 02 11 00 57 00.0000000  0  7 02 07 13 15 19 26 27
 -15791639.15749 -12305152.37748         0.00041  20867062.01248  20867060.95549
 -22310156.55049 -17384506.21548         0.00041  20852820.85548  20852820.19649
  -3616594.74908  -2818117.28107  24663392.40508  24663396.90907         0.00001
   -897820.02948   -699597.96946         0.00041  23857560.47746  23857557.99448
  10145794.72648   7905816.63246         0.00041  22665883.83846  22665882.58548
 -12221094.46948  -9522919.31346         0.00041  22756688.64246  22756687.59448
  -6503045.79849  -5067299.49648         0.00041  20665212.47648  20665212.29449
 94 02 11 00 57 30.0000000  0  7 02 07 13 15 19 26 27
 -15792377.35249 -12305727.57248         0.00041  20866921.53148  20866920.44749
 -22362084.10149 -17424969.20648         0.00041  20842939.42948  20842938.69749
  -3736981.21108  -2911924.82307  24640483.48808  24640488.00607         0.00001
   -923184.08848   -719362.13845         0.00041  23852732.34845  23852731.36048
  10222421.58348   7965525.86946         0.00041  22680465.40446  22680464.24948
 -12266576.63348  -9558359.93246         0.00041  22748034.16646  22748032.78548
  -6458449.19149  -5032548.88848         0.00041  20673698.87148  20673698.77249
 94 02 11 00 58 00.0000000  0  7 02 07 13 15 19 26 27
 -15792897.51049 -12306132.86948         0.00041  20866822.50848  20866821.48549
 -22413515.67449 -17465045.72148         0.00041  20833152.12348  20833151.49949
  -3857312.22608  -3005689.17907  24617585.27108  24617589.65507         0.00001
   -948052.83448   -738740.29446         0.00041  23848001.61846  23847998.98748
  10299335.48048   8025458.76646         0.00041  22695101.90846  22695100.53148
 -12311558.66448  -9593410.84046         0.00041  22739474.04046  22739472.88948
  -6413412.89549  -4997455.66648         0.00041  20682268.84848  20682268.90649
 94 02 11 00 58 30.0000000  0  7 02 07 13 15 19 26 27
 -15793214.52849 -12306379.87548         0.00041  20866762.11948  20866761.15549
 -22464479.01949 -17504757.38348         0.00041  20823454.18848  20823453.53749
  -3977596.87308  -3099417.41907  24594695.83208  24594700.15807         0.00001
   -972437.06948   -757740.96046         0.00041  23843360.37946  23843358.86548
  10376498.38048   8085585.68946         0.00041  22709785.42746  22709784.11048
 -12356040.97748  -9628072.35446         0.00041  22731009.37446  22731008.14548
  -6367954.88649  -4962033.83548         0.00041  20690919.13648  20690919.31949
 94 02 11 00 59 00.0000000  0  7 02 07 13 15 19 26 27
 -15793317.59949 -12306460.16948         0.00041  20866742.33248  20866741.36549
 -22514969.03149 -17544100.21448         0.00041  20813846.32248  20813845.63149
  -4097818.86208  -3193096.84107  24571818.37808  24571822.68807         0.00001
   -996321.86648   -776352.40645         0.00041  23838816.94845  23838813.42348
  10453908.01848   8145904.87846         0.00041  22724515.38746  22724514.69348
 -12399998.38548  -9662324.84646         0.00041  22722643.85946  22722643.20648
  -6322070.09649  -4926279.44648         0.00041  20699650.63648  20699650.85249
 94 02 11 00 59 30.0000000  0  7 02 07 13 15 19 26 27
 -15793219.33449 -12306383.57948         0.00041  20866761.17248  20866760.20049
 -22564985.43949 -17583074.00348         0.00041  20804328.39748  20804327.77849
  -4217981.18808  -3286729.75607  24548952.13008  24548956.52607         0.00001
  -1019711.19148   -794577.77745         0.00041  23834364.40945  23834362.66548
  10531554.43948   8206408.57246         0.00041  22739290.81846  22739290.28748
 -12443442.53948  -9696177.39946         0.00041  22714376.83646  22714376.01348
  -6275775.81649  -4890205.97348         0.00041  20708460.28548  20708460.33149
 94 02 11 01 00 00.0000000  0  7 02 07 13 15 19 26 27
 -15792930.36849 -12306158.39248         0.00041  20866816.17448  20866815.18749
 -22614534.71749 -17621683.79648         0.00041  20794899.26248  20794898.82849
  -4338084.00108  -3380316.29307  24526097.26508  24526101.78507         0.00001
  -1042606.04048   -812417.83345         0.00041  23830006.58245  23830005.77148
  10609440.99248   8267099.38146         0.00041  22754112.86546  22754111.72048
 -12486387.18448  -9729640.72746         0.00041  22706204.79146  22706204.05148
  -6229074.47949  -4853815.31348         0.00041  20717347.36548  20717347.33049
 94 02 11 01 00 30.0000000  0  7 02 07 13 15 19 26 27
 -15792462.84449 -12305794.06948         0.00041  20866905.01148  20866904.08049
 -22663624.48849 -17659935.53348         0.00041  20785557.86648  20785557.38749
  -4458117.92808  -3473849.13807  24503255.50108  24503259.87007         0.00001
  -1064998.33148   -829866.32145         0.00041  23825746.75645  23825744.55648
  10687578.74548   8327985.93646         0.00041  22768981.79346  22768980.90148
 -12528822.76748  -9762707.38046         0.00041  22698129.67146  22698128.76948
  -6181972.62949  -4817112.56648         0.00041  20726310.73248  20726310.56149
 94 02 11 01 01 00.0000000  0  7 02 07 13 15 19 26 27
 -15791819.01549 -12305292.36748         0.00041  20867027.51348  20867026.53049
 -22712248.26349 -17697824.15548         0.00041  20776305.12048  20776304.55549
  -4578080.65108  -3567326.48407  24480427.34608  24480431.67807         0.00001
  -1086887.11548   -846922.43045         0.00041  23821581.42545  23821579.45648
  10765987.73448   8389083.84246         0.00041  22783902.76146  22783901.53648
 -12570742.20948  -9795371.84946         0.00041  22690152.08546  22690151.68048
  -6134475.04749  -4780101.45548         0.00041  20735349.09248  20735348.98349
 94 02 11 01 01 30.0000000  0  7 02 07 13 15 19 26 27
 -15790990.27249 -12304646.57548         0.00041  20867185.08648  20867184.16549
 -22760384.87449 -17735333.17348         0.00041  20767144.85048  20767144.33049
  -4697960.14308  -3660738.95507  24457614.99008  24457619.16907         0.00001
  -1108261.78348   -863577.96045         0.00041  23817511.72945  23817511.84948
  10844684.12048   8450405.68446         0.00041  22798878.39746  22798876.93348
 -12612141.72048  -9827631.17346         0.00041  22682274.57446  22682273.68848
  -6086553.41149  -4742759.91548         0.00041  20744468.06948  20744468.13549
 94 02 11 01 02 00.0000000  0  7 02 07 13 15 19 26 27
 -15790031.21749 -12303899.24248         0.00041  20867367.83948  20867366.69849
 -22808074.36949 -17772493.78748         0.00041  20758069.85848  20758069.30749
  -4817805.84808  -3754125.07607  24434808.97708  24434813.17907         0.00001
  -1129173.15248   -879872.48045         0.00041  23813534.51945  23813532.51448
  10923616.27748   8511911.25146         0.00041  22813898.57646  22813897.22748
 -12653072.28748  -9859525.09346         0.00041  22674485.69846  22674484.91948
  -6038249.67449  -4705120.63648         0.00041  20753659.97948  20753660.00649
 94 02 11 01 02 30.0000000  0  7 02 07 13 15 19 26 27
 -15788932.00649 -12303042.69548         0.00041  20867576.91348  20867575.92249
 -22855285.17949 -17809281.40348         0.00041  20749085.99548  20749085.43449
  -4937600.32608  -3847471.26107  24412012.69708  24412016.90307         0.00001
  -1149605.20748   -895793.51245         0.00041  23809644.08945  23809644.45348
  11002793.73648   8573607.97146         0.00041  22828965.80146  22828964.25648
 -12693514.79048  -9891038.70446         0.00041  22666789.68946  22666788.90448
  -5989548.68449  -4667171.80748         0.00041  20762927.39548  20762927.59749
 94 02 11 01 03 00.0000000  0  7 02 07 13 15 19 26 27
 -15787656.59649 -12302048.85148         0.00041  20867819.69648  20867818.62149
 -22901982.29349 -17845668.73748         0.00041  20740199.86348  20740199.31549
  -5057318.66908  -3940758.09907  24389230.90908  24389235.06507         0.00001
  -1169534.75448   -911322.98645         0.00041  23805853.01945  23805851.82648
  11082238.21348   8635512.74846         0.00041  22844083.06546  22844082.26748
 -12733461.76948  -9922166.20146         0.00041  22659188.47946  22659187.25348
  -5940405.83749  -4628878.67748         0.00041  20772279.19248  20772279.15149
 94 02 11 01 03 30.0000000  0  7 02 07 13 15 19 26 27
 -15786233.35449 -12300939.81548         0.00041  20868090.47648  20868089.54249
 -22948207.69849 -17881688.50548         0.00041  20731403.27948  20731402.83849
  -5176992.13008  -4034009.93707  24366457.66108  24366461.90207         0.00001
  -1188994.45148   -926486.36545         0.00041  23802148.53445  23802148.76448
  11161908.91748   8697593.80546         0.00041  22859243.89846  22859243.05948
 -12772961.03548  -9952944.81446         0.00041  22651671.31146  22651670.72148
  -5890839.00949  -4590255.17448         0.00041  20781711.39548  20781711.39749
 94 02 11 01 04 00.0000000  0  7 02 07 13 15 19 26 27
 -15784635.91549 -12299695.04048         0.00041  20868394.42148  20868393.45349
 -22993959.15049 -17917338.96148         0.00041  20722696.95648  20722696.51649
  -5296601.33708  -4127211.68907  24343696.61408  24343700.68307         0.00001
  -1207965.85548   -941269.28545         0.00041  23798540.54545  23798538.61748
  11241817.84148   8759860.49946         0.00041  22874449.90546  22874448.94448
 -12811993.68048  -9983359.83946         0.00041  22644244.08846  22644243.00348
  -5840844.49249  -4551298.40848         0.00041  20791225.06948  20791225.05349
 94 02 11 01 04 30.0000000  0  7 02 07 13 15 19 26 27
 -15782825.47049 -12298284.28948         0.00041  20868738.87248  20868737.94249
 -23039221.84649 -17952608.56748         0.00041  20714083.71548  20714083.16649
  -5416114.94808  -4220338.94807  24320953.73108  24320957.83007         0.00001
  -1226419.07448   -955648.30645         0.00041  23795028.90345  23795026.96348
  11322007.56348   8822345.99146         0.00041  22889710.36246  22889708.73148
 -12850522.46648 -10013382.23446         0.00041  22636911.63746  22636911.11848
  -5790399.33449  -4511990.49648         0.00041  20800824.38948  20800824.45049
 94 02 11 01 05 00.0000000  0  7 02 07 13 15 19 26 27
 -15780800.86149 -12296706.65448         0.00041  20869124.24048  20869123.26749
 -23084012.45249 -17987510.31448         0.00041  20705560.26548  20705559.79549
  -5535540.46708  -4313397.57507  24298227.69008  24298231.61607         0.00001
  -1244363.32748   -969630.82545         0.00041  23791614.93645  23791612.41348
  11402465.70648   8885040.64946         0.00041  22905020.11546  22905019.38648
 -12888546.28048 -10043011.12846         0.00041  22629676.43546  22629675.47648
  -5739512.86649  -4472338.70748         0.00041  20810507.91348  20810507.84849
 94 02 11 01 05 30.0000000  0  7 02 07 13 15 19 26 27
 -15778566.85449 -12294965.85148         0.00041  20869549.24848  20869548.31949
 -23128326.98749 -18022041.09448         0.00041  20697127.52548  20697127.09049
  -5654868.61808  -4406380.34007  24275520.14608  24275524.04007         0.00001
  -1261790.65948   -983210.54145         0.00041  23788297.44845  23788295.92048
  11483191.00548   8947943.48646         0.00041  22920381.43446  22920380.85448
 -12926042.93648 -10072229.28246         0.00041  22622540.45946  22622540.05048
  -5688202.27549  -4432356.42948         0.00041  20820271.98648  20820271.90849
 94 02 11 01 06 00.0000000  0  7 02 07 13 15 19 26 27
 -15776138.36649 -12293073.50748         0.00041  20870011.35348  20870010.35049
 -23172148.85249 -18056187.97348         0.00041  20688788.55648  20688788.06749
  -5774097.22108  -4499285.54007  24252831.43408  24252835.38707         0.00001
  -1278700.51948   -996386.99745         0.00041  23785080.04845  23785077.92048
  11564183.04448   9011054.15446         0.00041  22935794.33446  22935793.08448
 -12963008.61048 -10101033.66446         0.00041  22615506.05346  22615505.64348
  -5636480.94749  -4392054.10248         0.00041  20830114.08648  20830114.17049
 94 02 11 01 06 30.0000000  0  7 02 07 13 15 19 26 27
 -15773535.33749 -12291045.15448         0.00041  20870506.66048  20870505.80249
 -23215468.46549 -18089943.48548         0.00041  20680545.19348  20680544.72549
  -5893227.67508  -4592114.25407  24230161.56908  24230165.31807         0.00001
  -1295095.63548  -1009162.38445         0.00041  23781958.52645  23781958.03448
  11645428.67548   9074362.43446         0.00041  22951254.57846  22951253.57148
 -12999442.38848 -10129423.57846         0.00041  22608572.94346  22608572.60048
  -5584343.25449  -4351427.33348         0.00041  20840035.43448  20840035.68749
 94 02 11 01 07 00.0000000  0  7 02 07 13 15 19 26 27
 -15770780.97049 -12288898.87548         0.00041  20871030.77548  20871029.91249
 -23258289.00049 -18123310.10648         0.00041  20672396.60648  20672396.19549
  -6012263.25208  -4684869.03007  24207509.68308  24207513.41907         0.00001
  -1310981.25948  -1021540.74845         0.00041  23778935.79445  23778935.20148
  11726902.89248   9137848.83046         0.00041  22966758.48546  22966757.64648
 -13035355.31448 -10157407.63146         0.00041  22601739.16146  22601738.58248
  -5531790.48549  -4310477.12648         0.00041  20850036.12548  20850036.07649
 94 02 11 01 07 30.0000000  0  7 02 07 13 15 19 26 27
 -15767877.51349 -12286636.41948         0.00041  20871583.29548  20871582.41349
 -23300599.40249 -18156279.22048         0.00041  20664345.05348  20664344.64049
  -6131192.78008  -4777541.15907  24184877.94808  24184881.72007         0.00001
  -1326347.61548  -1033514.49045         0.00041  23776013.26945  23776011.04648
  11808624.15748   9201527.72446         0.00041  22982309.26646  22982308.75048
 -13070753.50448 -10184990.59746         0.00041  22595003.17046  22595002.36548
  -5478817.88249  -4269199.77748         0.00041  20860116.22948  20860116.42449
 94 02 11 01 08 00.0000000  0  7 02 07 13 15 19 26 27
 -15764820.57049 -12284254.36548         0.00041  20872165.03248  20872164.15949
 -23342407.07549 -18188856.59748         0.00041  20656389.33548  20656388.95149
  -6250019.87608  -4870133.45607  24162265.76008  24162269.61607         0.00001
  -1341199.78348  -1045087.56045         0.00041  23773186.69645  23773184.84148
  11890586.90948   9265394.79846         0.00041  22997906.96146  22997905.76748
 -13105640.99448 -10212175.62046         0.00041  22588364.07646  22588363.41548
  -5425418.20149  -4227589.64148         0.00041  20870277.99348  20870278.01449
 94 02 11 01 08 30.0000000  0  7 02 07 13 15 19 26 27
 -15761603.58549 -12281747.60148         0.00041  20872777.09548  20872776.25449
 -23383734.24849 -18221059.55648         0.00041  20648525.17448  20648524.66249
  -6368742.13808  -4962644.05307  24139673.55708  24139677.26207         0.00001
  -1355537.11848  -1056259.49845         0.00041  23770460.35645  23770456.36348
  11972788.76348   9329448.18146         0.00041  23013548.66446  23013548.20748
 -13140012.17048 -10238958.31446         0.00041  22581823.58246  22581822.74948
  -5371594.70949  -4185649.26448         0.00041  20880520.40748  20880520.38949
 94 02 11 01 09 00.0000000  0  7 02 07 13 15 19 26 27
 -15758212.57149 -12279105.23048         0.00041  20873422.25848  20873421.49249
 -23424584.98749 -18252891.26848         0.00041  20640751.41548  20640751.00149
  -6487346.38808  -5055062.69307  24117103.65408  24117107.27507         0.00001
  -1369348.44148  -1067021.51945         0.00041  23767829.38945  23767828.31348
  12055258.74148   9393710.48746         0.00041  23029242.57046  23029241.75148
 -13173864.55548 -10265336.76446         0.00041  22575381.53746  22575380.86748
  -5317350.88049  -4143381.35448         0.00041  20890842.49848  20890842.69649
 94 02 11 01 09 30.0000000  0  7 02 07 13 15 19 26 27
 -15754643.45249 -12276324.07548         0.00041  20874101.53348  20874100.68149
 -23464965.31249 -18284356.42348         0.00041  20633067.33248  20633066.87549
  -6605834.58208  -5147390.90807  24094555.98808  24094559.55707         0.00001
  -1382637.10148  -1077376.29145         0.00041  23765300.79845  23765299.58248
  12137998.69848   9458183.17046         0.00041  23044988.52146  23044986.63748
 -13207206.55248 -10291317.51646         0.00041  22569037.14046  22569036.23948
  -5262695.53149  -4100792.77348         0.00041  20901243.33848  20901243.21249
 94 02 11 01 10 00.0000000  0  7 02 07 13 15 19 26 27
 -15750886.89749 -12273396.86648         0.00041  20874816.46248  20874815.51749
 -23504879.95049 -18315458.70548         0.00041  20625471.58448  20625471.21849
  -6724200.47308  -5239623.83307  24072031.45008  24072034.92807         0.00001
  -1395398.56648  -1087320.17145         0.00041  23762870.94345  23762871.15548
  12221000.59548   9522859.94346         0.00041  23060783.06946  23060781.47648
 -13240020.09048 -10316886.47446         0.00041  22562792.57746  22562792.03048
  -5207626.19349  -4057881.60448         0.00041  20911722.48048  20911722.50849
 94 02 11 01 10 30.0000000  0  7 02 07 13 15 19 26 27
 -15746959.11649 -12270336.23648         0.00041  20875563.73548  20875562.88949
 -23544338.77349 -18346205.80648         0.00041  20617962.93348  20617962.51249
  -6842456.92808  -5331771.50407  24049527.88708  24049531.35807         0.00001
  -1407647.47248  -1096864.82045         0.00041  23760542.05045  23760540.12448
  12304246.96148   9587727.23546         0.00041  23076624.23246  23076622.77248
 -13272335.32048 -10342067.15046         0.00041  22556643.49446  22556642.57148
  -5152166.83149  -4014666.52548         0.00041  20922276.15448  20922276.09549
 94 02 11 01 11 00.0000000  0  7 02 07 13 15 19 26 27
 -15742847.85049 -12267132.63048         0.00041  20876346.07548  20876345.24249
 -23583308.86049 -18376572.07448         0.00041  20610547.09548  20610546.71849
  -6960595.17508  -5423827.08607  24027046.70508  24027050.14707         0.00001
  -1419376.60648  -1106004.38345         0.00041  23758308.25345  23758308.34548
  12387733.72848   9652781.82546         0.00041  23092511.20746  23092509.74148
 -13304141.73748 -10366851.34746         0.00041  22550590.59546  22550589.97248
  -5096301.38749  -3971135.01648         0.00041  20932907.00648  20932906.96249
 94 02 11 01 11 30.0000000  0  7 02 07 13 15 19 26 27
 -15738550.52749 -12263784.04748         0.00041  20877163.66748  20877162.93349
 -23621771.78149 -18406543.14748         0.00041  20603227.85048  20603227.46649
  -7078618.31508  -5515793.00307  24004587.57508  24004591.02007         0.00001
  -1430590.73348  -1114742.64345         0.00041  23756175.01245  23756174.27248
  12471433.17048   9718002.16846         0.00041  23108438.53546  23108437.27848
 -13335422.00348 -10391225.54946         0.00041  22544638.18846  22544637.56748
  -5040027.14449  -3927284.95948         0.00041  20943615.54748  20943615.54249
 94 02 11 01 12 00.0000000  0  7 02 07 13 15 19 26 27
 -15734061.17949 -12260285.83548         0.00041  20878017.97248  20878017.19549
 -23659713.36649 -18436107.98648         0.00041  20596007.70348  20596007.38149
  -7196518.02408  -5607662.76807  23982151.85608  23982155.22707         0.00001
  -1441283.38748  -1123074.52845         0.00041  23754140.94245  23754139.46748
  12555346.90748   9783389.47946         0.00041  23124407.05646  23124405.46948
 -13366160.78448 -10415177.82646         0.00041  22538788.89646  22538787.93848
  -4983331.93249  -3883106.87948         0.00041  20954404.39748  20954404.27249
 94 02 11 01 12 30.0000000  0  7 02 07 13 15 19 26 27
 -15729406.31449 -12256658.65348         0.00041  20878903.90648  20878903.04049
 -23697147.21149 -18465277.18248         0.00041  20588884.34148  20588883.93849
  -7314311.79408  -5699450.00707  23959736.45808  23959739.70007         0.00001
  -1451473.96048  -1131015.20145         0.00041  23752200.92645  23752199.93848
  12639459.45548   9848931.69046         0.00041  23140412.37446  23140411.56248
 -13396384.53648 -10438728.77146         0.00041  22533037.39446  22533036.69848
  -4926227.99349  -3838610.30748         0.00041  20965271.08948  20965270.82349
 94 02 11 01 13 00.0000000  0  7 02 07 13 15 19 26 27
 -15724578.83549 -12252896.96648         0.00041  20879822.54548  20879821.72349
 -23734055.03549 -18494036.49448         0.00041  20581861.01648  20581860.55049
  -7431975.18108  -5791135.66907  23937345.73508  23937349.00807         0.00001
  -1461140.34848  -1138547.39945         0.00041  23750361.76145  23750360.67348
  12723797.64548   9914649.75946         0.00041  23156461.45346  23156460.53148
 -13426058.55248 -10461851.34946         0.00041  22527390.64946  22527389.70548
  -4868686.28449  -3793772.61548         0.00041  20976220.78648  20976220.64249
 94 02 11 01 13 30.0000000  0  7 02 07 13 15 19 26 27
 -15719600.47849 -12249017.71248         0.00041  20880769.81748  20880768.97749
 -23770461.53149 -18522405.16248         0.00041  20574932.80248  20574932.47149
  -7549511.83608  -5882722.59307  23914979.17408  23914982.46207         0.00001
  -1470287.76348  -1145675.22245         0.00041  23748622.32645  23748620.06048
  12808367.30248   9980548.17246         0.00041  23172554.00846  23172553.70448
 -13455210.00448 -10484566.73246         0.00041  22521843.04746  22521842.45748
  -4810719.53649  -3748603.72148         0.00041  20987251.21248  20987251.35649
 94 02 11 01 14 00.0000000  0  7 02 07 13 15 19 26 27
 -15714487.62849 -12245033.66248         0.00041  20881742.72748  20881741.90249
 -23806393.31849 -18550403.92948         0.00041  20568095.42948  20568094.94849
  -7666922.77408  -5974211.56507  23892636.59308  23892639.85107         0.00001
  -1478919.09648  -1152400.85346         0.00041  23746979.08846  23746977.20948
  12893176.72148  10046633.41046         0.00041  23188693.22946  23188692.46148
 -13483869.25348 -10506898.58546         0.00041  22516389.34546  22516388.93548
  -4752340.37549  -3703113.47147         0.00041  20998360.78247  20998360.55749
 94 02 11 01 14 30.0000000  0  7 02 07 13 15 19 26 27
 -15709199.73949 -12240913.21348         0.00041  20882749.11748  20882748.26649
 -23841810.83849 -18578001.96848         0.00041  20561355.66748  20561355.26549
  -7784161.15108  -6065566.07207  23870326.82108  23870330.02507         0.00001
  -1486989.05548  -1158689.08845         0.00041  23745443.80645  23745441.47848
  12978267.42448  10112937.84346         0.00041  23204885.45246  23204884.57648
 -13511989.45348 -10528810.39446         0.00041  22511038.69146  22511037.71848
  -4693519.87749  -3657279.31847         0.00041  21009553.90247  21009553.71049
 94 02 11 01 15 00.0000000  0  7 02 07 13 15 19 26 27
 -15703745.52649 -12236663.16348         0.00041  20883786.79948  20883786.00349
 -23876720.72449 -18605204.44648         0.00041  20554712.52648  20554712.06649
  -7901236.27508  -6156793.36607  23848048.11008  23848051.34107         0.00001
  -1494509.32748  -1164549.02345         0.00041  23744012.63245  23744010.59748
  13063621.46648  10179447.46346         0.00041  23221127.19146  23221126.99648
 -13539580.52748 -10550309.90546         0.00041  22505787.94246  22505787.40348
  -4634283.73849  -3611121.29047         0.00041  21020825.89147  21020825.93749
 94 02 11 01 15 30.0000000  0  7 02 07 13 15 19 26 27
 -15698113.93249 -12232274.89848         0.00041  20884858.46048  20884857.71749
 -23911137.74349 -18632022.87448         0.00041  20548163.14348  20548162.65349
  -8018150.41808  -6247895.20707  23825800.01408  23825803.20507         0.00001
  -1501484.26748  -1169984.00545         0.00041  23742683.75145  23742683.19348
  13149216.65848  10246145.00446         0.00041  23237416.24946  23237415.12948
 -13566650.94848 -10571403.71146         0.00041  22500637.00446  22500635.99048
  -4574647.83749  -3564651.75847         0.00041  21032174.21647  21032174.34249
 94 02 11 01 16 00.0000000  0  7 02 07 13 15 19 26 27
 -15692285.71649 -12227733.41748         0.00041  20885967.50148  20885966.75049
 -23945062.57149 -18658457.77548         0.00041  20541707.46748  20541706.92649
  -8134898.56208  -6338867.68907  23803583.58008  23803586.69907         0.00001
  -1507910.91048  -1174991.72945         0.00041  23741463.12545  23741460.06848
  13235049.33048  10313027.59846         0.00041  23253748.68346  23253748.54848
 -13593180.14448 -10592075.78846         0.00041  22495588.18146  22495587.70748
  -4514615.28949  -3517873.15447         0.00041  21043598.15447  21043598.17349
 94 02 11 01 16 30.0000000  0  7 02 07 13 15 19 26 27
 -15686260.07349 -12223038.09748         0.00041  20887114.43948  20887113.50649
 -23978495.57049 -18684509.43448         0.00041  20535345.28648  20535344.83649
  -8251487.82908  -6429716.36307  23781397.17408  23781400.36107         0.00001
  -1513798.21448  -1179579.19745         0.00041  23740343.02845  23740340.02648
  13321107.34948  10380085.78346         0.00041  23270125.39146  23270124.67848
 -13619167.05948 -10612325.30846         0.00041  22490643.23946  22490642.37848
  -4454185.91049  -3470785.33047         0.00041  21055097.54447  21055097.44749
 94 02 11 01 17 00.0000000  0  7 02 07 13 15 19 26 27
 -15680049.00149 -12218198.28848         0.00041  20888296.04748  20888295.29349
 -24011445.24849 -18710184.48048         0.00041  20529075.15848  20529074.73849
  -8367926.36808  -6520447.57807  23759239.62808  23759242.72807         0.00001
  -1519155.91248  -1183753.99445         0.00041  23739322.64745  23739320.43448
  13407381.49048  10447312.36546         0.00041  23286542.96746  23286542.25248
 -13644627.55348 -10632164.63146         0.00041  22485797.98446  22485797.36648
  -4393353.90649  -3423383.77647         0.00041  21066673.67947  21066673.44849
 94 02 11 01 17 30.0000000  0  7 02 07 13 15 19 26 27
 -15673655.54449 -12213216.35848         0.00041  20889512.75248  20889511.98249
 -24043919.38749 -18735488.97748         0.00041  20522895.51648  20522895.09049
  -8484210.79908  -6611058.70607  23737111.35508  23737114.45207         0.00001
  -1523983.10948  -1187515.40045         0.00041  23738400.31945  23738401.65848
  13493887.55448  10514719.68146         0.00041  23303005.15446  23303003.96248
 -13669562.66948 -10651594.57246         0.00041  22481053.26446  22481052.53648
  -4332109.04549  -3375660.51547         0.00041  21078328.06747  21078328.00849
 94 02 11 01 18 00.0000000  0  7 02 07 13 15 19 26 27
 -15667098.78749 -12208107.18148         0.00041  20890760.37248  20890759.63149
 -24075905.30849 -18760413.04548         0.00041  20516808.58548  20516808.20949
  -8600343.79208  -6701551.81507  23715011.80408  23715014.85207         0.00001
  -1528284.71448  -1190867.28245         0.00041  23737582.94545  23737582.92548
  13580633.36948  10582313.82446         0.00041  23319512.97946  23319511.17148
 -13693981.88448 -10670622.51646         0.00041  22476406.35546  22476405.67648
  -4270446.66349  -3327611.91047         0.00041  21090061.96047  21090061.91649
 94 02 11 01 18 30.0000000  0  7 02 07 13 15 19 26 27
 -15660390.31749 -12202879.78848         0.00041  20892036.92548  20892036.08249
 -24107388.84249 -18784945.64348         0.00041  20510817.50248  20510817.11249
  -8716320.54108  -6791923.16208  23692942.11308  23692945.07008         0.00001
  -1532057.72448  -1193807.23145         0.00041  23736866.82645  23736865.27948
  13667612.75048  10650089.93946         0.00041  23336064.01346  23336062.65648
 -13717893.99148 -10689255.30546         0.00041  22471855.32246  22471855.42548
  -4208362.43449  -3279234.59347         0.00041  21101876.13547  21101876.07649
 94 02 11 01 19 00.0000000  0  7 02 07 13 15 19 26 27
 -15653536.30449 -12197538.98748         0.00041  20893341.13148  20893340.22749
 -24138369.26049 -18809086.20248         0.00041  20504922.12848  20504921.77649
  -8832134.85108  -6882167.91408  23670903.21208  23670906.19608         0.00001
  -1535298.26248  -1196332.30445         0.00041  23736249.37545  23736248.59248
  13754825.81048  10718048.16846         0.00041  23352660.10546  23352658.74448
 -13741301.71648 -10707495.07346         0.00041  22467402.05946  22467401.10148
  -4145867.45549  -3230537.21547         0.00041  21113768.72647  21113768.52949
 94 02 11 01 19 30.0000000  0  7 02 07 13 15 19 26 27
 -15646519.47349 -12192071.31948         0.00041  20894676.38148  20894675.66049
 -24168842.40849 -18832831.48648         0.00041  20499123.25048  20499122.90849
  -8947768.73908  -6972272.06908  23648898.65308  23648901.66008         0.00001
  -1537990.69848  -1198430.28045         0.00041  23735738.81745  23735735.92448
  13842281.97748  10786195.81046         0.00041  23369301.67646  23369301.22848
 -13764191.77248 -10725331.46246         0.00041  22463045.84646  22463045.15748
  -4082966.84749  -3181523.76047         0.00041  21125738.24847  21125738.13949
 94 02 11 01 20 00.0000000  0  7 02 07 13 15 19 26 27
 -15639330.19549 -12186469.27048         0.00041  20896044.52448  20896043.82649
 -24198796.02549 -18856171.93948         0.00041  20493423.24048  20493422.96749
  -9063216.01808  -7062230.79608  23626929.67608  23626932.55008         0.00001
  -1540130.49448  -1200097.59445         0.00041  23735330.10245  23735328.51748
  13929966.29748  10854521.23946         0.00041  23385987.99946  23385986.88148
 -13786547.64848 -10742751.61446         0.00041  22458791.73646  22458790.92148
  -4019668.97949  -3132200.75347         0.00041  21137783.39847  21137783.32249
 94 02 11 01 20 30.0000000  0  7 02 07 13 15 19 26 27
 -15631958.16849 -12180724.82248         0.00041  20897447.35248  20897446.56749
 -24228226.99849 -18879105.14048         0.00041  20487822.76448  20487822.43049
  -9178471.13808  -7152039.77308  23604997.18608  23605000.05108         0.00001
  -1541714.66048  -1201331.97845         0.00041  23735027.40845  23735027.07248
  14017878.21348  10923024.02346         0.00041  23402717.09646  23402715.92448
 -13808350.28348 -10759740.66146         0.00041  22454642.70546  22454641.84648
  -3955974.97449  -3082569.06647         0.00041  21149903.87947  21149903.98849
 94 02 11 01 21 00.0000000  0  7 02 07 13 15 19 26 27
 -15624392.60749 -12174829.56748         0.00041  20898887.23448  20898886.36149
 -24257133.21149 -18901629.43548         0.00041  20482322.05048  20482321.77449
  -9293527.58908  -7241693.94808  23583102.40808  23583105.20508         0.00001
  -1542739.05748  -1202130.14445         0.00041  23734832.65545  23734832.33248
  14106022.85248  10991708.15046         0.00041  23419490.23946  23419489.40948
 -13829585.73148 -10776287.74546         0.00041  22450601.55846  22450600.88248
  -3891877.17449  -3032622.73847         0.00041  21162101.48447  21162101.37849
 94 02 11 01 21 30.0000000  0  7 02 07 13 15 19 26 27
 -15616651.63749 -12168797.63248         0.00041  20900360.26248  20900359.41149
 -24285524.80949 -18923752.73448         0.00041  20476919.11848  20476918.89449
  -9408400.36208  -7331205.00508  23561242.75508  23561245.40308         0.00001
  -1543220.31548  -1202505.11345         0.00041  23734744.94945  23734740.94448
  14194383.91148  11060560.89746         0.00041  23436304.70346  23436304.08748
 -13850267.88148 -10792403.69046         0.00041  22446666.16146  22446665.07948
  -3827384.77849  -2982368.92647         0.00041  21174374.01947  21174373.89649
 94 02 11 01 22 00.0000000  0  7 02 07 13 15 19 26 27
 -15608754.03649 -12162643.64748         0.00041  20901862.93748  20901862.20749
 -24313407.43649 -18945479.43048         0.00041  20471613.36048  20471612.97949
  -9523103.89708  -7420584.19908  23539415.28808  23539417.89608         0.00001
  -1543175.41048  -1202470.09645         0.00041  23734748.57345  23734749.15348
  14282951.55248  11129574.63646         0.00041  23453158.74546  23453157.83848
 -13870419.11548 -10808105.93846         0.00041  22442831.27246  22442830.64348
  -3762493.27149  -2931804.12347         0.00041  21186722.38247  21186722.39049
 94 02 11 01 22 30.0000000  0  7 02 07 13 15 19 26 27
 -15600702.58649 -12156369.77948         0.00041  20903395.15148  20903394.30249
 -24340784.53749 -18966812.20748         0.00041  20466403.64448  20466403.39549
  -9637622.60908  -7509819.38808  23517622.91508  23517625.53208         0.00001
  -1542591.11048  -1202014.75445         0.00041  23734862.26845  23734860.18248
  14371736.57148  11198757.75346         0.00041  23470053.31546  23470052.99948
 -13890051.64948 -10823403.99046         0.00041  22439095.57146  22439094.59648
  -3697185.32749  -2880914.82047         0.00041  21199149.93647  21199150.05549
 94 02 11 01 23 00.0000000  0  7 02 07 13 15 19 26 27
 -15592494.67149 -12149973.98948         0.00041  20904956.98548  20904956.20349
 -24367664.15349 -18987757.33448         0.00041  20461288.54048  20461288.21949
  -9751944.13908  -7598900.94308  23495868.17508  23495870.75808         0.00001
  -1541457.42548  -1201131.29745         0.00041  23735077.59045  23735076.00448
  14460748.63348  11268117.78846         0.00041  23486992.75546  23486991.52148
 -13909166.37548 -10838298.55546         0.00041  22435457.92246  22435457.12848
  -3631453.20749  -2829694.99447         0.00041  21211658.37847  21211658.37249
 94 02 11 01 23 30.0000000  0  7 02 07 13 15 19 26 27
 -15584123.57149 -12143451.03848         0.00041  20906550.02148  20906549.25549
 -24394042.68949 -19008312.01048         0.00041  20456268.82248  20456268.58049
  -9866059.62808  -7687821.96008  23474152.60308  23474155.12808         0.00001
  -1539767.76748  -1199814.64945         0.00041  23735396.52445  23735397.47348
  14550000.47948  11337664.65746         0.00041  23503976.74046  23503975.74748
 -13927759.44748 -10852786.65346         0.00041  22431919.92846  22431919.00748
  -3565293.69449  -2778142.13547         0.00041  21224248.07147  21224248.04849
 94 02 11 01 24 00.0000000  0  7 02 07 13 15 19 26 27
 -15575585.55549 -12136798.02648         0.00041  20908174.80348  20908173.93949
 -24419928.31649 -19028482.59848         0.00041  20451343.07048  20451342.69249
  -9979969.12508  -7776582.47908  23452476.17508  23452478.72708         0.00001
  -1537524.78648  -1198066.81945         0.00041  23735824.40845  23735824.19248
  14639478.24748  11407387.58146         0.00041  23521003.51146  23521002.75448
 -13945823.91148 -10866862.83746         0.00041  22428482.16646  22428481.55148
  -3498717.94749  -2726264.93447         0.00041  21236917.11047  21236917.06949
 94 02 11 01 24 30.0000000  0  7 02 07 13 15 19 26 27
 -15566860.64849 -12129999.38848         0.00041  20909834.86648  20909834.12749
 -24445312.59749 -19048262.53148         0.00041  20446512.55548  20446512.28849
 -10093657.02908  -7865170.34008  23430842.02508  23430844.48708         0.00001
  -1534714.91348  -1195877.29645         0.00041  23736359.76745  23736358.90048
  14729185.37448  11477289.21046         0.00041  23538074.64446  23538073.36248
 -13963328.59948 -10880502.83946         0.00041  22425150.58946  22425150.42848
  -3431736.22249  -2674071.38447         0.00041  21249663.34947  21249663.30849
 94 02 11 01 25 00.0000000  0  7 02 07 13 15 19 26 27
 -15557926.47349 -12123037.68648         0.00041  20911535.09448  20911534.30749
 -24470184.50149 -19067643.20548         0.00041  20441779.45948  20441779.25849
 -10207123.08608  -7953585.34108  23409250.08108  23409252.59808         0.00001
  -1531340.23848  -1193247.61845         0.00041  23737004.03745  23737001.13848
  14819128.01848  11547374.36646         0.00041  23555191.19246  23555189.01248
 -13980264.69248 -10893699.77346         0.00041  22421927.88346  22421927.56648
  -3364351.61249  -2621563.90247         0.00041  21262486.12947  21262486.20749
 94 02 11 01 25 30.0000000  0  7 02 07 13 15 19 26 27
 -15548807.75249 -12115932.17848         0.00041  20913270.26048  20913269.55749
 -24494566.04849 -19086641.78348         0.00041  20437139.95748  20437139.65849
 -10320394.39408  -8041848.59708  23387695.23108  23387697.60608         0.00001
  -1527430.57248  -1190201.06145         0.00041  23737746.07045  23737744.96348
  14909265.49748  11617611.34446         0.00041  23572342.37146  23572341.53048
 -13996662.97648 -10906477.64046         0.00041  22418807.47046  22418807.12948
  -3296605.20449  -2568774.50047         0.00041  21275377.86347  21275377.91849
 94 02 11 01 26 00.0000000  0  7 02 07 13 15 19 26 27
 -15539497.17449 -12108677.17048         0.00041  20915042.17248  20915041.32049
 -24518445.81849 -19105249.36848         0.00041  20432595.62948  20432595.37649
 -10433451.73908  -8129945.13408  23366181.02008  23366183.40308         0.00001
  -1522968.91948  -1186724.38945         0.00041  23738594.35645  23738594.01048
  14999607.90848  11688008.00146         0.00041  23589535.41046  23589533.32648
 -14012504.10648 -10918821.35946         0.00041  22415793.24346  22415792.63448
  -3228488.65949  -2515696.68047         0.00041  21288340.13447  21288339.96649
 94 02 11 01 26 30.0000000  0  7 02 07 13 15 19 26 27
 -15530013.89949 -12101287.59548         0.00041  20916846.65948  20916845.91549
 -24541845.19849 -19123482.62348         0.00041  20428142.85248  20428142.61849
 -10546304.81108  -8217882.49908  23344705.72708  23344708.05308         0.00001
  -1517967.54448  -1182827.18445         0.00041  23739547.14545  23739545.65248
  15090151.08148  11758561.10446         0.00041  23606763.17746  23606762.94548
 -14027811.67848 -10930749.31446         0.00041  22412879.87146  22412879.80748
  -3160009.50749  -2462336.30747         0.00041  21301371.00347  21301371.11449
 94 02 11 01 27 00.0000000  0  7 02 07 13 15 19 26 27
 -15520366.68649 -12093770.27648         0.00041  20918682.45948  20918681.70749
 -24564746.83949 -19141328.03148         0.00041  20423784.81948  20423784.59749
 -10658937.47008  -8305648.11008  23323272.34508  23323274.68408         0.00001
  -1512412.36748  -1178498.42445         0.00041  23740603.02945  23740602.72448
  15180904.55548  11829278.06546         0.00041  23624033.75746  23624032.62648
 -14042582.29048 -10942258.86746         0.00041  22410069.58746  22410068.92448
  -3091139.75049  -2408671.56647         0.00041  21314476.60347  21314476.65849
 94 02 11 01 27 30.0000000  0  7 02 07 13 15 19 26 27
 -15510597.66949 -12086158.04548         0.00041  20920541.54148  20920540.74649
 -24587179.18749 -19158807.75748         0.00041  20419516.05848  20419515.78049
 -10771364.58708  -8393253.55908  23301878.10308  23301880.45808         0.00001
  -1506321.54248  -1173752.28745         0.00041  23741760.84945  23741761.54548
  15271840.73448  11900137.39646         0.00041  23641339.28146  23641337.43148
 -14056827.15848 -10953358.74246         0.00041  22407358.94246  22407358.23048
  -3021893.53849  -2354713.48747         0.00041  21327653.67047  21327653.78049
 94 02 11 01 28 00.0000000  0  7 02 07 13 15 19 26 27
 -15500693.18149 -12078440.25148         0.00041  20922426.17548  20922425.48949
 -24609126.47749 -19175909.51648         0.00041  20415339.46048  20415339.30849
 -10883573.02508  -8480688.60208  23280525.46108  23280527.75808         0.00001
  -1499684.08848  -1168580.21745         0.00041  23743025.84045  23743024.76648
  15362974.49448  11971150.69446         0.00041  23658680.81046  23658679.66548
 -14070533.76048 -10964039.19546         0.00041  22404750.44446  22404749.80348
  -2952245.36049  -2300442.18747         0.00041  21340907.16347  21340907.33949
 94 02 11 01 28 30.0000000  0  7 02 07 13 15 19 26 27
 -15490623.10549 -12070593.42648         0.00041  20924342.53848  20924341.82449
 -24630553.13449 -19192605.58948         0.00041  20411262.14048  20411261.90049
 -10995535.95008  -8567932.33408  23259219.51908  23259221.82508         0.00001
  -1492475.80348  -1162963.31845         0.00041  23744398.21745  23744396.34148
  15454320.12448  12042329.09046         0.00041  23676063.44746  23676062.20648
 -14083688.56148 -10974289.66246         0.00041  22402247.36646  22402246.53348
  -2882158.49649  -2245829.05347         0.00041  21354244.44947  21354244.42349
 94 02 11 01 29 00.0000000  0  7 02 07 13 15 19 26 27
 -15480406.25349 -12062632.22548         0.00041  20926286.60848  20926285.88749
 -24651474.20349 -19208907.69848         0.00041  20407281.03048  20407280.72849
 -11107278.27808  -8655004.16808  23237955.66308  23237957.84708         0.00001
  -1484723.98048  -1156922.87046         0.00041  23745872.43746  23745871.41948
  15545851.39348  12113652.13246         0.00041  23693480.61146  23693479.73948
 -14096316.63548 -10984129.69746         0.00041  22399843.97746  22399843.45348
  -2811653.69249  -2190890.25547         0.00041  21367661.00647  21367661.07349
 94 02 11 01 29 30.0000000  0  7 02 07 13 15 19 26 27
 -15470038.21549 -12054553.21848         0.00041  20928259.51848  20928258.77549
 -24671909.78549 -19224831.50848         0.00041  20403392.32948  20403392.00949
 -11218812.77908  -8741914.05908  23216731.21008  23216733.35808         0.00001
  -1476444.16848  -1150471.04945         0.00041  23747446.52345  23747447.18848
  15637566.14648  12185118.16846         0.00041  23710935.00046  23710932.54048
 -14108441.97448 -10993577.98746         0.00041  22397536.83446  22397535.93348
  -2740751.79649  -2135642.02747         0.00041  21381153.19347  21381153.25849
 94 02 11 01 30 00.0000000  0  7 02 07 13 15 19 26 27
 -15459494.16849 -12046337.06148         0.00041  20930265.93248  20930265.20149
 -24691832.03949 -19240355.32348         0.00041  20399601.09248  20399600.86549
 -11330118.99608  -8828646.06408  23195550.25108  23195552.47008         0.00001
  -1467618.36448  -1143593.75245         0.00041  23749128.59545  23749126.72948
  15729483.17248  12256741.79346         0.00041  23728424.92946  23728423.80548
 -14120060.65348 -11002631.48046         0.00041  22395325.59146  22395325.08248
  -2669451.20949  -2080083.13547         0.00041  21394721.31547  21394721.35049
 94 02 11 01 30 30.0000000  0  7 02 07 13 15 19 26 27
 -15448761.05149 -12037973.57748         0.00041  20932308.19348  20932307.49149
 -24711234.75449 -19255474.30348         0.00041  20395908.81048  20395908.65149
 -11441168.07608  -8915177.70308  23174418.30108  23174420.35208         0.00001
  -1458220.59748  -1136270.77645         0.00041  23750916.60145  23750915.19748
  15821638.11248  12328550.81846         0.00041  23745962.16646  23745960.50148
 -14131154.35048 -11011275.89346         0.00041  22393214.45146  22393213.99348
  -2597744.38249  -2024207.69047         0.00041  21408366.73447  21408366.70149
 94 02 11 01 31 00.0000000  0  7 02 07 13 15 19 26 27
 -15437848.46049 -12029470.24548         0.00041  20934384.91248  20934384.18749
 -24730137.09349 -19270203.38448         0.00041  20392311.93948  20392311.70749
 -11551962.86008  -9001511.19108  23153334.60608  23153336.71108         0.00001
  -1448256.42448  -1128506.44345         0.00041  23752812.69045  23752811.27148
  15914035.17348  12400548.51046         0.00041  23763544.23846  23763542.99248
 -14141712.25148 -11019502.80846         0.00041  22391205.48646  22391205.04248
  -2525659.27949  -1968037.48547         0.00041  21422084.20947  21422084.01349
 94 02 11 01 31 30.0000000  0  6 02 07 13 19 26 27
 -15426767.75549 -12020835.91348         0.00041  20936493.38448  20936492.76649
 -24748545.82549 -19284547.83448         0.00041  20388808.90248  20388808.61649
 -11662502.97408  -9087646.23608  23132299.47208  23132301.44308         0.00001
  16006658.29548  12472722.35346         0.00041  23781169.69046  23781168.79448
 -14151734.46248 -11027312.30346         0.00041  22389298.21246  22389297.76848
  -2453209.32949  -1911582.98347         0.00041  21435871.08447  21435870.80449
 94 02 11 01 32 00.0000000  0  6 02 07 13 19 26 27
 -15415518.01349 -12012069.86048         0.00041  20938634.21748  20938633.49149
 -24766455.23849 -19298503.20748         0.00041  20385400.62348  20385400.45649
 -11772782.61708  -9173578.32208  23111313.86208  23111315.84808         0.00001
  16099494.30948  12545062.07746         0.00041  23798835.51146  23798834.99448
 -14161205.05948 -11034691.96146         0.00041  22387495.78246  22387495.54448
  -2380388.97049  -1854839.84647         0.00041  21449728.22947  21449728.11449
 94 02 11 01 32 30.0000000  0  7 02 07 09 13 19 26 27
 -15404097.66349 -12003170.86648         0.00041  20940807.51648  20940806.84249
 -24783869.01849 -19312072.37048         0.00041  20382087.04848  20382086.71449
        -0.64358        -0.14455         0.00051  25344711.39555  25344707.18658
 -11882800.79708  -9259306.67408  23090378.03208  23090380.03108         0.00001
  16192540.13448  12617565.29246         0.00041  23816543.60146  23816540.98048
 -14170105.53148 -11041627.37846         0.00041  22385802.64946  22385801.73048
  -2307176.40949  -1797791.10347         0.00041  21463659.95647  21463659.94349
 94 02 11 01 33 00.0000000  0  7 02 07 09 13 19 26 27
 -15392496.48549 -11994130.96948         0.00041  20943015.07148  20943014.43349
 -24800769.05549 -19325241.21548         0.00041  20378871.07648  20378870.76349
    -98901.15448    -77065.45244         0.00041  25325894.99744  25325887.03848
 -11992561.98808  -9344834.78108  23069491.11608  23069493.07708         0.00001
  16285776.04548  12690216.63646         0.00041  23834285.50046  23834283.42848
 -14178431.50348 -11048115.12946         0.00041  22384218.10946  22384217.41048
  -2233557.64549  -1740425.83747         0.00041  21477669.07347  21477669.13049
 94 02 11 01 33 30.0000000  0  7 02 07 09 13 19 26 27
 -15380727.76149 -11984960.51548         0.00041  20945254.60548  20945253.88449
 -24817152.25749 -19338007.32948         0.00041  20375753.28648  20375753.11549
   -197852.65548   -154170.44645         0.00041  25307058.34445  25307057.20248
 -12102074.90408  -9430169.43208  23048651.41908  23048653.38508         0.00001
  16379186.56248  12763004.04046         0.00041  23852060.63146  23852058.66748
 -14186210.94648 -11054177.01446         0.00041  22382737.51646  22382737.04648
  -2159536.33349  -1682746.89847         0.00041  21491755.00847  21491754.92249
 94 02 11 01 34 00.0000000  0  7 02 07 09 13 19 26 27
 -15368838.02449 -11975695.76748         0.00041  20947516.93648  20947516.40649
 -24833069.64149 -19350410.46948         0.00041  20372724.36748  20372724.18849
   -296910.18848   -231358.02745         0.00041  25288210.39545  25288207.14348
 -12211382.71408  -9515344.26608  23027850.76908  23027852.76208         0.00001
  16472728.62448  12835893.93146         0.00041  23869859.14246  23869859.09948
 -14193487.87348 -11059847.33046         0.00041  22381353.02046  22381352.15448
  -2085159.81149  -1624791.16847         0.00041  21505908.55847  21505908.26949
 94 02 11 01 34 30.0000000  0  7 02 07 09 13 19 26 27
 -15356800.49649 -11966315.85548         0.00041  20949807.72948  20949807.19749
 -24848490.56149 -19362426.74948         0.00041  20369789.80048  20369789.63349
   -396057.11848   -308615.30045         0.00041  25269341.37145  25269339.96348
 -12320451.37508  -9600332.75408  23007095.69308  23007097.61508         0.00001
  16566444.07748  12908918.95846         0.00041  23887693.60246  23887692.67948
 -14200234.55448 -11065104.46646         0.00041  22380069.09546  22380068.44748
  -2010407.33149  -1566542.48747         0.00041  21520133.32347  21520133.13449
 94 02 11 01 35 00.0000000  0  7 02 07 09 13 19 26 27
 -15344583.85149 -11956796.37548         0.00041  20952132.54848  20952131.92549
 -24863383.91049 -19374031.94048         0.00041  20366955.69348  20366955.46849
   -495262.86248   -385918.43945         0.00041  25250463.29545  25250461.96848
 -12429248.34508  -9685109.54008  22986392.25108  22986394.14608         0.00001
  16660361.56448  12982101.38646         0.00041  23905565.58446  23905564.50248
 -14206435.04948 -11069936.00646         0.00041  22378889.09746  22378888.39148
  -1935275.73549  -1507998.38747         0.00041  21534430.14847  21534430.19049
 94 02 11 01 35 30.0000000  0  7 02 07 09 13 19 26 27
 -15332210.38549 -11947154.69548         0.00041  20954487.06548  20954486.48249
 -24877778.74449 -19385248.67448         0.00041  20364216.36548  20364216.18649
   -594531.32248   -463270.38745         0.00041  25231573.99745  25231571.65148
 -12537779.68808  -9769679.34908  22965739.36808  22965741.27308         0.00001
  16754466.95448  13055430.22646         0.00041  23923472.27646  23923472.06748
 -14212105.93848 -11074354.86146         0.00041  22377809.52246  22377809.19348
  -1859792.02149  -1449179.91047         0.00041  21548794.49247  21548794.34249
 94 02 11 01 36 00.0000000  0  7 02 07 09 13 19 26 27
 -15319649.04249 -11937366.61948         0.00041  20956877.30648  20956876.75849
 -24891677.31149 -19396078.70748         0.00041  20361571.53448  20361571.44049
   -693832.65748   -540647.99245         0.00041  25212678.25045  25212675.14948
 -12646023.95508  -9854025.46908  22945141.15208  22945142.97908         0.00001
  16848774.35348  13128916.49945         0.00041  23941418.44845  23941418.30048
 -14217218.65648 -11078338.78446         0.00041  22376837.41046  22376836.42748
  -1783937.81949  -1390072.73747         0.00041  21563228.91847  21563228.90649
 94 02 11 01 36 30.0000000  0  7 02 07 09 13 19 26 27
 -15306897.81949 -11927430.58648         0.00041  20959303.83948  20959303.25749
 -24905065.08449 -19406510.71748         0.00041  20359023.98148  20359023.83549
   -793145.91248   -618034.89945         0.00041  25193780.11345  25193776.53748
 -12753970.35308  -9938139.48408  22924599.57808  22924601.45708         0.00001
  16943300.71348  13202573.38746         0.00041  23959405.39146  23959406.19648
 -14221777.89548 -11081891.42346         0.00041  22375969.40446  22375968.87448
  -1707709.72749  -1330674.22447         0.00041  21577734.54347  21577734.75449
 94 02 11 01 37 00.0000000  0  7 02 07 09 13 19 26 27
 -15293964.62149 -11917352.75748         0.00041  20961764.94748  20961764.32449
 -24917941.27149 -19416544.09248         0.00041  20356573.71948  20356573.57949
   -892454.15748   -695417.84945         0.00041  25174883.33345  25174878.73248
 -12861616.78308 -10022019.75708  22904115.11708  22904117.01708         0.00001
  17038033.10048  13276390.79745         0.00041  23977433.91545  23977433.05348
 -14225791.85748 -11085019.16446         0.00041  22375205.48646  22375205.08448
  -1631098.72749  -1270977.34247         0.00041  21592313.38847  21592313.28349
 94 02 11 01 37 30.0000000  0  7 02 07 09 13 19 26 27
 -15280855.04149 -11907137.49148         0.00041  20964259.76648  20964259.01249
 -24930311.78849 -19426183.43548         0.00041  20354219.72348  20354219.53649
   -991741.72948   -772784.76845         0.00041  25155985.93645  25155984.82348
 -12968959.21908 -10105663.15308  22883688.44208  22883690.29708         0.00001
  17132967.89348  13350365.95346         0.00041  23995499.44046  23995498.51648
 -14229261.62348 -11087722.86546         0.00041  22374545.20046  22374544.84748
  -1554084.97849  -1210966.63047         0.00041  21606968.56947  21606968.56149
 94 02 11 01 38 00.0000000  0  7 02 07 09 13 19 26 27
 -15267583.77149 -11896796.23348         0.00041  20966785.02248  20966784.41649
 -24942184.33149 -19435434.75048         0.00041  20351960.36748  20351960.18849
  -1091017.52148   -850142.44446         0.00041  25137095.17546  25137093.33748
 -13076010.85508 -10189079.94908  22863317.17008  22863319.04508         0.00001
  17228092.55248  13424489.04645         0.00041  24013601.69445  24013600.28548
 -14232202.10848 -11090014.13546         0.00041  22373985.74946  22373985.14348
  -1476680.54049  -1150651.48247         0.00041  21621698.35247  21621698.18849
 94 02 11 01 38 30.0000000  0  7 02 07 09 13 19 26 27
 -15254172.76749 -11886346.08848         0.00041  20969337.00548  20969336.37749
 -24953555.86349 -19444295.66648         0.00041  20349796.34648  20349796.23849
  -1190302.83248   -927507.55646         0.00041  25118201.93946  25118199.67248
 -13182784.34008 -10272280.00308  22842998.79108  22843000.56608         0.00001
  17323393.43548  13498749.45545         0.00041  24031735.94045  24031735.61448
 -14234624.06048 -11091901.35546         0.00041  22373524.42746  22373524.25148
  -1398897.68649  -1090041.46647         0.00041  21636499.62647  21636499.76349
 94 02 11 01 39 00.0000000  0  7 02 07 09 13 19 26 27
 -15240613.54749 -11875780.45348         0.00041  20971917.23748  20971916.57549
 -24964444.51549 -19452780.31048         0.00041  20347724.32648  20347724.14849
  -1289618.90248  -1004896.64646         0.00041  25099302.89146  25099300.60948
 -13289286.53608 -10355268.65908  22822732.02708  22822733.87008         0.00001
  17418837.47148  13573121.40545         0.00041  24049899.24545  24049897.99748
 -14236519.15048 -11093378.03446         0.00041  22373164.09946  22373163.70348
  -1320738.80449  -1029138.44147         0.00041  21651372.85147  21651372.92249
 94 02 11 01 39 30.0000000  0  7 02 07 09 13 19 26 27
 -15226895.44849 -11865091.01548         0.00041  20974527.84248  20974527.10949
 -24974853.35549 -19460891.07548         0.00041  20345743.60848  20345743.39949
  -1388972.09648  -1082314.63045         0.00041  25080396.20545  25080394.32048
 -13395507.34508 -10438038.04908  22802518.81508  22802520.65908         0.00001
  17514437.10348  13647614.60345         0.00041  24068091.24345  24068089.75848
 -14237869.64348 -11094430.35146         0.00041  22372906.98846  22372906.56648
  -1242203.51549   -967942.11347         0.00041  21666317.64847  21666317.55849
 94 02 11 01 40 00.0000000  0  7 02 07 09 13 19 26 27
 -15213010.36449 -11854271.45848         0.00041  20977170.02148  20977169.36349
 -24984772.69549 -19468620.41148         0.00041  20343856.04448  20343855.81949
  -1488373.87448  -1159770.47446         0.00041  25061480.59746  25061478.50448
 -13501443.12408 -10520585.33708  22782359.87908  22782361.64908         0.00001
  17610199.74548  13722234.78745         0.00041  24086314.93745  24086312.71748
 -14238676.43248 -11095059.01346         0.00041  22372753.28246  22372753.09648
  -1163308.22049   -906465.25947         0.00041  21681330.87947  21681330.86149
 94 02 11 01 40 30.0000000  0  7 02 07 09 13 19 26 27
 -15198961.65949 -11843324.40648         0.00041  20979843.23248  20979842.61749
 -24994204.09949 -19475969.54048         0.00041  20342061.27248  20342061.13349
  -1587838.86148  -1237275.59146         0.00041  25042553.97646  25042551.03148
 -13607090.40508 -10602907.81808  22762255.78108  22762257.67108         0.00001
  17706125.40448  13796982.08045         0.00041  24104568.07645  24104566.86948
 -14238950.45948 -11095272.52646         0.00041  22372701.28846  22372700.99048
  -1084052.58449   -844707.62647         0.00041  21696412.52247  21696412.69849
 94 02 11 01 41 00.0000000  0  7 02 07 09 13 19 26 27
 -15184746.13849 -11832247.36548         0.00041  20982548.38048  20982547.76649
 -25003143.39849 -19482935.20948         0.00041  20340360.17548  20340360.04549
  -1687356.54548  -1314821.76445         0.00041  25023615.18845  25023613.49848
 -13712430.80408 -10684991.16908  22742210.09708  22742211.94208         0.00001
  17802229.37648  13871868.26745         0.00041  24122855.49045  24122854.94948
 -14238689.91248 -11095069.49146         0.00041  22372750.87446  22372750.48348
  -1004426.58249   -782661.39847         0.00041  21711565.11347  21711565.07849
 94 02 11 01 41 30.0000000  0  7 02 07 09 13 19 26 27
 -15170360.49949 -11821037.76448         0.00041  20985285.91148  20985285.41349
 -25011573.99449 -19489504.48548         0.00041  20338755.93648  20338755.71649
  -1786901.64848  -1392389.28745         0.00041  25004671.85145  25004670.54148
 -13817451.43708 -10766825.35208  22722225.28408  22722227.11108         0.00001
  17898538.83548  13946914.56946         0.00041  24141182.50546  24141181.80048
 -14237910.33648 -11094462.01847         0.00041  22372899.47347  22372898.76148
   -924426.80349   -720323.91047         0.00041  21726788.68147  21726788.63849
 94 02 11 01 42 00.0000000  0  7 02 07 09 13 19 26 27
 -15155784.11449 -11809679.52448         0.00041  20988059.68748  20988059.14149
 -25019475.71249 -19495661.65248         0.00041  20337252.36948  20337252.05849
  -1886446.59748  -1469956.69745         0.00041  24985731.82345  24985727.63948
 -13922137.53908 -10848398.86108  22702304.09008  22702305.92308         0.00001
  17995069.19148  14022133.02046         0.00041  24159551.30646  24159551.34848
 -14236596.28048 -11093438.07446         0.00041  22373149.39446  22373148.85448
   -844043.92949   -657687.91847         0.00041  21742084.63547  21742084.99349
 94 02 11 01 42 30.0000000  0  7 02 07 09 13 19 26 27
 -15141040.84049 -11798191.24148         0.00041  20990865.31948  20990864.62349
 -25026886.60249 -19501436.35348         0.00041  20335841.94248  20335841.81049
  -1986000.22848  -1547530.86445         0.00041  24966786.86645  24966783.22448
 -14026511.06108 -10929728.80008  22682442.45708  22682444.22208         0.00001
  18091794.84348  14097503.62845         0.00041  24177957.46845  24177957.54448
 -14234749.00348 -11091998.62946         0.00041  22373500.90446  22373500.49048
   -763299.33849   -594770.05847         0.00041  21757450.09847  21757450.06949
 94 02 11 01 43 00.0000000  0  7 02 07 09 13 19 26 27
 -15126104.68549 -11786552.66148         0.00041  20993707.72548  20993707.02149
 -25033789.97849 -19506815.59048         0.00041  20334528.34148  20334528.12149
  -2085522.82048  -1625080.85145         0.00041  24947846.14945  24947844.53748
 -14130557.46708 -11010803.84408  22662643.02108  22662644.79108         0.00001
  18188726.88748  14173035.06645         0.00041  24196403.36645  24196402.96048
 -14232337.20848 -11090119.30246         0.00041  22373959.99446  22373959.45648
   -682194.94949   -531571.84147         0.00041  21772883.46447  21772883.73349
 94 02 11 01 43 30.0000000  0  7 02 07 09 13 19 26 27
 -15110986.44649 -11774772.20048         0.00041  20996584.36648  20996583.76649
 -25040208.43349 -19511816.96648         0.00041  20333306.88848  20333306.74749
  -2185026.49948  -1702616.09045         0.00041  24928911.36345  24928909.56848
 -14234298.14408 -11091640.65508  22642901.73808  22642903.51808         0.00001
  18285837.70848  14248705.84145         0.00041  24214884.11845  24214882.51548
 -14229373.69448 -11087810.06546         0.00041  22374523.94046  22374523.47748
   -600752.03749   -468109.84047         0.00041  21788381.35747  21788381.82449
 94 02 11 01 44 00.0000000  0  7 02 07 09 13 19 26 27
 -15095697.97049 -11762859.08548         0.00041  20999493.59348  20999493.07449
 -25046145.19849 -19516443.00048         0.00041  20332176.98148  20332176.98349
  -2284511.66948  -1780136.86245         0.00041  24909981.73645  24909978.24048
 -14337727.37908 -11172234.78508  22623219.76108  22623221.48308         0.00001
  18383130.04648  14324518.03645         0.00041  24233398.55245  24233396.59148
 -14225841.36748 -11085057.60146         0.00041  22375195.78946  22375195.49748
   -518974.39649   -404387.01247         0.00041  21803943.20447  21803943.61949
 94 02 11 01 44 30.0000000  0  7 02 07 09 13 19 26 27
 -15080279.98349 -11750845.05248         0.00041  21002427.65048  21002426.96349
 -25051630.72549 -19520717.42148         0.00041  20331133.04448  20331133.04849
  -2384016.12548  -1857672.70646         0.00041  24891045.73446  24891043.02948
 -14440866.96008 -11252603.20808  22603592.90008  22603594.55608         0.00001
  18480559.78648  14400437.31445         0.00041  24251936.28045  24251936.99048
 -14221787.38948 -11081898.65346         0.00041  22375967.24046  22375966.86248
   -436885.75149   -340421.84547         0.00041  21819564.81047  21819564.57349
 94 02 11 01 45 00.0000000  0  7 02 07 09 13 19 26 27
 -15064720.03849 -11738720.40448         0.00041  21005388.45948  21005387.93349
 -25056628.59249 -19524611.84348         0.00041  20330182.19748  20330182.03849
  -2483532.55848  -1935217.87645         0.00041  24872108.07945  24872105.47048
 -14543693.56008 -11332727.75308  22584025.58208  22584027.24708         0.00001
  18578138.46248  14476472.64045         0.00041  24270505.30745  24270505.48848
 -14217213.09048 -11078334.25546         0.00041  22376837.84746  22376837.34848
   -354451.47649   -276187.35346         0.00041  21835251.20746  21835251.32949
 94 02 11 01 45 30.0000000  0  7 02 07 09 13 19 26 27
 -15049033.48449 -11726497.10148         0.00041  21008373.55348  21008373.09449
 -25061147.35549 -19528132.94148         0.00041  20329322.25148  20329322.13649
  -2583083.48548  -2012789.90545         0.00041  24853163.25745  24853161.46548
 -14646212.50908 -11412612.56908  22564516.83708  22564518.46508         0.00001
  18675864.80848  14552623.02245         0.00041  24289104.20545  24289101.89048
 -14212141.38648 -11074382.26846         0.00041  22377802.96246  22377802.56148
   -271668.21048   -211680.92547         0.00041  21851004.56147  21851004.54048
 94 02 11 01 46 00.0000000  0  7 02 07 09 13 19 26 27
 -15033201.90349 -11714160.79048         0.00041  21011386.30648  21011385.70349
 -25065155.50849 -19531256.16048         0.00041  20328559.50548  20328559.38749
  -2682654.25148  -2090377.45245         0.00041  24834214.47545  24834213.88648
 -14748399.40108 -11492238.63708  22545071.27508  22545072.84008         0.00001
  18773746.84348  14628894.76345         0.00041  24307730.23845  24307728.46548
 -14206558.10948 -11070031.65946         0.00041  22378864.86446  22378864.90348
   -188529.54048   -146897.55146         0.00041  21866824.77646  21866825.27048
 94 02 11 01 46 30.0000000  0  7 02 07 09 13 19 26 27
 -15017192.26549 -11701685.73648         0.00041  21014432.74148  21014432.22049
 -25068649.65649 -19533978.85448         0.00041  20327894.34248  20327894.32249
  -2782251.21648  -2167985.38245         0.00041  24815261.55145  24815261.07548
 -14850246.97208 -11571600.30108  22525690.17908  22525691.77608         0.00001
  18871772.48448  14705278.36545         0.00041  24326382.12345  24326382.22948
 -14200455.83448 -11065276.62746         0.00041  22380026.23646  22380026.13348
   -105016.82448    -81822.72346         0.00041  21882716.91546  21882717.09048
 94 02 11 01 47 00.0000000  0  7 02 07 09 13 19 26 27
 -15000986.96249 -11689058.21448         0.00041  21017516.50448  21017515.96049
 -25071631.96249 -19536302.71248         0.00041  20327326.99448  20327326.89749
  -2881852.49948  -2245596.70945         0.00041  24796309.78845  24796307.74948
 -14951747.33308 -11650691.41208  22506375.29108  22506376.84508         0.00001
  18969959.11648  14781787.40846         0.00041  24345066.85846  24345066.44148
 -14193823.03048 -11060108.19746         0.00041  22381288.65546  22381288.23748
    -21126.44148    -16453.61046         0.00041  21898680.79646  21898681.04448
 94 02 11 01 47 30.0000000  0  7 02 07 09 13 19 26 27
 -14984591.86249 -11676282.79748         0.00041  21020636.38048  21020635.91649
 -25074129.12149 -19538248.53048         0.00041  20326851.75148  20326851.64849
  -2981447.66748  -2323203.23046         0.00041  24777356.89346  24777355.25348
 -15052901.70408 -11729512.92108  22487126.22308  22487127.73108         0.00001
  19068302.22748  14858418.39845         0.00041  24363781.52445  24363780.45948
 -14186668.63748 -11054533.33646         0.00041  22382650.14246  22382649.74148
     63122.83448     49195.16546         0.00041  21914713.05146  21914713.07448
 94 02 11 01 48 00.0000000  0  7 02 07 09 13 19 26 27
 -14968001.20149 -11663354.99648         0.00041  21023793.50648  21023792.94549
 -25076146.19949 -19539820.26248         0.00041  20326467.84548  20326467.73649
  -3081021.53248  -2400793.18545         0.00041  24758409.90545  24758406.82948
 -15153700.49408 -11808057.35408  22467944.78008  22467946.28808         0.00001
  19166798.03248  14935168.39145         0.00041  24382525.75845  24382523.70748
 -14178978.10948 -11048540.70546         0.00041  22384114.06246  22384113.26448
    147742.72548    115132.73146         0.00041  21930815.71246  21930815.79948
 94 02 11 01 48 30.0000000  0  7 02 07 09 13 19 26 27
 -14951217.97649 -11650277.14748         0.00041  21026987.27948  21026986.69949
 -25077694.51149 -19541026.72248         0.00041  20326173.28448  20326173.06649
  -3180562.49848  -2478357.47045         0.00041  24739466.79145  24739464.62348
 -15254145.07308 -11886325.78308  22448830.75808  22448832.28008         0.00001
  19265464.01448  15012050.97845         0.00041  24401299.13645  24401299.30348
 -14170762.44548 -11042138.87246         0.00041  22385676.91846  22385676.67648
    232754.01648    181375.28446         0.00041  21946992.88746  21946992.97748
 94 02 11 01 49 00.0000000  0  7 02 07 09 13 19 26 27
 -14934270.95249 -11637071.66048         0.00041  21030212.20948  21030211.70049
 -25078774.30149 -19541868.10048         0.00041  20325967.78848  20325967.64949
  -3280052.93148  -2555882.41145         0.00041  24720533.45645  24720531.99148
 -15354237.80008 -11964320.04108  22429783.71208  22429785.19608         0.00001
  19364313.20948  15089076.32345         0.00041  24420110.70445  24420109.38848
 -14162027.26048 -11035332.21946         0.00041  22387339.08346  22387338.86248
    318141.10548    247910.66346         0.00041  21963241.50246  21963241.54948
 94 02 11 01 49 30.0000000  0  7 02 07 09 13 19 26 27
 -14917177.16849 -11623751.81248         0.00041  21033465.08648  21033464.50449
 -25079378.83249 -19542339.14748         0.00041  20325852.66448  20325852.57049
  -3379522.02548  -2633390.68946         0.00041  24701605.39446  24701603.74048
 -15453989.63808 -12042048.67708  22410801.52408  22410802.96608         0.00001
  19463324.85348  15166228.26245         0.00041  24438951.21545  24438950.63348
 -14152770.78948 -11028119.37446         0.00041  22389100.62946  22389100.38148
    403890.42348    314728.30046         0.00041  21979558.77946  21979559.18148
 94 02 11 01 50 00.0000000  0  7 02 07 09 13 19 26 27
 -14899927.18749 -11610310.25248         0.00041  21036747.51148  21036747.04749
 -25079508.10649 -19542439.86348         0.00041  20325828.06548  20325827.90449
  -3478989.00248  -2710897.33546         0.00041  24682678.23046  24682675.81748
 -15553406.83708 -12119516.55808  22391883.01808  22391884.39208         0.00001
  19562485.21348  15243496.09145         0.00041  24457820.95245  24457820.29548
 -14142986.49548 -11020495.23646         0.00041  22390962.89346  22390962.30248
    489996.74948    381824.12846         0.00041  21995944.16646  21995944.57148
 94 02 11 01 50 30.0000000  0  7 02 07 09 13 19 26 27
 -14882527.14349 -11596751.75948         0.00041  21040058.63648  21040058.08749
 -25079155.80649 -19542165.33048         0.00041  20325895.16148  20325895.02549
  -3578450.12048  -2788399.42545         0.00041  24663751.99545  24663749.08448
 -15652488.37108 -12196722.88508  22373028.42208  22373029.76408         0.00001
  19661793.44548  15320879.17345         0.00041  24476718.78145  24476718.08248
 -14132676.01548 -11012461.08546         0.00041  22392924.88646  22392924.25548
    576440.31748    449182.73646         0.00041  22012393.81546  22012394.17848
 94 02 11 01 51 00.0000000  0  7 02 07 09 13 19 26 27
 -14864978.32849 -11583077.34248         0.00041  21043398.10248  21043397.50149
 -25078324.16649 -19541517.28548         0.00041  20326053.29948  20326053.28949
  -3677921.36848  -2865909.38046         0.00041  24644820.72746  24644820.33348
 -15751229.76108 -12273664.16808  22354238.51808  22354239.83008         0.00001
  19761224.12048  15398357.58145         0.00041  24495641.08945  24495639.10448
 -14121817.13748 -11003999.60047         0.00041  22394990.65947  22394990.50548
    663193.56848    516782.66246         0.00041  22028903.16746  22028902.82048
 94 02 11 01 51 30.0000000  0  7 02 07 09 13 19 26 27
 -14847265.25749 -11569274.93748         0.00041  21046768.61448  21046768.16749
 -25077004.82749 -19540489.21548         0.00041  20326304.33248  20326304.26749
  -3777405.59948  -2943429.46846         0.00041  24625891.99546  24625889.03048
 -15849619.07108 -12350331.10308  22335515.57108  22335516.94808         0.00001
  19860772.94048  15475928.12445         0.00041  24514583.43845  24514582.49448
 -14110407.73248 -10995109.13846         0.00041  22397161.87546  22397161.62448
    750262.40848    584628.50446         0.00041  22045471.32846  22045471.43248
 94 02 11 01 52 00.0000000  0  7 02 07 09 13 19 26 27
 -14829389.07449 -11555345.42748         0.00041  21050170.34548  21050169.86549
 -25075208.45949 -19539089.43448         0.00041  20326646.19848  20326646.14449
  -3876878.22848  -3020940.51946         0.00041  24606961.84846  24606959.94848
 -15947652.70208 -12426720.89108  22316860.38208  22316861.63208         0.00001
  19960448.60348  15553597.46645         0.00041  24533552.55445  24533550.31148
 -14098466.31248 -10985804.12246         0.00041  22399434.37846  22399434.00148
    837640.03648    652714.95946         0.00041  22062098.75546  22062098.86348
 94 02 11 01 52 30.0000000  0  7 02 07 09 13 19 26 27
 -14811350.46449 -11541289.35248         0.00041  21053602.98548  21053602.51249
 -25072920.93449 -19537306.93348         0.00041  20327081.56348  20327081.47249
  -3976317.37048  -3098425.48845         0.00041  24588039.74645  24588037.03048
 -16045311.79108 -12502818.82908  22298276.42708  22298277.67108         0.00001
  20060274.75448  15631384.09245         0.00041  24552548.99545  24552546.56348
 -14085995.18448 -10976086.34546         0.00041  22401807.62346  22401807.18548
    925339.06948    721051.85346         0.00041  22078787.67946  22078787.54448
 94 02 11 01 53 00.0000000  0  7 02 07 09 13 19 26 27
 -14793140.22049 -11527099.53948         0.00041  21057068.34148  21057067.75349
 -25070155.82349 -19535152.28648         0.00041  20327607.56348  20327607.53349
  -4075722.36948  -3175883.84946         0.00041  24569120.85146  24569120.88348
 -16142589.14708 -12578619.31308  22279765.08908  22279766.35108         0.00001
  20160258.69048  15709293.64045         0.00041  24571574.82745  24571572.75948
 -14073003.22848 -10965962.73046         0.00041  22404279.60846  22404279.37248
   1013373.84648    789650.36946         0.00041  22095539.79546  22095539.95948
 94 02 11 01 53 30.0000000  0  7 02 07 09 13 19 26 27
 -14774755.08249 -11512773.44748         0.00041  21060566.81948  21060566.30549
 -25066932.30449 -19532640.44248         0.00041  20328221.04648  20328220.90549
  -4175081.61648  -3253306.55746         0.00041  24550215.02846  24550213.32648
 -16239488.63008 -12654125.35208  22261325.72208  22261326.94308         0.00001
  20260416.14648  15787338.44145         0.00041  24590634.04545  24590632.16148
 -14059520.06448 -10955456.36146         0.00041  22406845.29546  22406845.08948
   1101752.95548    858517.19646         0.00041  22112358.10846  22112357.83548
 94 02 11 01 54 00.0000000  0  7 02 07 09 13 19 26 27
 -14756186.25549 -11498304.22348         0.00041  21064100.24148  21064099.82149
 -25063265.78149 -19529783.39848         0.00041  20328918.74348  20328918.68849
  -4274386.50948  -3330686.91346         0.00041  24531316.91146  24531316.09148
 -16336003.26808 -12729331.51408  22242959.58308  22242960.81108         0.00001
  20360756.43448  15865525.70245         0.00041  24609727.87545  24609726.31948
 -14045545.65648 -10944567.19646         0.00041  22409505.06146  22409504.39548
   1190484.55648    927658.68646         0.00041  22129242.83746  22129242.88748
 94 02 11 01 54 30.0000000  0  7 02 07 09 13 19 26 27
 -14737443.95249 -11483699.81748         0.00041  21067666.83548  21067666.34149
 -25059178.37749 -19526598.39448         0.00041  20329696.59548  20329696.45349
  -4373670.22648  -3408050.75946         0.00041  24512424.81946  24512423.19148
 -16432147.82208 -12804249.30008  22224663.82108  22224665.02608         0.00001
  20461256.51448  15943837.43145         0.00041  24628851.35245  24628850.75148
 -14031084.11648 -10933298.45046         0.00041  22412256.54846  22412256.31948
   1279551.10948    997061.18146         0.00041  22146191.49246  22146191.78048
 94 02 11 01 55 00.0000000  0  7 02 07 09 13 19 26 27
 -14718529.51849 -11468961.28448         0.00041  21071266.04048  21071265.61749
 -25054668.08349 -19523083.86648         0.00041  20330554.82148  20330554.71849
  -4472940.63648  -3485404.25546         0.00041  24493534.10946  24493532.54848
 -16527925.15508 -12878880.94008  22206437.93908  22206439.24308         0.00001
  20561904.12848  16022264.18046         0.00041  24648004.87346  24648003.26748
 -14016132.28848 -10921647.66246         0.00041  22415102.16346  22415101.68348
   1368939.80148   1066714.70246         0.00041  22163202.04446  22163201.74948
 94 02 11 01 55 30.0000000  0  7 02 07 09 13 19 26 27
 -14699438.67649 -11454085.29148         0.00041  21074898.94748  21074898.50149
 -25049703.90249 -19519215.66148         0.00041  20331499.57248  20331499.40249
  -4572198.81648  -3562748.19646         0.00041  24474644.97546  24474644.24948
 -16623328.95008 -12953221.51208  22188283.19208  22188284.40308         0.00001
  20662704.40648  16100809.85545         0.00041  24667185.74045  24667184.93748
 -14000679.34448 -10909606.39846         0.00041  22418042.60346  22418042.34948
   1458649.39048   1136618.26346         0.00041  22180273.38846  22180272.97048
 94 02 11 01 56 00.0000000  0  7 02 07 09 13 19 26 27
 -14680191.66649 -11439087.61048         0.00041  21078561.56548  21078561.08449
 -25044262.86149 -19514975.87648         0.00041  20332534.88948  20332534.83349
  -4671460.10348  -3640094.55646         0.00041  24455756.08246  24455755.37248
 -16718366.99908 -13027277.08808  22170197.95008  22170199.21008         0.00001
  20763630.75348  16179453.75345         0.00041  24686390.97645  24686390.49648
 -13984720.37148 -10897170.83046         0.00041  22421079.50546  22421079.15848
   1548660.61548   1206756.87146         0.00041  22197401.76946  22197401.65848
 94 02 11 01 56 30.0000000  0  7 02 07 09 13 19 26 27
 -14660806.52149 -11423982.29248         0.00041  21082250.23948  21082249.84349
 -25038337.42449 -19510358.64348         0.00041  20333662.47548  20333662.41549
  -4770722.88748  -3717442.11946         0.00041  24436867.78846  24436866.23848
 -16813049.84908 -13101055.88708  22152180.34908  22152181.64808         0.00001
  20864661.69448  16258179.20345         0.00041  24705618.78945  24705616.10948
 -13968258.25848 -10884343.20646         0.00041  22424211.91646  22424211.67048
   1638957.07948   1277117.74446         0.00041  22214584.41946  22214584.42548
 94 02 11 01 57 00.0000000  0  7 02 07 09 13 19 26 27
 -14641272.36449 -11408760.86248         0.00041  21085967.54148  21085967.02549
 -25031907.84749 -19505348.57248         0.00041  20334885.89048  20334885.85449
  -4869963.64048  -3794772.47446         0.00041  24417983.56846  24417981.02348
 -16907359.62708 -13174543.98308  22134233.82908  22134235.01508         0.00001
  20965813.79548  16336999.02745         0.00041  24724867.25945  24724864.81348
 -13951290.10048 -10871121.25946         0.00041  22427440.89746  22427440.68648
   1729554.78348   1347713.34246         0.00041  22231824.99046  22231824.57148
 94 02 11 01 57 30.0000000  0  7 02 07 09 13 19 26 27
 -14621591.53249 -11393425.13648         0.00041  21089712.54948  21089712.14549
 -25024968.99949 -19499941.66848         0.00041  20336206.43148  20336206.26249
  -4969169.70348  -3872075.82046         0.00041  24399104.43746  24399102.83148
 -17001291.85808 -13247737.88708  22116359.07508  22116360.26508         0.00001
  21067074.12748  16415903.16845         0.00041  24744137.34145  24744134.10248
 -13933811.76648 -10857501.77746         0.00041  22430766.96946  22430766.61848
   1820456.60748   1418545.91746         0.00041  22249122.88646  22249122.61548
 94 02 11 01 58 00.0000000  0  7 02 07 09 13 19 26 27
 -14601742.54849 -11377958.38048         0.00041  21093489.81648  21093489.40749
 -25017523.97149 -19494140.33948         0.00041  20337623.10648  20337622.96149
  -5068301.75548  -3949321.50546         0.00041  24380240.69046  24380238.34548
 -17094822.05508 -13320618.52108  22098560.83208  22098562.03708         0.00001
  21168446.66148  16494894.78746         0.00041  24763426.02746  24763424.55348
 -13915807.51148 -10843472.48346         0.00041  22434193.04946  22434192.69248
   1911687.93948   1489635.25646         0.00041  22266482.99946  22266483.29348
 94 02 11 01 58 30.0000000  0  7 02 07 09 13 19 26 27
 -14581729.01249 -11362363.40548         0.00041  21097298.37048  21097297.86549
 -25009606.18249 -19487970.62348         0.00041  20339129.71248  20339129.66949
  -5167360.65248  -4026510.17046         0.00041  24361390.24046  24361388.32248
 -17187952.77808 -13393187.87808  22080838.54708  22080839.86608         0.00001
  21269928.43748  16573971.51845         0.00041  24782736.55345  24782736.00548
 -13897308.20948 -10829057.44446         0.00041  22437713.59846  22437713.02948
   2003240.37648   1560974.80646         0.00041  22283905.27346  22283905.30248
 94 02 11 01 59 00.0000000  0  7 02 07 09 13 19 26 27
 -14561548.67249 -11346638.44748         0.00041  21101138.49448  21101138.09749
 -25001215.93949 -19481432.75748         0.00041  20340726.39648  20340726.26549
  -5266363.94548  -4103655.50846         0.00041  24342550.12446  24342548.57348
 -17280680.94008 -13465443.55408  22063192.96208  22063194.21408         0.00001
  21371517.88648  16653132.13745         0.00041  24802070.05645  24802067.89848
 -13878321.12648 -10814262.31346         0.00041  22441326.34246  22441326.18548
   2095111.97448   1632563.05146         0.00041  22301388.55746  22301387.89248
 94 02 11 01 59 30.0000000  0  6 02 07 09 13 26 27
 -14541189.75649 -11330774.34648         0.00041  21105012.49448  21105012.22749
 -24992362.43249 -19474533.90548         0.00041  20342411.06948  20342410.95149
  -5365305.15848  -4180752.51146         0.00041  24323720.87146  24323720.74748
 -17373002.07508 -13537382.06808  22045624.79908  22045626.02808         0.00001
 -13858842.51148 -10799084.16646         0.00041  22445032.96846  22445032.84848
   2187309.24148   1704405.06146         0.00041  22318932.54346  22318932.36948
 94 02 11 02 00 00.0000000  0  7 02 07 09 12 13 26 27
 -14520616.72149 -11314743.39848         0.00041  21108927.66148  21108927.14149
 -24983041.87949 -19467271.11748         0.00041  20344184.72448  20344184.62349
  -5464173.32048  -4257792.55146         0.00041  24304908.46646  24304906.52148
        -0.50118        -0.20517  25328176.77618  25328180.15017         0.00011
 -17464897.87008 -13608989.15008  22028137.60608  22028138.87508         0.00001
 -13838862.69348 -10783515.48146         0.00041  22448835.23146  22448835.00148
   2279848.71348   1776513.71946         0.00041  22336542.28946  22336542.22348
 94 02 11 02 00 30.0000000  0  7 02 07 09 12 13 26 27
 -14499801.11549 -11298523.43148         0.00041  21112888.62548  21112888.21849
 -24973221.47649 -19459618.83548         0.00041  20346053.53748  20346053.37949
  -5562955.70048  -4334765.78646         0.00041  24286111.41046  24286108.99548
    -88249.51408    -68765.57507  25311383.45308  25311386.63507         0.00001
 -17556342.47608 -13680244.65908  22010736.24408  22010737.49508         0.00001
 -13818350.54348 -10767532.01646         0.00041  22452737.83746  22452738.18048
   2372744.78848   1848900.26246         0.00041  22354219.31746  22354219.76448
 94 02 11 02 01 00.0000000  0  7 02 07 09 12 13 26 27
 -14478779.11549 -11282142.63948         0.00041  21116888.86948  21116888.56949
 -24962944.18949 -19451610.53748         0.00041  20348009.04448  20348008.93249
  -5661700.80348  -4411709.92646         0.00041  24267320.04746  24267318.28248
   -176575.43808   -137590.84207  25294575.52608  25294578.74907         0.00001
 -17647377.78108 -13751181.23008  21993412.74308  21993414.01808         0.00001
 -13797318.73348 -10751143.57146         0.00041  22456740.88846  22456740.53648
   2465956.41748   1921532.68146         0.00041  22371956.86846  22371957.26948
 94 02 11 02 01 30.0000000  0  7 02 07 09 12 13 26 27
 -14457554.93449 -11265604.30248         0.00041  21120927.63348  21120927.37349
 -24952220.45049 -19443254.35548         0.00041  20350049.76848  20350049.67849
  -5760398.01748  -4488616.79646         0.00041  24248539.01846  24248536.82248
   -264979.10708   -206476.68807  25277752.85908  25277755.88207         0.00001
 -17738003.16208 -13821798.38008  21976167.24308  21976168.52308         0.00001
 -13775768.42248 -10734351.10846         0.00041  22460841.53646  22460841.45248
   2559482.50448   1994410.14046         0.00041  22389755.34446  22389754.91148
 94 02 11 02 02 00.0000000  0  7 02 07 09 12 13 26 27
 -14436150.28349 -11248925.34248         0.00041  21125000.74448  21125000.61749
 -24941051.42649 -19434551.19548         0.00041  20352175.16348  20352175.08849
  -5859054.44248  -4565491.86146         0.00041  24229763.70646  24229763.03148
   -353463.21108   -275425.20107  25260914.73908  25260917.81307         0.00001
 -17828219.63308 -13892096.89908  21958999.64508  21959000.91608         0.00001
 -13753701.50848 -10717156.10146         0.00041  22465041.09446  22465040.56148
   2653308.22848   2067521.07346         0.00041  22407609.48946  22407609.31848
 94 02 11 02 02 30.0000000  0  7 02 07 09 12 13 26 27
 -14414604.82249 -11232136.65748         0.00041  21129100.86948  21129100.49849
 -24929452.82549 -19425513.30148         0.00041  20354382.28848  20354382.27249
  -5957686.10348  -4642347.61446         0.00041  24210995.69046  24210993.91648
   -442039.51008   -344445.56307  25244059.09508  25244062.11407         0.00001
 -17918037.37908 -13962084.72108  21941907.86708  21941909.11208         0.00001
 -13731119.18648 -10699559.49246         0.00041  22469338.06846  22469337.81248
   2747422.26348   2140856.66546         0.00041  22425517.86346  22425518.57648
 94 02 11 02 03 00.0000000  0  7 02 07 09 12 13 26 27
 -14392916.61949 -11215236.74448         0.00041  21133227.84948  21133227.60649
 -24917417.78449 -19416135.32648         0.00041  20356672.39548  20356672.39749
  -6056277.01348  -4719171.63646         0.00041  24192234.19446  24192232.66648
   -530697.20308   -413529.37207  25227188.00008  25227191.03007         0.00001
 -18007444.35308 -14031752.45908  21924894.30508  21924895.52608         0.00001
 -13708018.22048 -10681558.73846         0.00041  22473734.03446  22473733.67848
   2841834.90948   2214424.94446         0.00041  22443484.73446  22443484.69048
 94 02 11 02 03 30.0000000  0  7 02 07 09 12 13 26 27
 -14371083.65349 -11198224.03148         0.00041  21137382.63248  21137382.31949
 -24904927.24749 -19406402.42148         0.00041  20359049.32448  20359049.21449
  -6154807.13948  -4795948.27046         0.00041  24173483.07546  24173482.90248
   -619421.94808   -482665.44607  25210304.12808  25210307.29307         0.00001
 -18096425.07108 -14101088.04908  21907961.78008  21907963.02308         0.00001
 -13684417.70048 -10663168.72246         0.00041  22478224.40646  22478224.66148
   2936551.89648   2288230.37546         0.00041  22461508.82346  22461508.81948
 94 02 11 02 04 00.0000000  0  7 02 07 09 12 13 26 27
 -14349086.47849 -11181083.36448         0.00041  21141568.36848  21141568.07549
 -24891973.99449 -19396308.95948         0.00041  20361513.99448  20361514.03249
  -6253263.89448  -4872667.72646         0.00041  24154748.56246  24154747.18048
   -708204.05408   -551846.22307  25193409.40708  25193412.45807         0.00001
 -18184968.13208 -14170082.60708  21891112.59308  21891113.76408         0.00001
 -13660305.92548 -10644380.33046         0.00041  22482813.23746  22482813.09748
   3031578.85348   2362277.33346         0.00041  22479591.65246  22479591.80948
 94 02 11 02 04 30.0000000  0  7 02 07 09 12 13 26 27
 -14326916.03049 -11163807.67948         0.00041  21145787.31748  21145787.12449
 -24878555.27949 -19385852.80048         0.00041  20364067.61248  20364067.58749
  -6351641.90748  -4949325.83946         0.00041  24136027.51546  24136026.39548
   -797045.91908   -621073.56607  25176503.27908  25176506.30207         0.00001
 -18273074.64408 -14238736.99508  21874346.44608  21874347.59908         0.00001
 -13635690.52648 -10625199.50246         0.00041  22487497.48446  22487497.17948
   3126914.18248   2436564.58746         0.00041  22497734.10946  22497733.60048
 94 02 11 02 05 00.0000000  0  7 02 07 09 12 13 26 27
 -14304578.23149 -11146401.59248         0.00041  21150038.00848  21150037.80649
 -24864684.88249 -19375044.68448         0.00041  20366707.20948  20366707.06149
  -6449949.98948  -5025929.46346         0.00041  24117319.70246  24117318.76348
   -885968.90208   -690364.10307  25159581.76408  25159584.84307         0.00001
 -18360764.88208 -14307067.01108  21857659.51508  21857660.70108         0.00001
 -13610619.29348 -10605663.47746         0.00041  22492268.33546  22492268.11348
   3222526.10448   2511067.36046         0.00041  22515927.99946  22515927.95948
 94 02 11 02 05 30.0000000  0  7 02 07 09 12 13 26 27
 -14282049.14149 -11128846.44548         0.00041  21154325.34248  21154325.01449
 -24850353.66549 -19363877.48948         0.00041  20369434.22348  20369434.24349
  -6548168.56048  -5102463.30546         0.00041  24098630.90046  24098628.51548
   -974953.02108   -759702.25907  25142648.52708  25142651.51307         0.00001
 -18448017.49308 -14375056.02108  21841055.89708  21841057.03908         0.00001
 -13585067.95048 -10585753.34946         0.00041  22497130.62546  22497130.31348
   3318442.81248   2585807.64546         0.00041  22534179.79646  22534180.32248
 94 02 11 02 06 00.0000000  0  7 02 07 09 12 13 26 27
 -14259341.72049 -11111152.34148         0.00041  21158646.41548  21158646.10249
 -24835587.69349 -19352371.52448         0.00041  20372244.16048  20372244.06449
  -6646316.07048  -5178941.81846         0.00041  24079953.08946  24079951.55648
  -1064014.35208   -829100.57707  25125700.75208  25125703.57307         0.00001
 -18534846.78908 -14442715.17508  21824532.79108  21824533.96608         0.00001
 -13559031.24148 -10565465.00746         0.00041  22502085.08846  22502084.90948
   3414657.43448   2660780.05946         0.00041  22552489.14346  22552489.56948
 94 02 11 02 06 30.0000000  0  7 02 07 09 12 13 26 27
 -14236462.12449 -11093324.07448         0.00041  21163000.13548  21162999.89049
 -24820386.44149 -19340526.38248         0.00041  20375136.80548  20375136.78649
  -6744387.64548  -5255361.11346         0.00041  24061290.85546  24061289.34348
  -1153145.01708   -898552.92507  25108739.53508  25108742.43607         0.00001
 -18621244.02508 -14510037.65408  21808091.90308  21808093.03108         0.00001
 -13532517.24848 -10544804.76446         0.00041  22507130.73146  22507130.36348
   3511176.65548   2735989.81546         0.00041  22570856.25746  22570856.30148
 94 02 11 02 07 00.0000000  0  7 02 07 09 12 13 26 27
 -14213419.78449 -11075368.99748         0.00041  21167384.93648  21167384.67549
 -24804773.77149 -19328360.65348         0.00041  20378107.75648  20378107.73849
  -6842393.62448  -5331729.33346         0.00041  24042640.40446  24042639.12548
  -1242351.15908   -968064.10907  25091764.13308  25091766.98907         0.00001
 -18707214.27408 -14577027.42108  21791732.29608  21791733.40408         0.00001
 -13505535.10048 -10523779.72046         0.00041  22512265.49546  22512264.92048
   3607997.07248   2811434.27446         0.00041  22589280.90546  22589280.58548
 94 02 11 02 07 30.0000000  0  7 02 07 09 12 13 26 27
 -14190204.31049 -11057279.01148         0.00041  21171802.63048  21171802.44249
 -24788737.72649 -19315865.02548         0.00041  20381159.27348  20381159.18049
  -6940316.17648  -5408032.53346         0.00041  24024005.18346  24024005.08848
  -1331614.57008  -1037619.93807  25074777.72608  25074780.56307         0.00001
 -18792737.69508 -14643669.00908  21775457.69908  21775458.79608         0.00001
 -13478054.14448 -10502365.99446         0.00041  22517494.71946  22517494.45248
   3705143.68648   2887132.91546         0.00041  22607766.98146  22607767.16348
 94 02 11 02 08 00.0000000  0  7 02 07 09 12 13 26 27
 -14166838.84949 -11039072.15148         0.00041  21176249.11448  21176248.77249
 -24772282.91049 -19303043.08148         0.00041  20384290.60448  20384290.55249
  -7038172.32748  -5484283.97046         0.00041  24005385.02846  24005383.59748
  -1420958.96108  -1107238.89008  25057776.12408  25057778.92008         0.00001
 -18877837.05208 -14709980.16008  21759263.81708  21759264.88608         0.00001
 -13450114.09548 -10480594.53446         0.00041  22522811.12746  22522811.29948
   3802580.71448   2963057.85646         0.00041  22626309.41346  22626308.83248
 94 02 11 02 08 30.0000000  0  7 02 07 09 12 13 26 27
 -14143314.71649 -11020741.65548         0.00041  21180725.39748  21180725.17349
 -24755403.12849 -19289889.99448         0.00041  20387502.62248  20387502.55449
  -7135956.41748  -5560479.29846         0.00041  23986776.46146  23986775.83448
  -1510379.53408  -1176917.19207  25040759.99108  25040762.72307         0.00001
 -18962506.33608 -14775956.19008  21743151.78908  21743152.79308         0.00001
 -13421722.98148 -10458471.59646         0.00041  22528214.62946  22528214.00248
   3900304.91648   3039206.57246         0.00041  22644905.19446  22644905.18248
 94 02 11 02 09 00.0000000  0  7 02 07 09 12 13 26 27
 -14119633.58949 -11002288.82248         0.00041  21185231.85348  21185231.59749
 -24738093.77349 -19276402.17448         0.00041  20390796.56948  20390796.47949
  -7233676.77348  -5636624.93646         0.00041  23968180.67646  23968180.26648
  -1599887.56208  -1246663.62707  25023727.10708  25023729.78407         0.00001
 -19046756.12908 -14841605.34308  21727119.55608  21727120.58308         0.00001
 -13392884.50048 -10436000.05546         0.00041  22533701.93546  22533701.61648
   3998302.58148   3115568.36746         0.00041  22663553.58846  22663553.53748
 94 02 11 02 09 30.0000000  0  7 02 07 09 12 13 26 27
 -14095790.94449 -10983710.13148         0.00041  21189769.00248  21189768.70349
 -24720336.46749 -19262565.30348         0.00041  20394175.75548  20394175.63149
  -7331333.63948  -5712721.10946         0.00041  23949596.12846  23949596.90048
  -1689484.81608  -1316479.55307  25006677.22708  25006679.85907         0.00001
 -19130586.84808 -14906927.94508  21711167.02208  21711168.10908         0.00001
 -13363598.57148 -10413179.85646         0.00041  22539274.77946  22539274.50648
   4096559.56348   3192132.23846         0.00041  22682250.84446  22682250.98848
 94 02 11 02 10 00.0000000  0  7 02 07 09 12 13 26 27
 -14071781.55249 -10965001.50548         0.00041  21194337.82948  21194337.52149
 -24702124.25849 -19248373.96248         0.00041  20397641.21948  20397641.21249
  -7428926.58748  -5788767.49846         0.00041  23931026.70646  23931025.37148
  -1779165.07108  -1386360.14307  24989611.53308  24989614.22007         0.00001
 -19213991.19508 -14971918.30908  21695295.69308  21695296.76708         0.00001
 -13333864.63448 -10390010.55346         0.00041  22544933.21146  22544932.82048
   4195064.34448   3268889.19346         0.00041  22700995.49446  22700995.94248
 94 02 11 02 10 30.0000000  0  7 02 07 09 12 13 26 27
 -14047590.91249 -10946151.65248         0.00041  21198941.19448  21198940.82549
 -24683466.54749 -19233835.47448         0.00041  20401191.66348  20401191.62949
  -7526440.87648  -5864752.59646         0.00041  23912469.85346  23912468.95248
  -1868920.41508  -1456299.22607  24972531.53408  24972534.21707         0.00001
 -19296960.14208 -15036569.40208  21679507.19408  21679508.27908         0.00001
 -13303665.59448 -10366478.83846         0.00041  22550680.03846  22550679.58148
   4293815.76148   3345838.32946         0.00041  22719787.74346  22719787.76848
 94 02 11 02 11 00.0000000  0  7 02 07 09 12 13 26 27
 -14023209.13749 -10927152.85748         0.00041  21203580.83648  21203580.50849
 -24664338.78049 -19218930.70848         0.00041  20404831.64148  20404831.58849
  -7623848.89848  -5940654.87846         0.00041  23893933.44546  23893932.61748
  -1958729.29608  -1526280.03107  24955441.30308  24955443.91607         0.00001
 -19379471.21708 -15100863.71208  21663805.86008  21663806.86708         0.00001
 -13272978.56448 -10342566.86146         0.00041  22556519.20646  22556519.11948
   4392829.71548   3422992.04146         0.00041  22738629.79346  22738629.55948
 94 02 11 02 11 30.0000000  0  7 02 07 09 12 13 26 27
 -13998640.77649 -10908008.66948         0.00041  21208255.92848  21208255.71949
 -24644764.69849 -19203678.16748         0.00041  20408556.39648  20408556.28549
  -7721148.97648  -6016473.04346         0.00041  23875418.37446  23875417.05248
  -2048591.48608  -1596302.37807  24938340.99908  24938343.64607         0.00001
 -19461523.12608 -15164800.22908  21648191.86808  21648192.90308         0.00001
 -13241812.49048 -10318281.61146         0.00041  22562450.04146  22562449.91248
   4492101.61148   3500346.74146         0.00041  22757520.15146  22757520.31948
 94 02 11 02 12 00.0000000  0  7 02 07 09 12 13 26 27
 -13973882.02649 -10888716.12448         0.00041  21212967.38048  21212967.11049
 -24624761.95549 -19188091.60148         0.00041  20412362.94248  20412362.74049
  -7818324.99148  -6092194.52046         0.00041  23856925.99346  23856925.06948
  -2138499.92108  -1666360.77007  24921231.89808  24921234.53907         0.00001
 -19543108.03708 -15228372.85008  21632666.73808  21632667.72908         0.00001
 -13210174.68148 -10293628.77446         0.00041  22568470.57646  22568470.27248
   4591637.03348   3577906.80046         0.00041  22776461.53546  22776461.12648
 94 02 11 02 12 30.0000000  0  7 02 07 09 12 13 26 27
 -13948934.91649 -10869276.80848         0.00041  21217714.76348  21217714.41349
 -24604345.30949 -19172182.51248         0.00041  20416247.83748  20416247.79949
  -7915381.70148  -6167823.05446         0.00041  23838456.08846  23838455.78648
  -2228456.34608  -1736456.57807  24904113.68508  24904116.18407         0.00001
 -19624226.83708 -15291582.26608  21617230.30408  21617231.32008         0.00001
 -13178072.75848 -10268614.28746         0.00041  22574579.40746  22574579.09448
   4691446.84748   3655680.67346         0.00041  22795454.95846  22795454.43548
 94 02 11 02 13 00.0000000  0  7 02 07 09 12 13 26 27
 -13923799.91549 -10849691.08448         0.00041  21222497.53248  21222497.25649
 -24583506.54249 -19155944.49848         0.00041  20420213.16748  20420213.17949
  -8012320.98148  -6243360.09746         0.00041  23820008.91346  23820008.54548
  -2318447.87108  -1806579.74907  24886988.81808  24886991.32607         0.00001
 -19704865.31308 -15354417.40308  21601885.30208  21601886.29708         0.00001
 -13145502.93248 -10243235.20046         0.00041  22580777.48346  22580776.95348
   4791543.72448   3733678.21346         0.00041  22814502.46346  22814502.19648
 94 02 11 02 13 30.0000000  0  7 02 07 09 12 13 26 27
 -13898461.39449 -10829946.77448         0.00041  21227319.60648  21227319.15549
 -24562251.22649 -19139381.90048         0.00041  20424258.19648  20424258.01149
  -8109140.29948  -6318803.61346         0.00041  23801584.92346  23801584.15648
  -2408469.63308  -1876726.49807  24869858.22408  24869860.66107         0.00001
 -19785017.93508 -15416873.95308  21586632.72808  21586633.73008         0.00001
 -13112470.60548 -10217495.72346         0.00041  22587063.20046  22587062.68448
   4891918.96548   3811892.66746         0.00041  22833603.51246  22833602.99948
 94 02 11 02 14 00.0000000  0  7 02 07 09 12 13 26 27
 -13872940.13249 -10810060.06648         0.00041  21232175.92748  21232175.76749
 -24540582.27349 -19122496.98748         0.00041  20428381.59648  20428381.55949
  -8205857.81148  -6394167.82546         0.00041  23783179.21946  23783179.42948
  -2498534.76708  -1946907.05907  24852719.30808  24852721.72007         0.00001
 -19864697.04008 -15478961.52808  21571470.23608  21571471.23608         0.00001
 -13078978.63548 -10191398.08546         0.00041  22593435.96446  22593435.97348
   4992559.16348   3890313.58446         0.00041  22852753.86446  22852754.20348
 94 02 11 02 14 30.0000000  0  7 02 07 09 12 13 26 27
 -13847241.47749 -10790035.12848         0.00041  21237066.14548  21237066.00849
 -24518485.40149 -19105278.62848         0.00041  20432586.58348  20432586.45749
  -8302473.82648  -6469452.95546         0.00041  23764794.63446  23764794.04548
  -2588639.80808  -2017118.72807  24835572.83308  24835575.41507         0.00001
 -19943898.49708 -15540676.91108  21556398.71308  21556399.67108         0.00001
 -13045009.41948 -10164928.56646         0.00041  22599900.46246  22599899.98848
   5093465.54348   3968941.92946         0.00041  22871955.66546  22871956.01448
 94 02 11 02 15 00.0000000  0  7 02 07 09 12 13 26 27
 -13821361.00749 -10769868.51648         0.00041  21241991.29248  21241990.90149
 -24495956.67149 -19087723.75748         0.00041  20436873.69048  20436873.50949
  -8398972.79248  -6544646.87746         0.00041  23746432.91646  23746431.09148
  -2678787.23508  -2087363.43407  24818418.30708  24818420.70407         0.00001
 -20022623.84708 -15602021.30208  21541417.72208  21541418.70808         0.00001
 -13010566.73548 -10138090.11546         0.00041  22606454.66346  22606454.37248
   5194628.59348   4047770.25646         0.00041  22891207.31846  22891206.87948
 94 02 11 02 15 30.0000000  0  7 02 07 09 12 13 26 27
 -13795292.61049 -10749555.46948         0.00041  21246951.81248  21246951.54749
 -24472997.51349 -19069833.48948         0.00041  20441242.40748  20441242.49449
  -8495340.08648  -6619738.20146         0.00041  23728093.22246  23728092.84348
  -2768975.08208  -2157639.64507  24801256.09808  24801258.60407         0.00001
 -20100870.45608 -15662992.64708  21526527.84108  21526528.79608         0.00001
 -12975648.25848 -10110880.91646         0.00041  22613099.26946  22613099.17348
   5296058.57348   4126806.58946         0.00041  22910507.84446  22910508.31948
 94 02 11 02 16 00.0000000  0  7 02 07 09 12 13 26 27
 -13769058.40949 -10729113.22748         0.00041  21251943.90548  21251943.74549
 -24449622.09749 -19051618.86048         0.00041  20445690.82848  20445690.67349
  -8591582.66848  -6694732.35846         0.00041  23709779.34846  23709778.36548
  -2859216.88308  -2227957.89507  24784083.56708  24784086.13907         0.00001
 -20178651.09408 -15723600.89908  21511726.64908  21511727.56708         0.00001
 -12940258.26048 -10083304.29946         0.00041  22619833.86246  22619833.51648
   5397756.08848   4206051.38946         0.00041  22929861.11946  22929860.60448
 94 02 11 02 16 30.0000000  0  7 02 07 09 12 13 26 27
 -13742656.17649 -10708540.04848         0.00041  21256968.29348  21256967.97949
 -24425842.44649 -19033089.24648         0.00041  20450215.71848  20450215.67749
  -8687691.93848  -6769622.63846         0.00041  23691489.99946  23691489.39348
  -2949518.13008  -2298322.46807  24766899.89108  24766902.33407         0.00001
 -20255970.74508 -15783849.94108  21497013.18708  21497014.13708         0.00001
 -12904414.48748 -10055374.09346         0.00041  22626654.70346  22626654.51748
   5499716.50048   4285501.05646         0.00041  22949262.78246  22949263.10148
 94 02 11 02 17 00.0000000  0  7 02 07 09 12 13 26 27
 -13716085.27149 -10687835.43648         0.00041  21262024.44648  21262024.24649
 -24401668.14249 -19014252.10948         0.00041  20454815.78348  20454815.75849
  -8783679.03748  -6844417.73246         0.00041  23673224.85846  23673223.65748
  -3039884.43508  -2368737.72607  24749703.70908  24749706.08307         0.00001
 -20332834.28508 -15843743.57008  21482386.49208  21482387.38508         0.00001
 -12868135.15848 -10027104.49046         0.00041  22633558.48946  22633558.34448
   5601938.69648   4365154.70946         0.00041  22968715.30446  22968715.24948
 94 02 11 02 17 30.0000000  0  7 02 07 09 12 13 26 27
 -13689337.60949 -10666993.09248         0.00041  21267114.28348  21267114.13849
 -24377078.03549 -18995090.96948         0.00041  20459495.09248  20459495.11649
  -8879547.60748  -6919120.45946         0.00041  23654980.13946  23654980.56048
  -3130300.77908  -2439191.97107  24732498.00508  24732500.54607         0.00001
 -20409225.85208 -15903269.43008  21467849.63508  21467850.53908         0.00001
 -12831405.72448  -9998484.15946         0.00041  22640547.57246  22640547.51648
   5704432.75048   4445020.19146         0.00041  22988219.20146  22988219.14448
 94 02 11 02 18 00.0000000  0  7 02 07 09 12 13 26 27
 -13662422.10149 -10646019.96348         0.00041  21272236.35248  21272235.96649
 -24352068.74549 -18975603.19948         0.00041  20464254.30248  20464254.25949
  -8975314.96748  -6993744.33946         0.00041  23636756.64446  23636756.62648
  -3220774.81008  -2509691.16407  24715281.29208  24715283.76707         0.00001
 -20485152.69208 -15962433.16408  21453401.23108  21453402.15908         0.00001
 -12794240.64748  -9969524.36646         0.00041  22647620.26546  22647619.91148
   5807180.23648   4525083.15846         0.00041  23007771.46946  23007771.30748
 94 02 11 02 18 30.0000000  0  7 02 07 09 12 13 26 27
 -13635331.88449 -10624910.69448         0.00041  21277391.34448  21277391.06549
 -24326641.97149 -18955790.11748         0.00041  20469092.92948  20469092.88249
  -9071004.50148  -7068307.57246         0.00041  23618548.04846  23618547.37848
  -3311310.43708  -2580238.34608  24698052.91708  24698055.26908         0.00001
 -20560618.03908 -16021237.29208  21439040.60808  21439041.51308         0.00001
 -12756668.35848  -9940247.26146         0.00041  22654770.22346  22654769.72248
   5910163.57248   4605329.89846         0.00041  23027368.40046  23027368.48448
 94 02 11 02 19 00.0000000  0  7 02 07 09 12 13 26 27
 -13608057.60349 -10603657.99848         0.00041  21282581.27548  21282581.22249
 -24300797.45049 -18935651.51648         0.00041  20474011.00848  20474010.91949
  -9166630.94148  -7142821.64246         0.00041  23600350.19146  23600350.27348
  -3401894.49808  -2650823.26008  24680815.18408  24680817.67408         0.00001
 -20635608.30008 -16079671.22408  21424770.40708  21424771.36108         0.00001
 -12718684.30848  -9910649.31446         0.00041  22661998.12746  22661997.93348
   6013382.50448   4685760.22246         0.00041  23047011.16246  23047010.47248
 94 02 11 02 19 30.0000000  0  7 02 07 09 12 13 26 27
 -13580580.35849 -10582247.14548         0.00041  21287810.14948  21287809.93349
 -24274532.59749 -18915185.38548         0.00041  20479008.95348  20479008.90749
  -9262155.40648  -7217256.25446         0.00041  23582173.19446  23582172.60248
  -3492498.94608  -2721424.05108  24663573.68708  24663576.19008         0.00001
 -20710094.85408 -16137712.65708  21410596.04508  21410596.92608         0.00001
 -12680266.60048  -9880713.43546         0.00041  22669309.10746  22669308.55448
   6116851.55048   4766385.45446         0.00041  23066700.59546  23066700.00748
 94 02 11 02 20 00.0000000  0  7 02 07 09 12 13 26 27
 -13552925.59549 -10560697.97048         0.00041  21293072.53048  21293072.40349
 -24247886.02449 -18894421.81148         0.00041  20484079.73848  20484079.63249
  -9357585.11148  -7291617.03246         0.00041  23564013.10446  23564012.89248
  -3583139.99108  -2792053.35308  24646325.33808  24646327.70308         0.00001
 -20784093.73808 -16195374.08808  21396514.49908  21396515.38808         0.00001
 -12641436.89148  -9850456.52646         0.00041  22676697.81246  22676697.53548
   6220548.26048   4847188.06746         0.00041  23086432.50446  23086432.76048
 94 02 11 02 20 30.0000000  0  7 02 07 09 12 13 26 27
 -13525072.50549 -10538994.25448         0.00041  21298372.71248  21298372.50449
 -24220858.86049 -18873361.67148         0.00041  20489222.63748  20489222.70149
  -9452878.02148  -7365871.19246         0.00041  23545880.23346  23545879.33448
  -3673793.12508  -2862692.07408  24629074.50408  24629076.88508         0.00001
 -20857579.68308 -16252635.82608  21382530.57108  21382531.41608         0.00001
 -12602169.25648  -9819858.37646         0.00041  22684169.93046  22684170.02648
   6324493.30148   4928184.19846         0.00041  23106213.43246  23106212.95448
 94 02 11 02 21 00.0000000  0  7 02 07 09 12 13 26 27
 -13497034.90149 -10517146.76248         0.00041  21303708.32448  21303707.99749
 -24193452.59149 -18852006.12748         0.00041  20494437.89948  20494437.90849
  -9547995.46448  -7439988.64246         0.00041  23527779.94246  23527779.08248
  -3764452.79108  -2933335.87308  24611822.45108  24611824.96108         0.00001
 -20930546.73208 -16309493.23108  21368645.37208  21368646.21808         0.00001
 -12562435.38048  -9788896.91346         0.00041  22691730.90246  22691731.12448
   6428695.23248   5009380.50946         0.00041  23126041.29346  23126041.85948
 94 02 11 02 21 30.0000000  0  7 02 07 09 12 13 26 27
 -13468838.11049 -10495175.22648         0.00041  21309073.82448  21309073.69749
 -24165664.76549 -18830353.26548         0.00041  20499725.80848  20499725.80349
  -9642929.88148  -7513963.46846         0.00041  23509713.80946  23509713.50748
  -3855141.25408  -3004002.11907  24594565.04908  24594567.35007         0.00001
 -21003016.76008 -16365963.34408  21354854.77508  21354855.59808         0.00001
 -12522252.30648  -9757585.43146         0.00041  22699378.05446  22699377.65648
   6533126.65748   5090755.62446         0.00041  23145914.63346  23145914.72848
 94 02 11 02 22 00.0000000  0  7 02 07 09 12 13 26 27
 -13440472.57849 -10473072.18548         0.00041  21314471.68748  21314471.56049
 -24137476.65549 -18808388.50448         0.00041  20505089.74048  20505089.77249
  -9737690.95248  -7587803.20246         0.00041  23491680.74746  23491680.88348
  -3945863.63808  -3074694.79007  24577301.08308  24577303.38707         0.00001
 -21074994.72008 -16422050.03008  21341157.79408  21341158.60208         0.00001
 -12481630.25348  -9725931.88846         0.00041  22707108.28746  22707107.75848
   6637778.21748   5172302.29546         0.00041  23165829.48646  23165829.34248
 94 02 11 02 22 30.0000000  0  7 02 07 09 12 13 26 27
 -13411919.29949 -10450822.88248         0.00041  21319905.09048  21319904.95549
 -24108884.73449 -18786109.06848         0.00041  20510530.68248  20510530.65249
  -9832274.39248  -7661504.52346         0.00041  23473681.81046  23473682.25548
  -4036622.77708  -3145416.10607  24560030.07108  24560032.36907         0.00001
 -21146482.78008 -16477754.97508  21327554.02708  21327554.88408         0.00001
 -12440576.15648  -9693941.68346         0.00041  22714920.57246  22714920.07748
   6742650.27748   5254020.76746         0.00041  23185786.34146  23185785.68148
 94 02 11 02 23 00.0000000  0  7 02 07 09 12 13 26 27
 -13383175.69449 -10428425.26248         0.00041  21325374.89248  21325374.71849
 -24079868.46049 -18763498.97348         0.00041  20516052.22848  20516052.24849
  -9926699.73448  -7735082.65246         0.00041  23455714.86546  23455713.73148
  -4127418.24108  -3216165.73607  24542752.26508  24542754.34707         0.00001
 -21217480.48208 -16533077.82108  21314043.58908  21314044.42408         0.00001
 -12399102.99048  -9661624.93046         0.00041  22722812.76046  22722812.26348
   6847743.08848   5335911.25946         0.00041  23205784.46546  23205784.07248
 94 02 11 02 23 30.0000000  0  7 02 07 09 12 13 26 27
 -13354221.75749 -10405863.74248         0.00041  21330884.79848  21330884.45049
 -24050431.87949 -18740561.36748         0.00041  20521653.85848  20521653.87749
 -10020985.04448  -7808551.67446         0.00041  23437771.58646  23437771.75248
  -4218248.26108  -3286942.30207  24525467.89708  24525470.01307         0.00001
 -21287985.71908 -16588016.92708  21300626.87808  21300627.66208         0.00001
 -12357232.35748  -9628998.46346         0.00041  22730780.89846  22730780.03148
   6953046.27448   5417965.68646         0.00041  23225822.69646  23225822.69948
 94 02 11 02 24 00.0000000  0  7 02 07 09 12 13 26 27
 -13325056.08449 -10383137.23348         0.00041  21336434.83948  21336434.43349
 -24020599.56549 -18717315.40048         0.00041  20527330.74148  20527330.79049
 -10115138.49148  -7881917.93446         0.00041  23419855.54746  23419854.73448
  -4309115.31608  -3357747.72808  24508176.26408  24508178.38308         0.00001
 -21358000.75608 -16642574.06008  21287303.41608  21287304.20008         0.00001
 -12314967.88648  -9596065.11646         0.00041  22738822.49846  22738822.58948
   7058565.99248   5500188.82746         0.00041  23245901.47846  23245902.61348
 94 02 11 02 24 30.0000000  0  7 02 07 09 12 13 26 27
 -13295696.88249 -10360259.92448         0.00041  21342021.32948  21342021.39349
 -23990381.46449 -18693768.81748         0.00041  20533081.02748  20533081.07849
 -10209159.93148  -7955181.31146         0.00041  23401964.07946  23401962.88948
  -4400020.58708  -3428582.93108  24490877.58108  24490879.73508         0.00001
 -21427526.41508 -16696749.85908  21274073.09908  21274073.86408         0.00001
 -12272310.82148  -9562825.84246         0.00041  22746940.37346  22746939.91048
   7164303.15148   5582581.39746         0.00041  23266022.84746  23266023.53948
 94 02 11 02 25 00.0000000  0  7 02 07 09 12 13 26 27
 -13266151.81749 -10337237.78548         0.00041  21347643.71248  21347643.54849
 -23959766.32649 -18669912.85448         0.00041  20538906.96348  20538906.96049
 -10303039.47248  -8028334.15046         0.00041  23384098.62346  23384098.22248
  -4490949.35808  -3499436.44708  24473574.31308  24473576.44808         0.00001
 -21496547.97808 -16750532.85908  21260938.70308  21260939.47408         0.00001
 -12229248.44348  -9529270.74746         0.00041  22755134.46846  22755134.39448
   7270256.82648   5665142.69846         0.00041  23286185.52146  23286185.79348
 94 02 11 02 25 30.0000000  0  7 02 07 09 12 13 26 27
 -13236412.68549 -10314064.42548         0.00041  21353302.88748  21353302.82949
 -23928762.27349 -18645753.84448         0.00041  20544806.79148  20544806.71449
 -10396754.57548  -8101358.85746         0.00041  23366265.42746  23366264.82948
  -4581893.01508  -3570301.56308  24456268.24308  24456270.43308         0.00001
 -21565056.84208 -16803916.35008  21247901.86508  21247902.63008         0.00001
 -12185763.69448  -9495386.51446         0.00041  22763409.50146  22763409.26948
   7376439.99948   5747882.81546         0.00041  23306391.94146  23306391.69848
 94 02 11 02 26 00.0000000  0  6 02 07 09 12 13 27
 -13206478.75349 -10290739.27248         0.00041  21358999.13348  21358999.05149
 -23897354.05549 -18621279.89948         0.00041  20550783.46748  20550783.43049
 -10490284.52348  -8174239.28346         0.00041  23348467.53946  23348466.77548
  -4672834.94908  -3641165.33108  24438962.58208  24438964.64908         0.00001
 -21633035.99508 -16856887.08008  21234965.85108  21234966.58908         0.00001
   7482884.79748   5830826.80846         0.00041  23326646.75846  23326647.61848
 94 02 11 02 26 30.0000000  0  6 02 07 09 12 13 27
 -13176393.33149 -10267296.07648         0.00041  21364724.07648  21364724.08649
 -23865577.10549 -18596518.62948         0.00041  20556830.55848  20556830.51349
 -10583672.53248  -8247009.10746         0.00041  23330696.79946  23330695.59748
  -4763808.22008  -3712053.51608  24421650.95708  24421652.85308         0.00001
 -21700518.63508 -16909470.91708  21222124.32208  21222125.07308         0.00001
   7589552.23048   5913944.27146         0.00041  23346946.22746  23346945.81048
 94 02 11 02 27 00.0000000  0  6 02 07 09 12 13 27
 -13146132.82949 -10243716.45648         0.00041  21370482.63448  21370482.38849
 -23833427.57249 -18571467.03748         0.00041  20562948.37948  20562948.41549
 -10676903.23948  -8319656.36846         0.00041  23312954.66546  23312954.28948
  -4854799.76008  -3782955.93408  24404335.78408  24404337.67208         0.00001
 -21767491.63508 -16961657.63108  21209379.75308  21209380.46408         0.00001
   7696458.76048   5997248.06146         0.00041  23367289.63046  23367289.45248
 94 02 11 02 27 30.0000000  0  6 02 07 09 12 13 27
 -13115667.84649 -10219977.49647         0.00041  21376279.84147  21376279.57849
 -23800896.86449 -18546118.42348         0.00041  20569138.74548  20569138.74549
 -10769956.76948  -8392165.57446         0.00041  23295247.52646  23295246.77948
  -4945790.43408  -3853857.68108  24387020.74008  24387022.64708         0.00001
 -21833935.79508 -17013432.26308  21196735.81908  21196736.55308         0.00001
   7803624.79048   6080754.03446         0.00041  23387682.44246  23387682.59548
 94 02 11 02 28 00.0000000  0  6 02 07 09 12 13 27
 -13085016.06349 -10196092.97647         0.00041  21382112.35747  21382112.40849
 -23767992.96249 -18520479.00748         0.00041  20575400.12948  20575400.12749
 -10862847.08548  -8464547.58246         0.00041  23277571.00246  23277570.33648
  -5036791.85808  -3924767.82208  24369703.69008  24369705.58808         0.00001
 -21899862.86308 -17064803.96608  21184190.27708  21184191.03908         0.00001
   7911009.19348   6164430.19046         0.00041  23408117.82146  23408117.13248
 94 02 11 02 28 30.0000000  0  6 02 07 09 12 13 27
 -13054194.42049 -10172076.09647         0.00041  21387977.66047  21387977.67449
 -23734735.08649 -18494563.76848         0.00041  20581728.93048  20581728.88449
 -10955584.30448  -8536810.30546         0.00041  23259923.50246  23259922.92048
  -5127821.08808  -3995699.63308  24352381.37508  24352383.24508         0.00001
 -21965289.66408 -17115785.85108  21171739.93408  21171740.67408         0.00001
   8018564.32448   6248239.37546         0.00041  23428583.43746  23428584.11148
 94 02 11 02 29 00.0000000  0  6 02 07 09 12 13 27
 -13023439.59849 -10148111.28247         0.00041  21393830.02547  21393830.09649
 -23701371.02549 -18468565.78648         0.00041  20588077.81848  20588077.72849
 -11048397.27048  -8609132.06146         0.00041  23242262.19046  23242261.18348
  -5219115.10108  -4066837.77308  24335008.65708  24335010.61908         0.00001
 -22030453.53608 -17166562.86008  21159339.65808  21159340.36108         0.00001
   8126036.76648   6331984.13846         0.00041  23449034.76246  23449035.48448
 94 02 11 02 29 30.0000000  0  6 02 07 09 12 13 27
 -12992872.34749 -10124292.63147         0.00041  21399646.88847  21399646.89349
 -23667999.24149 -18442561.78548         0.00041  20594428.32948  20594428.23649
 -11141396.48548  -8681598.93346         0.00041  23224564.26646  23224564.08948
  -5310782.77608  -4138267.08008  24317564.77708  24317566.84208         0.00001
 -22095463.18408 -17217219.69408  21146968.72708  21146969.40108         0.00001
   8233306.70248   6415571.08346         0.00041  23469447.80646  23469448.40048
 94 02 11 02 30 00.0000000  0  6 02 07 09 12 13 27
 -12961427.52249 -10099790.15547         0.00041  21405630.69047  21405630.66649
 -23633540.45849 -18415710.77248         0.00041  20600985.60848  20600985.62449
 -11233503.79148  -8753370.83246         0.00041  23207036.99946  23207036.55548
  -5401747.08908  -4209148.31308  24300254.70508  24300256.85508         0.00001
 -22159242.17108 -17266917.57308  21134831.94708  21134832.63708         0.00001
   8341458.62548   6499845.31246         0.00041  23490028.29246  23490028.81448
 94 02 11 02 30 30.0000000  0  6 02 07 09 12 13 27
 -12929707.06849 -10075072.90547         0.00041  21411666.85547  21411666.80449
 -23598614.43549 -18388495.67548         0.00041  20607631.84248  20607631.68749
 -11325329.92748  -8824923.61646         0.00041  23189562.56046  23189562.55948
  -5492617.39008  -4279956.28908  24282962.69508  24282964.69808         0.00001
 -22222399.90008 -17316131.35308  21122813.38708  21122814.08608         0.00001
   8449895.77048   6584341.78146         0.00041  23510663.79446  23510663.46848
 94 02 11 02 31 00.0000000  0  6 02 07 09 12 13 27
 -12897805.02849 -10050214.16447         0.00041  21417737.60547  21417737.58049
 -23563319.60849 -18360993.20148         0.00041  20614348.21748  20614348.10349
 -11416986.55748  -8896344.32446         0.00041  23172121.30546  23172120.95948
  -5583499.11008  -4350773.15508  24265668.48908  24265670.43408         0.00001
 -22285041.86508 -17364943.23908  21110892.98008  21110893.68308         0.00001
   8558531.45048   6668992.95246         0.00041  23531335.27246  23531336.17048
 94 02 11 02 31 30.0000000  0  6 02 07 09 12 13 27
 -12865735.53449 -10025224.93847         0.00041  21423840.17247  21423840.11149
 -23527671.24649 -18333215.24148         0.00041  20621131.80448  20621131.69949
 -11508496.76148  -8967650.93346         0.00041  23154707.77146  23154707.22748
  -5674413.39408  -4421615.38608  24248368.01308  24248369.87008         0.00001
 -22347189.62908 -17413370.03508  21099066.61108  21099067.34208         0.00001
   8667354.44548   6753790.07446         0.00041  23552044.91146  23552044.64448
 94 02 11 02 32 00.0000000  0  6 02 07 09 12 13 27
 -12833485.18949 -10000094.79047         0.00041  21429977.23447  21429977.26649
 -23491693.20949 -18305180.39548         0.00041  20627978.08348  20627978.05249
 -11599855.54948  -9038839.55646         0.00041  23137323.08646  23137322.14548
  -5765362.73808  -4492484.93508  24231060.88208  24231062.76308         0.00001
 -22408845.91508 -17461413.86208  21087333.79908  21087334.52108         0.00001
   8776350.42348   6838722.01646         0.00041  23572785.82746  23572785.89748
 94 02 11 02 32 30.0000000  0  6 02 07 09 12 13 27
 -12801041.82249  -9974814.23547         0.00041  21436151.01947  21436151.09349
 -23455377.66649 -18276882.55448         0.00041  20634888.69448  20634888.65549
 -11691058.67448  -9109906.87046         0.00041  23119966.32246  23119966.51248
  -5856341.46808  -4563377.38108  24213748.23808  24213749.93808         0.00001
 -22470005.32909 -17509070.51308  21075695.51309  21075696.23208         0.00001
   8885514.55848   6923784.95546         0.00041  23593560.18446  23593559.15348
 94 02 11 02 33 00.0000000  0  6 02 07 09 12 13 27
 -12768403.23349  -9949381.56147         0.00041  21442361.91147  21442361.93149
 -23418719.71049 -18248317.89848         0.00041  20641864.41548  20641864.38749
 -11782091.19348  -9180841.25846         0.00041  23102643.64146  23102643.55848
  -5947342.22008  -4634286.99008  24196431.29708  24196433.06708         0.00001
 -22530661.01109 -17556334.65008  21064153.09809  21064153.83808         0.00001
   8994858.23948   7008987.81146         0.00041  23614368.06646  23614366.63948
 94 02 11 02 33 30.0000000  0  6 02 07 09 12 13 27
 -12735573.43349  -9923799.89247         0.00041  21448609.34347  21448609.22049
 -23381721.75449 -18219488.30848         0.00041  20648904.85148  20648904.81449
 -11872937.07748  -9251630.20446         0.00041  23085356.12946  23085356.23748
  -6038356.46108  -4705207.11108  24179111.77908  24179113.60408         0.00001
 -22590804.58509 -17603199.74208  21052708.14009  21052708.86708         0.00001
   9104376.10148   7094326.40046         0.00041  23635207.45946  23635207.36448
 94 02 11 02 34 00.0000000  0  6 02 07 09 12 13 27
 -12702547.18249  -9898065.14247         0.00041  21454893.88847  21454893.90849
 -23344368.21949 -18190381.64548         0.00041  20656012.95848  20656012.93349
 -11963575.55248  -9322257.54146         0.00041  23068108.71346  23068108.26048
  -6129371.29408  -4776127.70008  24161792.20708  24161793.98208         0.00001
 -22650423.67809 -17649656.14908  21041362.96509  21041363.66408         0.00001
   9214080.36548   7179810.23746         0.00041  23656082.41246  23656083.25748
 94 02 11 02 34 30.0000000  0  6 02 07 09 12 13 27
 -12669343.64549  -9872192.24647         0.00041  21461212.29347  21461212.25049
 -23306656.30149 -18160995.72248         0.00041  20663189.34048  20663189.29049
 -12054008.38948  -9392724.64646         0.00041  23050900.03746  23050899.42448
  -6220391.38308  -4847052.38208  24144471.60008  24144473.31708         0.00001
 -22709523.61109 -17695708.01508  21030116.57009  21030117.27208         0.00001
   9323975.21548   7265442.58946         0.00041  23676995.80946  23676995.45348
 94 02 11 02 35 00.0000000  0  6 02 07 09 12 13 27
 -12635983.57349  -9846197.37947         0.00041  21467560.41847  21467560.33249
 -23268615.31449 -18131353.38248         0.00041  20670428.31348  20670428.36049
 -12144251.91148  -9463044.23646         0.00041  23033726.46446  23033726.76748
  -6311438.67308  -4917998.26508  24127145.90308  24127147.57908         0.00001
 -22768126.51909 -17741372.59008  21018964.80309  21018965.52408         0.00001
   9434039.09448   7351206.63446         0.00041  23697941.15846  23697940.18148
 94 02 11 02 35 30.0000000  0  6 02 07 09 12 13 27
 -12602438.87349  -9820058.64247         0.00041  21473943.62947  21473943.67549
 -23230221.50049 -18101436.11348         0.00041  20677734.50048  20677734.52149
 -12234284.45448  -9533199.42546         0.00041  23016594.29046  23016594.05048
  -6402482.53608  -4988941.47808  24109820.64508  24109822.50408         0.00001
 -22826202.52009 -17786626.58708  21007913.27709  21007913.97308         0.00001
   9544288.12448   7437114.94546         0.00041  23718920.77146  23718919.88448
 94 02 11 02 36 00.0000000  0  6 02 07 09 12 13 27
 -12568709.39549  -9793775.92447         0.00041  21480362.40447  21480362.33149
 -23191481.65349 -18071249.20748         0.00041  20685106.53148  20685106.44949
 -12324111.81648  -9603194.72646         0.00041  22999500.79746  22999500.63448
  -6493521.40708  -5059880.80008  24092496.54308  24092498.30108         0.00001
 -22883750.34909 -17831469.02308  20996962.25409  20996962.93108         0.00001
   9654719.85948   7523165.64646         0.00041  23739934.91846  23739934.20948
 94 02 11 02 36 30.0000000  0  6 02 07 09 12 13 27
 -12534792.84849  -9767347.43747         0.00041  21486816.33647  21486816.49149
 -23152409.41049 -18040803.29348         0.00041  20692541.60648  20692541.63849
 -12413749.78248  -9673042.44846         0.00041  22982442.65046  22982443.03948
  -6584557.20808  -5130817.73208  24075172.92408  24075174.72308         0.00001
 -22940772.56409 -17875901.89108  20986111.28809  20986111.94608         0.00001
   9765318.12848   7609346.11246         0.00041  23760980.71746  23760980.16948
 94 02 11 02 37 00.0000000  0  6 02 07 09 12 13 27
 -12500683.18049  -9740768.46847         0.00041  21493307.21047  21493307.38249
 -23113015.06749 -18010106.39248         0.00041  20700037.97748  20700038.06849
 -12503207.31948  -9742749.58846         0.00041  22965419.17346  22965419.64548
  -6675581.37408  -5201745.59608  24057851.55708  24057853.33908         0.00001
 -22997261.39209 -17919919.13208  20975361.78509  20975362.47508         0.00001
   9876075.43948   7695650.50746         0.00041  23782058.08946  23782056.64648
 94 02 11 02 37 30.0000000  0  6 02 07 09 12 13 27
 -12466379.67549  -9714038.45547         0.00041  21499835.17947  21499835.04049
 -23073291.60049 -17979153.03148         0.00041  20707597.21148  20707597.17049
 -12592469.26048  -9812304.30546         0.00041  22948434.12846  22948433.61548
  -6766585.07108  -5272657.51108  24040534.04308  24040535.82908         0.00001
 -23053208.65809 -17963514.37808  20964715.37009  20964716.01308         0.00001
   9986989.41048   7782076.96246         0.00041  23803162.86546  23803162.87148
 94 02 11 02 38 00.0000000  0  6 02 07 09 12 13 27
 -12431872.77249  -9687149.95147         0.00041  21506401.29647  21506401.57349
 -23033230.69549 -17947936.73248         0.00041  20715220.52048  20715220.53849
 -12681514.11648  -9881689.86246         0.00041  22931488.98946  22931488.85548
  -6857560.37708  -5343547.30008  24023222.01908  24023223.77308         0.00001
 -23108607.10009 -18006681.96808  20954173.38609  20954173.97308         0.00001
  10098064.85248   7868629.24546         0.00041  23824299.92846  23824299.88348
 94 02 11 02 38 30.0000000  0  6 02 07 09 12 13 27
 -12397164.54249  -9660104.56847         0.00041  21513006.10347  21513006.25449
 -22992840.45849 -17916463.81148         0.00041  20722906.52348  20722906.53349
 -12770335.21748  -9950901.08146         0.00041  22914586.62646  22914586.76448
  -6948509.74008  -5414416.86808  24005914.89908  24005916.56708         0.00001
 -23163459.53909 -18049424.10008  20943735.29009  20943735.91508         0.00001
  10209301.89448   7955307.44746         0.00041  23845468.65946  23845467.72248
 94 02 11 02 39 00.0000000  0  6 02 07 09 12 13 27
 -12362259.80149  -9632906.06247         0.00041  21519648.38447  21519648.30549
 -22952108.33849 -17884724.48848         0.00041  20730657.55248  20730657.49249
 -12858916.88648 -10019925.71146         0.00041  22897730.32746  22897730.16448
  -7039429.47308  -5485263.35208  23988613.35908  23988615.10308         0.00001
 -23217763.33309 -18091738.71708  20933401.59109  20933402.18608         0.00001
  10320708.98448   8042118.14546         0.00041  23866666.92746  23866667.74948
 94 02 11 02 39 30.0000000  0  6 02 07 09 12 13 27
 -12327161.86149  -9605557.00947         0.00041  21526327.15347  21526327.24949
 -22911033.20649 -17852717.88348         0.00041  20738473.92648  20738473.90949
 -12947256.35448 -10088761.62446         0.00041  22880919.27646  22880919.59648
  -7130328.56508  -5556093.75108  23971315.86208  23971317.48808         0.00001
 -23271528.34409 -18133633.50208  20923170.43309  20923171.01508         0.00001
  10432279.27748   8129056.02946         0.00041  23887899.14646  23887898.94948
 94 02 11 02 40 00.0000000  0  6 02 07 09 12 13 27
 -12291862.62149  -9578051.09847         0.00041  21533044.32547  21533044.49349
 -22869623.36249 -17820450.46148         0.00041  20746354.06748  20746354.04749
 -13035371.53548 -10157422.77146         0.00041  22864152.38946  22864152.01448
  -7221206.39008  -5626907.57708  23954022.37808  23954023.96508         0.00001
 -23324754.68209 -18175108.54408  20913041.80009  20913042.34808         0.00001
  10544012.39848   8216120.79546         0.00041  23909161.16346  23909161.16448
 94 02 11 02 40 30.0000000  0  6 02 07 09 12 13 27
 -12256363.78349  -9550389.65847         0.00041  21539799.41547  21539799.69949
 -22827872.12249 -17787917.01748         0.00041  20754298.92048  20754298.93749
 -13123269.72648 -10225914.82846         0.00041  22847425.56846  22847425.43048
  -7312060.18208  -5697702.67808  23936733.40608  23936734.92708         0.00001
 -23377440.46709 -18216162.37508  20903016.01409  20903016.57908         0.00001
  10655908.32548   8303312.40746         0.00041  23930455.18846  23930454.18048
 94 02 11 02 41 00.0000000  0  6 02 07 09 12 13 27
 -12220657.30249  -9522566.41847         0.00041  21546594.49547  21546594.45149
 -22785770.44649 -17755110.50348         0.00041  20762310.60848  20762310.63349
 -13210953.81648 -10294240.05346         0.00041  22830739.79746  22830739.69348
  -7402887.44608  -5768477.10408  23919449.50708  23919451.05408         0.00001
 -23429584.13909 -18256793.78108  20893093.38709  20893093.93108         0.00001
  10767955.47048   8390621.86346         0.00041  23951774.86546  23951776.21648
 94 02 11 02 41 30.0000000  0  6 02 07 09 12 13 27
 -12184733.75649  -9494574.03747         0.00041  21553430.38847  21553430.44749
 -22743339.43949 -17722047.37048         0.00041  20770384.98948  20770384.96449
 -13298429.87748 -10362403.17646         0.00041  22814093.85246  22814093.65248
  -7493688.53008  -5839231.12508  23902170.52608  23902172.04708         0.00001
 -23481186.99409 -18297003.77108  20883273.64009  20883274.17708         0.00001
  10880146.63348   8478043.54145         0.00041  23973124.41945  23973125.42348
 94 02 11 02 42 00.0000000  0  6 02 07 09 12 13 27
 -12148608.17949  -9466424.22847         0.00041  21560304.94047  21560304.91149
 -22700581.30349 -17688729.32748         0.00041  20778521.52448  20778521.57249
 -13385700.60448 -10430406.30246         0.00041  22797486.42846  22797486.48448
  -7584466.86508  -5909967.42008  23884895.85108  23884897.47908         0.00001
 -23532253.16709 -18336795.56708  20873556.05209  20873556.60408         0.00001
  10992483.38848   8565578.67446         0.00041  23994502.77146  23994502.41148
 94 02 11 02 42 30.0000000  0  6 02 07 09 12 13 27
 -12112272.18449  -9438110.45247         0.00041  21567219.34047  21567219.35449
 -22657464.47349 -17655131.78348         0.00041  20786726.40548  20786726.40849
 -13472730.02148 -10498221.39146         0.00041  22780925.39946  22780925.45148
  -7675197.82308  -5980666.80308  23867630.29708  23867631.80108         0.00001
 -23582759.45909 -18376151.09308  20863945.00409  20863945.57308         0.00001
  11104990.37748   8653246.45446         0.00041  24015910.86346  24015911.88648
 94 02 11 02 43 00.0000000  0  7 02 05 07 09 12 13 27
 -12075702.27149  -9409614.41047         0.00041  21574178.36347  21574178.42649
         0.06457         0.85054         0.00051  25388475.42054  25388473.53857
 -22613984.94249 -17621251.61748         0.00041  20795000.28748  20795000.33349
 -13559497.71648 -10565832.54046         0.00041  22764414.51546  22764413.88848
  -7765864.06108  -6051315.75908  23850377.10208  23850378.56208         0.00001
 -23632689.20509 -18415057.36308  20854443.69409  20854444.23908         0.00001
  11217682.05448   8741058.12246         0.00041  24037355.73846  24037356.29448
 94 02 11 02 43 30.0000000  0  7 02 05 07 09 12 13 27
 -12038949.87249  -9380976.16847         0.00041  21581171.87147  21581172.06749
    -77472.29547    -60367.02944         0.00041  25373738.93444  25373731.31347
 -22570189.23249 -17587125.07748         0.00041  20803334.24548  20803334.23549
 -13646024.43248 -10633255.91746         0.00041  22747948.51746  22747948.23548
  -7856502.26608  -6121942.87608  23833129.23008  23833130.58908         0.00001
 -23682080.30709 -18453543.91008  20845044.86009  20845045.36508         0.00001
  11330525.47848   8828988.06746         0.00041  24058829.69246  24058829.61748
 94 02 11 02 44 00.0000000  0  7 02 05 07 09 12 13 27
 -12002032.40449  -9352209.30147         0.00041  21588197.41347  21588197.26449
   -155010.70747   -120786.46144         0.00041  25358983.12244  25358976.12347
 -22526081.97549 -17552755.77448         0.00041  20811727.30848  20811727.54949
 -13732305.08248 -10700487.55246         0.00041  22731530.16546  22731529.73148
  -7947120.96708  -6192554.79208  23815884.97808  23815886.41308         0.00001
 -23730942.30109 -18491618.16708  20835746.71709  20835747.23708         0.00001
  11443499.14548   8917019.48446         0.00041  24080329.52046  24080327.89948
 94 02 11 02 44 30.0000000  0  6 02 07 09 12 13 27
 -11964925.12249  -9323294.52747         0.00041  21595258.60447  21595258.49749
 -22481664.80249 -17518144.97848         0.00041  20820179.88348  20820179.90549
 -13818324.40148 -10767515.55546         0.00041  22715161.03646  22715160.73448
  -8037705.73908  -6263140.27208  23798647.16808  23798648.67108         0.00001
 -23779261.93709 -18529269.80708  20826551.76209  20826552.30208         0.00001
  11556591.72048   9005143.54446         0.00041  24101848.64846  24101848.51748
 94 02 11 02 45 00.0000000  0  6 02 07 09 12 13 27
 -11927575.78549  -9294191.14047         0.00041  21602365.84647  21602365.92149
 -22436919.09149 -17483278.18048         0.00041  20828694.76048  20828694.81849
 -13904045.79848 -10834311.40446         0.00041  22698848.34646  22698848.34348
  -8128222.02808  -6333672.39208  23781422.48208  23781423.99208         0.00001
 -23827005.81809 -18566472.80708  20817466.36509  20817466.92008         0.00001
  11669832.73548   9093383.30346         0.00041  24123397.83546  24123397.41348
 94 02 11 02 45 30.0000000  0  6 02 07 09 12 13 27
 -11890035.12349  -9264938.66647         0.00041  21609509.80347  21609509.64449
 -22391889.39049 -17448190.09248         0.00041  20837263.52948  20837263.55849
 -13989513.20548 -10900909.35446         0.00041  22682584.69546  22682584.46948
  -8218715.84908  -6404187.00508  23764202.01008  23764203.51708         0.00001
 -23874221.17909 -18603263.97308  20808481.55009  20808482.13808         0.00001
  11783171.77048   9181699.40746         0.00041  24144965.53946  24144965.31148
 94 02 11 02 46 00.0000000  0  6 02 07 09 12 13 27
 -11852265.64349  -9235507.89547         0.00041  21616697.01247  21616696.87649
 -22346559.38949 -17412868.00548         0.00041  20845889.42948  20845889.52649
 -14074724.87548 -10967308.01946         0.00041  22666369.12346  22666369.17148
  -8309165.03308  -6474666.84008  23746990.15708  23746991.55608         0.00001
 -23920887.12409 -18639627.02208  20799601.28809  20799601.87008         0.00001
  11896629.09348   9270107.71246         0.00041  24166556.17746  24166555.63548
 94 02 11 02 46 30.0000000  0  7 02 05 07 09 12 13 27
 -11814244.61149  -9205881.10847         0.00041  21623931.87647  21623932.13449
        -0.07658         0.10254         0.00051  25285069.56954  25285065.55358
 -22300912.64949 -17377299.10848         0.00041  20854575.73348  20854575.90849
 -14159667.26748 -11033496.85646         0.00041  22650204.99346  22650205.29148
  -8399544.03508  -6545091.98508  23729791.52808  23729793.01708         0.00001
 -23966979.23909 -18675542.93108  20790830.24909  20790830.81508         0.00001
  12010237.33448   9358633.61046         0.00041  24188173.67746  24188174.49748
 94 02 11 02 47 00.0000000  0  7 02 05 07 09 12 13 27
 -11775992.94049  -9176074.60247         0.00041  21631210.98247  21631211.19349
    -77760.69148    -60592.61844         0.00041  25270269.40044  25270268.00348
 -22254962.71649 -17341493.95648         0.00041  20863319.79248  20863319.89249
 -14244360.11848 -11099491.25546         0.00041  22634088.69646  22634088.59248
  -8489866.28708  -6615472.90408  23712603.72008  23712605.26708         0.00001
 -24012512.60709 -18711023.45208  20782165.50009  20782166.09708         0.00001
  12123989.88148   9447271.92545         0.00041  24209822.10645  24209821.02748
 94 02 11 02 47 30.0000000  0  7 02 05 07 09 12 13 27
 -11737533.74349  -9146106.38847         0.00041  21638529.35147  21638529.74249
   -155536.54948   -121197.11744         0.00041  25255464.32944  25255467.40748
 -22208710.94449 -17305453.60548         0.00041  20872121.17048  20872121.34149
 -14328796.48248 -11165285.78746         0.00041  22618020.57546  22618020.74148
  -8580131.92108  -6685809.71108  23695426.62308  23695428.19708         0.00001
 -24057488.45509 -18746069.54408  20773606.87309  20773607.41608         0.00001
  12237876.60648   9536014.81045         0.00041  24231492.10345  24231493.12048
 94 02 11 02 48 00.0000000  0  7 02 05 07 09 12 13 27
 -11698885.07549  -9115990.53347         0.00041  21645884.21847  21645884.27849
   -233352.92648   -181833.21644         0.00041  25240658.66644  25240659.67948
 -22162166.94549 -17269185.54548         0.00041  20880978.29048  20880978.32349
 -14412990.66548 -11230891.61146         0.00041  22601999.22546  22601999.23648
  -8670348.10908  -6756107.98908  23678259.01408  23678260.48308         0.00001
 -24101915.24209 -18780687.79608  20765152.70209  20765153.26308         0.00001
  12351891.14548   9624857.31246         0.00041  24253190.57946  24253189.21648
 94 02 11 02 48 30.0000000  0  7 02 05 07 09 12 13 27
 -11660057.56049  -9085735.32247         0.00041  21653272.66147  21653272.94349
   -311200.44348   -242493.48944         0.00041  25225844.86144  25225846.13148
 -22115315.94149 -17232678.25848         0.00041  20889893.79948  20889893.77749
 -14496920.12748 -11296291.15046         0.00041  22586028.22946  22586028.19748
  -8760504.36408  -6826359.55508  23661102.86008  23661104.24108         0.00001
 -24145783.93009 -18814871.16608  20756804.73809  20756805.31508         0.00001
  12466042.17148   9713806.11946         0.00041  24274911.89046  24274911.70048
 94 02 11 02 49 00.0000000  0  7 02 05 07 09 12 13 27
 -11621060.16749  -9055347.73947         0.00041  21660693.75347  21660693.92549
   -389088.89548   -303185.72044         0.00041  25211022.38644  25211024.14548
 -22068160.96149 -17195934.10748         0.00041  20898866.92548  20898866.99049
 -14580584.13048 -11361483.85146         0.00041  22570107.66546  22570107.35048
  -8850610.09008  -6896571.75008  23643956.18808  23643957.64208         0.00001
 -24189105.65109 -18848628.32708  20748560.87609  20748561.42808         0.00001
  12580322.12248   9802855.40946         0.00041  24296658.30246  24296658.27348
 94 02 11 02 49 30.0000000  0  7 02 05 07 09 12 13 27
 -11581888.00049  -9024823.96547         0.00041  21668148.07047  21668148.11849
   -467038.57948   -363925.60044         0.00041  25196195.02944  25196190.74348
 -22020698.01449 -17158949.98148         0.00041  20907898.79148  20907898.73949
 -14663968.28648 -11426458.48346         0.00041  22554239.65446  22554239.93548
  -8940660.76808  -6966741.04808  23626820.16108  23626821.50508         0.00001
 -24231877.09709 -18881956.70308  20740421.71609  20740422.30908         0.00001
  12694741.45248   9892013.33246         0.00041  24318431.77546  24318431.35848
 94 02 11 02 50 00.0000000  0  7 02 05 07 09 12 13 27
 -11542529.02349  -8994154.63047         0.00041  21675637.72547  21675637.79749
   -545048.69648   -424712.59644         0.00041  25181348.75844  25181345.73648
 -21972919.06649 -17121719.62448         0.00041  20916990.76048  20916990.87849
 -14747080.53748 -11491221.24146         0.00041  22538423.73746  22538424.19848
  -9030655.17608  -7036866.49708  23609694.70908  23609696.15908         0.00001
 -24274098.49709 -18914856.47108  20732387.25109  20732387.80308         0.00001
  12809296.47048   9981276.94946         0.00041  24340231.92146  24340230.61148
 94 02 11 02 50 30.0000000  0  7 02 05 07 09 12 13 27
 -11502964.22049  -8963324.91047         0.00041  21683166.51747  21683166.83649
   -623099.89948   -485531.65645         0.00041  25166493.60745  25166492.84948
 -21924819.65549 -17084239.55248         0.00041  20926143.87248  20926143.97949
 -14829902.29848 -11555757.65046         0.00041  22522663.29946  22522663.56648
  -9120578.35108  -7106936.44508  23592582.93108  23592584.26308         0.00001
 -24315756.50409 -18947317.23208  20724459.98009  20724460.51808         0.00001
  12923982.54948  10070642.70245         0.00041  24362054.52845  24362054.66948
 94 02 11 02 51 00.0000000  0  7 02 05 07 09 12 13 27
 -11463181.06249  -8932325.04247         0.00041  21690737.26847  21690737.40949
   -701197.64148   -546386.91344         0.00041  25151630.76944  25151631.52648
 -21876411.41449 -17046518.83448         0.00041  20935355.69048  20935355.74049
 -14912437.22448 -11620070.54846         0.00041  22506957.38146  22506957.80448
  -9210435.16308  -7176954.67908  23575483.71208  23575484.94708         0.00001
 -24356857.66209 -18979344.08608  20716638.67009  20716639.19408         0.00001
  13038781.41048  10160096.33646         0.00041  24383899.96546  24383900.23148
 94 02 11 02 51 30.0000000  0  7 02 05 07 09 12 13 27
 -11423188.90149  -8901162.31647         0.00041  21698347.27747  21698347.54849
   -779350.30648   -607285.00745         0.00041  25136758.13345  25136759.78148
 -21827712.31049 -17008571.47148         0.00041  20944622.66848  20944622.70449
 -14994696.47648 -11684168.63246         0.00041  22491304.30346  22491304.39948
  -9300233.37008  -7246927.25008  23558395.57208  23558396.88208         0.00001
 -24397411.33309 -19010944.32508  20708921.55809  20708922.08108         0.00001
  13153671.28548  10249620.89546         0.00041  24405762.14446  24405763.30648
 94 02 11 02 52 00.0000000  0  7 02 05 07 09 12 13 27
 -11382982.91649  -8869832.97347         0.00041  21705998.24547  21705998.49149
   -857542.77848   -668214.11645         0.00041  25121879.14445  25121879.98448
 -21778735.12549 -16970407.42348         0.00041  20953942.72448  20953942.81349
 -15076685.67448 -11748056.27546         0.00041  22475702.06046  22475702.24848
  -9389970.93908  -7316852.57108  23541318.96308  23541320.33208         0.00001
 -24437417.07709 -19042117.60808  20701308.71009  20701309.19708         0.00001
  13268629.39948  10339198.61546         0.00041  24427638.85446  24427639.02948
 94 02 11 02 52 30.0000000  0  7 02 05 07 09 12 13 27
 -11342535.40649  -8838315.43047         0.00041  21713695.27247  21713695.38749
   -935743.20748   -729149.42945         0.00041  25107000.05845  25106998.91648
 -21729472.03549 -16932020.59248         0.00041  20963317.21948  20963317.31949
 -15158375.24248 -11811710.45346         0.00041  22460157.03746  22460157.15848
  -9479620.46308  -7386709.29208  23524259.25308  23524260.53008         0.00001
 -24476849.16309 -19072843.88708  20693805.01609  20693805.51308         0.00001
  13383683.60648  10428851.21346         0.00041  24449532.61146  24449533.26948
 94 02 11 02 53 00.0000000  0  7 02 05 07 09 12 13 27
 -11301840.93649  -8806605.45047         0.00041  21721438.83847  21721439.31049
  -1013950.79148   -790090.35245         0.00041  25092119.94745  25092116.40748
 -21679926.11349 -16893413.37648         0.00041  20972745.63248  20972745.68149
 -15239762.02048 -11875128.68546         0.00041  22444669.87446  22444669.72848
  -9569179.27908  -7456495.33708  23507216.69208  23507218.03908         0.00001
 -24515706.64409 -19103122.42008  20686410.65309  20686411.15808         0.00001
  13498842.95148  10518585.75545         0.00041  24471446.47245  24471446.98848
 94 02 11 02 53 30.0000000  0  7 02 05 07 09 12 13 27
 -11260921.34749  -8774720.05047         0.00041  21729225.79147  21729226.07149
  -1092184.70348   -851051.70945         0.00041  25077229.29045  25077228.84848
 -21630117.27449 -16854601.29048         0.00041  20982223.67348  20982223.94049
 -15320863.50148 -11938324.61646         0.00041  22429236.30446  22429236.65048
  -9658659.25508  -7526219.95108  23490189.20108  23490190.47608         0.00001
 -24554003.22109 -19132963.88608  20679123.02609  20679123.55308         0.00001
  13614089.13048  10608387.94546         0.00041  24493376.53346  24493377.87048
 94 02 11 02 54 00.0000000  0  7 02 05 07 09 12 13 27
 -11219779.55149  -8742661.50647         0.00041  21737054.70047  21737055.08949
  -1170441.34048   -912030.84645         0.00041  25062336.94645  25062336.95248
 -21580047.24749 -16815585.68148         0.00041  20991751.76448  20991751.87849
 -15401693.01048 -12001308.61246         0.00041  22413855.03246  22413855.31448
  -9748060.24508  -7595883.01808  23473176.79008  23473178.07308         0.00001
 -24591740.52309 -19162369.55408  20671941.87809  20671942.35908         0.00001
  13729407.51948  10698246.39246         0.00041  24515321.92646  24515322.10848
 94 02 11 02 54 30.0000000  0  7 02 05 07 09 12 13 27
 -11178411.49449  -8710426.65147         0.00041  21744926.94547  21744927.18449
  -1248711.00148   -973020.14345         0.00041  25047442.25845  25047442.77048
 -21529698.23849 -16776352.68348         0.00041  21001332.78148  21001332.91649
 -15482237.69448 -12064070.67146         0.00041  22398527.70346  22398528.07848
  -9837373.37108  -7665477.62208  23456181.01408  23456182.26408         0.00001
 -24628911.49909 -19191333.92908  20664868.46809  20664868.93308         0.00001
  13844818.06248  10788176.63145         0.00041  24537285.64245  24537284.02148
 94 02 11 02 55 00.0000000  0  7 02 05 07 09 12 13 27
 -11136814.89949  -8678013.71847         0.00041  21752842.52447  21752842.81149
  -1327005.37148  -1034028.65145         0.00041  25032544.43945  25032543.74648
 -21479057.34149 -16736892.24248         0.00041  21010969.68248  21010969.65949
 -15562482.42848 -12126599.00446         0.00041  22383257.90746  22383257.90248
  -9926592.39308  -7734998.90108  23439203.19408  23439204.44508         0.00001
 -24665511.74909 -19219853.58208  20657903.66309  20657904.10608         0.00001
  13960323.42848  10878180.80646         0.00041  24559266.87846  24559264.10448
 94 02 11 02 55 30.0000000  0  7 02 05 07 09 12 13 27
 -11095001.62749  -8645431.94347         0.00041  21760799.22147  21760799.55549
  -1405338.95548  -1095067.75545         0.00041  25017641.90245  25017637.28948
 -21428128.37749 -16697207.33348         0.00041  21020661.00648  21020661.14149
 -15642434.35848 -12188899.18146         0.00041  22368043.49946  22368043.61748
 -10015727.24708  -7804454.59408  23422241.33708  23422242.54508         0.00001
 -24701553.05109 -19247937.68908  20651045.19509  20651045.64408         0.00001
  14075917.89448  10968254.37746         0.00041  24581262.33546  24581260.88148
 94 02 11 02 56 00.0000000  0  7 02 05 07 09 12 13 27
 -11052959.66449  -8612671.96747         0.00041  21768799.58347  21768799.88949
  -1483698.43748  -1156127.08345         0.00041  25002727.53145  25002726.05548
 -21376899.31749 -16657288.58248         0.00041  21030409.65748  21030409.62949
 -15722065.90448 -12250949.70546         0.00041  22352890.09846  22352890.22548
 -10104760.55708  -7873831.16108  23405298.78508  23405300.07008         0.00001
 -24737020.04909 -19275574.28708  20644296.02609  20644296.46708         0.00001
  14191630.50848  11058420.02745         0.00041  24603280.70645  24603280.39648
 94 02 11 02 56 30.0000000  0  7 02 05 07 09 12 13 27
 -11010718.56949  -8579756.82747         0.00041  21776837.50447  21776838.08249
  -1562121.54748  -1217235.90045         0.00041  24987803.63445  24987802.66148
 -21325393.53549 -16617154.20348         0.00041  21040210.63748  21040210.82549
 -15801379.89048 -12312752.77546         0.00041  22337796.71246  22337797.19948
 -10193716.73508  -7943147.62208  23388370.98808  23388372.24908         0.00001
 -24771938.90509 -19302783.76208  20637651.18309  20637651.58608         0.00001
  14307459.92948  11148676.68545         0.00041  24625323.09645  24625321.81048
 94 02 11 02 57 00.0000000  0  7 02 05 07 09 12 13 27
 -10968281.95449  -8546689.32947         0.00041  21784913.20647  21784913.46849
  -1640615.46748  -1278399.94745         0.00041  24972866.20945  24972865.69248
 -21273625.81649 -16576815.71848         0.00041  21050061.95448  21050061.97049
 -15880376.37448 -12374308.44946         0.00041  22322764.34746  22322764.69648
 -10282598.63008  -8012406.20208  23371457.30208  23371458.56108         0.00001
 -24806314.70309 -19329570.07508  20631109.68309  20631110.08208         0.00001
  14423403.16648  11239022.03245         0.00041  24647385.85345  24647385.25148
 94 02 11 02 57 30.0000000  0  7 02 05 07 09 12 13 27
 -10925632.93949  -8513456.33147         0.00041  21793029.37147  21793029.38149
  -1719142.95548  -1339590.10846         0.00041  24957922.06746  24957922.00648
 -21221579.31749 -16536260.00048         0.00041  21059966.03748  21059966.10949
 -15959041.62848 -12435606.02046         0.00041  22307794.78046  22307795.10948
 -10371384.64208  -8081590.06108  23354561.82108  23354563.10508         0.00001
 -24840127.76109 -19355917.89008  20624675.23609  20624675.60508         0.00001
  14539469.10548  11329463.00145         0.00041  24669470.73845  24669471.79048
 94 02 11 02 58 00.0000000  0  7 02 05 07 09 12 13 27
 -10882796.53649  -8480077.31347         0.00041  21801180.52147  21801180.84849
  -1797718.16748  -1400817.59445         0.00041  24942971.97245  24942969.89248
 -21169283.47449 -16495509.98948         0.00041  21069917.58248  21069917.62649
 -16037386.48548 -12496653.94047         0.00041  22292886.41547  22292886.65048
 -10460090.86508  -8150711.74508  23337681.59708  23337682.76308         0.00001
 -24873396.23209 -19381841.35108  20618344.43409  20618344.82708         0.00001
  14655623.31048  11419972.74245         0.00041  24691574.39545  24691575.26548
 94 02 11 02 58 30.0000000  0  7 02 05 07 09 12 13 27
 -10839775.17049  -8446554.16947         0.00041  21809367.55347  21809367.66849
  -1876347.47848  -1462087.17345         0.00041  24928009.23745  24928007.49348
 -21116749.17349 -16454574.16648         0.00041  21079914.62148  21079914.59449
 -16115423.56248 -12557462.02147         0.00041  22278036.52747  22278036.69848
 -10548720.93408  -8219774.08408  23320815.80908  23320817.00108         0.00001
 -24906125.92809 -19407344.99008  20612116.14509  20612116.56408         0.00001
  14771843.11448  11510533.59245         0.00041  24713690.79845  24713691.23448
 94 02 11 02 59 00.0000000  0  7 02 05 07 09 12 13 27
 -10796545.20249  -8412868.47847         0.00041  21817593.95147  21817593.93649
  -1955015.25548  -1523386.67645         0.00041  24913037.64345  24913037.44148
 -21063975.51049 -16413451.82648         0.00041  21089957.02348  21089957.07349
 -16193144.39048 -12618023.68747         0.00041  22263246.60447  22263246.99648
 -10637257.41008  -8288763.48908  23303967.87708  23303969.02008         0.00001
 -24938301.36709 -19432416.74108  20605993.32809  20605993.74808         0.00001
  14888121.31848  11601139.96745         0.00041  24735819.35745  24735817.94848
 94 02 11 02 59 30.0000000  0  7 02 05 07 09 12 13 27
 -10753102.01949  -8379016.64447         0.00041  21825860.62147  21825860.72649
  -2033707.02148  -1584704.91745         0.00041  24898066.28345  24898062.91848
 -21010948.54149 -16372132.10548         0.00041  21100047.62148  21100047.70249
 -16270529.27348 -12678323.57447         0.00041  22248520.67847  22248521.02948
 -10725677.94708  -8357662.54808  23287141.97308  23287143.11008         0.00001
 -24969902.60309 -19457041.06108  20599979.79709  20599980.23008         0.00001
  15004465.36248  11691797.63045         0.00041  24757959.41645  24757957.80448
 94 02 11 03 00 00.0000000  0  7 02 05 07 09 12 13 27
 -10709452.62349  -8345004.12547         0.00041  21834166.78847  21834167.03949
  -2112444.82748  -1646059.02945         0.00041  24883081.65245  24883079.58848
 -20957685.61049 -16330628.51548         0.00041  21110183.25948  21110183.35749
 -16347595.62348 -12738375.24847         0.00041  22233855.42947  22233855.68848
 -10813990.96808  -8426477.82808  23270336.50908  23270337.66708         0.00001
 -25000939.95409 -19481225.99108  20594073.58709  20594074.00308         0.00001
  15120879.26448  11782509.73645         0.00041  24780110.18145  24780110.44648
 94 02 11 03 00 30.0000000  0  7 02 05 07 09 12 13 27
 -10665569.71649  -8310809.65247         0.00041  21842517.65047  21842517.77749
  -2191208.11648  -1707432.98745         0.00041  24868092.75045  24868091.25348
 -20904156.42249 -16288917.45648         0.00041  21120369.51448  21120369.64549
 -16424336.88348 -12798173.60547         0.00041  22219252.17347  22219252.35448
 -10902177.76308  -8495194.75008  23253555.09308  23253556.17708         0.00001
 -25031397.21509 -19504958.90408  20588277.73909  20588278.17908         0.00001
  15237381.32848  11873290.53345         0.00041  24802281.84245  24802280.34148
 94 02 11 03 01 00.0000000  0  7 02 05 07 09 12 13 27
 -10621454.64349  -8276434.27247         0.00041  21850912.42947  21850912.52949
  -2269996.81348  -1768826.77945         0.00041  24853098.51345  24853098.00148
 -20850354.08449 -16246993.55248         0.00041  21130607.59048  21130607.89449
 -16500765.44548 -12857728.30747         0.00041  22204708.10947  22204708.32148
 -10990246.22208  -8563819.46608  23236796.14608  23236797.26408         0.00001
 -25061284.25009 -19528247.48308  20582590.42909  20582590.83508         0.00001
  15353961.87348  11964132.45645         0.00041  24824464.77245  24824464.74048
 94 02 11 03 01 30.0000000  0  7 02 05 07 09 12 13 27
 -10577104.14849  -8241875.44147         0.00041  21859352.08547  21859352.07849
  -2348812.43848  -1830241.58146         0.00041  24838100.79546  24838099.66748
 -20796267.17349 -16204847.90748         0.00041  21140900.00648  21140900.16549
 -16576885.32848 -12917042.47947         0.00041  22190222.97547  22190223.23448
 -11078199.69308  -8632354.58408  23220059.15508  23220060.25108         0.00001
 -25090606.91709 -19551096.29708  20577010.47009  20577010.87308         0.00001
  15470612.43448  12055028.97945         0.00041  24846661.98245  24846662.90648
 94 02 11 03 02 00.0000000  0  7 02 05 07 09 12 13 27
 -10532511.69049  -8207128.06847         0.00041  21867837.72547  21867837.81949
  -2427665.93148  -1891685.70145         0.00041  24823093.71345  24823094.65048
 -20741897.38349 -16162481.83548         0.00041  21151246.52848  21151246.47549
 -16652705.24448 -12976122.91547         0.00041  22175795.08347  22175795.17648
 -11166050.60808  -8700809.79508  23203341.59408  23203342.72408         0.00001
 -25119379.95109 -19573516.82508  20571535.13909  20571535.51808         0.00001
  15587317.98448  12145968.32045         0.00041  24868872.98945  24868870.86348
 94 02 11 03 02 30.0000000  0  7 02 05 07 09 12 13 27
 -10487684.40749  -8172197.71747         0.00041  21876368.01347  21876368.08649
  -2506555.45248  -1953157.99945         0.00041  24808083.09445  24808082.68348
 -20687242.14249 -16119893.33748         0.00041  21161646.68148  21161646.98949
 -16728210.63548 -13034958.25847         0.00041  22161426.42247  22161426.92948
 -11253799.13908  -8769185.23108  23186643.55208  23186644.71308         0.00001
 -25147605.67409 -19595510.87808  20566163.93509  20566164.33508         0.00001
  15704057.40148  12236934.08245         0.00041  24891084.81345  24891085.81148
 94 02 11 03 03 00.0000000  0  7 02 05 07 09 12 13 27
 -10442623.94749  -8137085.66747         0.00041  21884942.63147  21884942.91349
  -2585473.82648  -2014652.78145         0.00041  24793068.39845  24793064.78448
 -20632304.70249 -16077084.94448         0.00041  21172101.38048  21172101.37849
 -16803370.98448 -13093524.74047         0.00041  22147124.23247  22147124.50048
 -11341437.11108  -8837474.52108  23169966.51408  23169967.71608         0.00001
 -25175278.56909 -19617074.15608  20560897.94109  20560898.36808         0.00001
  15820835.57548  12327930.04845         0.00041  24913308.45745  24913307.89248
 94 02 11 03 03 30.0000000  0  7 02 05 07 09 12 13 27
 -10397345.84349  -8101804.02347         0.00041  21893558.90547  21893558.94449
  -2664425.10048  -2076173.16445         0.00041  24778040.66145  24778040.66148
 -20577106.96849 -16034073.72048         0.00041  21182604.86548  21182604.98349
 -16878171.11848 -13151810.53947         0.00041  22132890.01747  22132890.50648
 -11428959.85508  -8905674.03208  23153311.51008  23153312.65208         0.00001
 -25202396.27909 -19638204.82108  20555737.60909  20555738.03508         0.00001
  15937660.22348  12418962.18845         0.00041  24935538.25545  24935538.87848
 94 02 11 03 04 00.0000000  0  7 02 05 07 09 12 13 27
 -10351874.57249  -8066371.85947         0.00041  21902211.34647  21902211.83649
  -2743400.76048  -2137712.58045         0.00041  24763013.91445  24763012.33948
 -20521666.53149 -15990873.38248         0.00041  21193154.92948  21193155.01149
 -16952605.07248 -13209811.00547         0.00041  22118725.63147  22118726.21748
 -11516368.46908  -8973784.61608  23136678.21108  23136679.35408         0.00001
 -25228962.29109 -19658905.59208  20550682.24609  20550682.65208         0.00001
  16054540.58148  12510037.79345         0.00041  24957780.31445  24957780.46248
 94 02 11 03 04 30.0000000  0  7 02 05 07 09 12 13 27
 -10306205.02949  -8030785.20147         0.00041  21910902.37447  21910902.56549
  -2822397.27648  -2199268.21145         0.00041  24747981.47045  24747979.77148
 -20465985.29349 -15947485.40148         0.00041  21203750.65048  21203750.70849
 -17026661.14948 -13267517.01947         0.00041  22104633.42147  22104633.77648
 -11603651.56408  -9041797.40008  23120068.77708  23120069.90408         0.00001
 -25254968.03309 -19679169.79008  20545733.50809  20545733.88108         0.00001
  16171490.63548  12601167.65745         0.00041  24980036.33945  24980035.56348
 94 02 11 03 05 00.0000000  0  7 02 05 07 09 12 13 27
 -10260324.54449  -7995034.16947         0.00041  21919633.05847  21919633.34449
  -2901423.00948  -2260846.60345         0.00041  24732941.99945  24732941.33048
 -20410074.85249 -15903918.82148         0.00041  21214390.00648  21214390.15049
 -17100340.97148 -13324929.84847         0.00041  22090612.68747  22090612.99048
 -11690807.33108  -9109710.97008  23103483.57408  23103484.66808         0.00001
 -25280413.71409 -19698997.57708  20540891.35809  20540891.71908         0.00001
  16288511.44948  12692352.70945         0.00041  25002303.25945  25002303.82148
 94 02 11 03 05 30.0000000  0  7 02 05 07 09 12 13 27
 -10214233.36749  -7959118.96247         0.00041  21928403.73647  21928404.10449
  -2980498.51248  -2322463.80545         0.00041  24717896.65245  24717893.59948
 -20353948.12649 -15860183.70848         0.00041  21225070.53648  21225070.69049
 -17173664.46648 -13382065.02247         0.00041  22076659.49147  22076659.92748
 -11777837.40208  -9177526.59808  23086922.29408  23086923.41108         0.00001
 -25305303.84509 -19718392.46908  20536154.93809  20536155.28108         0.00001
  16405604.53148  12783594.05245         0.00041  25024587.64145  25024585.79448
 94 02 11 03 06 00.0000000  0  7 02 05 07 09 12 13 27
 -10167908.42649  -7923021.60047         0.00041  21937218.84047  21937219.59349
  -3059622.39348  -2384118.70145         0.00041  24702838.16745  24702836.70148
 -20297589.68949 -15816268.04448         0.00041  21235795.25948  21235795.24649
 -17246631.75548 -13438922.63047         0.00041  22062774.36347  22062774.68848
 -11864736.75108  -9245240.36708  23070385.92608  23070387.00008         0.00001
 -25329635.97509 -19737352.55308  20531524.67909  20531525.00108         0.00001
  16522762.59648  12874886.04045         0.00041  25046879.61345  25046880.23948
 94 02 11 03 06 30.0000000  0  7 02 05 07 09 12 13 27
 -10121339.68949  -7886734.27047         0.00041  21946080.96247  21946081.23149
  -3138819.47748  -2445830.61745         0.00041  24687766.42145  24687766.08548
 -20241008.91449 -15772179.12548         0.00041  21246562.24948  21246562.33749
 -17319259.67048 -13495515.79547         0.00041  22048953.41447  22048953.98148
 -11951510.38808  -9312856.17708  23053873.45408  23053874.49908         0.00001
 -25353417.61509 -19755883.68708  20526999.16009  20526999.48708         0.00001
  16639959.40948  12966208.18844         0.00041  25069180.70944  25069182.13248
 94 02 11 03 07 00.0000000  0  7 02 05 07 09 12 13 27
 -10074524.51949  -7850254.92147         0.00041  21954989.39447  21954989.85249
  -3218066.89848  -2507581.76545         0.00041  24672686.22245  24672685.49248
 -20184200.44849 -15727912.78648         0.00041  21257372.42648  21257372.67449
 -17391548.90948 -13551845.05647         0.00041  22035197.56247  22035197.85048
 -12038146.44908  -9380364.78608  23037387.10908  23037388.21208         0.00001
 -25376639.45009 -19773978.60908  20522580.17509  20522580.50108         0.00001
  16757197.75848  13057562.66545         0.00041  25091493.74145  25091491.95848
 94 02 11 03 07 30.0000000  0  7 02 05 07 09 12 13 27
 -10027467.64249  -7813587.22747         0.00041  21963943.92847  21963944.36449
  -3297341.00748  -2569353.74445         0.00041  24657598.99245  24657599.98348
 -20127150.55749 -15683458.32348         0.00041  21268228.72948  21268228.84549
 -17463485.84348 -13607899.79447         0.00041  22021508.40247  22021508.73148
 -12124628.55608  -9447753.43008  23020930.10708  23020931.21208         0.00001
 -25399288.06309 -19791626.86508  20518270.27009  20518270.63008         0.00001
  16874498.47348  13148965.82344         0.00041  25113818.55644  25113813.57648
 94 02 11 03 08 00.0000000  0  7 02 05 07 09 12 13 27
  -9980183.58949  -7776742.51247         0.00041  21972942.22047  21972942.42249
  -3376638.23048  -2631143.69545         0.00041  24642513.17145  24642510.23648
 -20069866.32749 -15638821.25948         0.00041  21279129.55448  21279129.73349
 -17535066.01448 -13663676.53347         0.00041  22007887.15747  22007887.47748
 -12210963.35308  -9515027.28408  23004501.07608  23004502.18008         0.00001
 -25421372.80709 -19808835.74508  20514067.67909  20514068.01208         0.00001
  16991840.69348  13240401.30244         0.00041  25136142.62144  25136142.99648
 94 02 11 03 08 30.0000000  0  7 02 05 07 09 12 13 27
  -9932700.40048  -7739742.62947         0.00041  21981977.83547  21981978.12848
  -3455971.01048  -2692961.38645         0.00041  24627414.71245  24627413.77248
 -20012366.36849 -15594016.08848         0.00041  21290071.41148  21290071.58949
 -17606293.11549 -13719178.14947         0.00041  21994332.72847  21994333.33949
 -12297162.45208  -9582195.39608  22988097.97908  22988099.08508         0.00001
 -25442907.93609 -19825616.35308  20509969.68009  20509970.04008         0.00001
  17109219.38848  13331865.20744         0.00041  25158482.00444  25158479.42048
 94 02 11 03 09 00.0000000  0  7 02 05 07 09 12 13 27
  -9885024.45348  -7702592.54147         0.00041  21991050.18547  21991050.50448
  -3535320.49748  -2754792.09545         0.00041  24612315.78845  24612313.76248
 -19954651.74049 -15549043.64748         0.00041  21301054.20448  21301054.31149
 -17677149.88949 -13774391.20647         0.00041  21980849.37647  21980849.83749
 -12383221.88908  -9649254.67308  22971721.41408  22971722.49108         0.00001
 -25463892.25109 -19841967.75708  20505976.47009  20505976.79808         0.00001
  17226636.89248  13423359.31844         0.00041  25180823.17244  25180823.13748
 94 02 11 03 09 30.0000000  0  7 02 05 07 09 12 13 27
  -9837133.09248  -7665274.60347         0.00041  22000163.59147  22000163.78648
  -3614682.64248  -2816632.68145         0.00041  24597213.80045  24597211.75448
 -19896703.18349 -15503888.92348         0.00041  21312081.39748  21312081.52749
 -17747599.53449 -13829287.01447         0.00041  21967442.86247  21967443.55049
 -12469125.24108  -9716192.32008  22955374.51908  22955375.56008         0.00001
 -25484312.18109 -19857879.38008  20502090.68009  20502091.03108         0.00001
  17344090.82748  13514881.88144         0.00041  25203177.57244  25203173.99348
 94 02 11 03 10 00.0000000  0  7 02 05 07 09 12 13 27
  -9789026.88248  -7627789.24747         0.00041  22009318.10047  22009318.19048
  -3694080.90448  -2878501.38645         0.00041  24582104.14845  24582102.75448
 -19838540.57249 -15458567.40348         0.00041  21323149.65448  21323149.61949
 -17817659.60749 -13883879.25747         0.00041  21954111.24947  21954111.65049
 -12554889.40208  -9783021.50208  22939054.10608  22939055.18108         0.00001
 -25504187.30909 -19873366.48308  20498308.55109  20498308.90808         0.00001
  17461538.05948  13606399.16244         0.00041  25225522.96244  25225523.43348
 94 02 11 03 10 30.0000000  0  7 02 05 07 09 12 13 27
  -9740672.55348  -7590110.55447         0.00041  22018519.78247  22018519.73848
  -3773488.53148  -2940377.39345         0.00041  24566993.36545  24566991.72348
 -19780148.69649 -15413067.23648         0.00041  21334261.01948  21334261.17949
 -17887316.99949 -13938157.72647         0.00041  21940855.95547  21940856.19849
 -12640490.08608  -9849723.29608  22922764.80108  22922765.84208         0.00001
 -25523496.55509 -19888412.64008  20494634.14109  20494634.46008         0.00001
  17578989.55848  13697919.76544         0.00041  25247874.60544  25247873.81148
 94 02 11 03 11 00.0000000  0  7 02 05 07 09 12 13 27
  -9692065.65548  -7552235.04947         0.00041  22027769.25647  22027769.43048
  -3852906.82548  -3002261.71245         0.00041  24551879.51445  24551879.13148
 -19721525.68749 -15367386.96748         0.00041  21345416.36648  21345416.55149
 -17956574.62849 -13992124.68947         0.00041  21927676.29447  21927676.91849
 -12725925.73008  -9916296.48408  22906506.94208  22906507.96908         0.00001
 -25542241.01209 -19903018.70208  20491067.19809  20491067.48208         0.00001
  17696427.75848  13789430.00644         0.00041  25270219.82044  25270221.67748
 94 02 11 03 11 30.0000000  0  7 02 05 07 09 12 13 27
  -9643205.86548  -7514162.49346         0.00041  22037066.98046  22037067.21448
  -3932355.35848  -3064169.57945         0.00041  24536763.02945  24536760.57848
 -19662674.75649 -15321529.09948         0.00041  21356615.40848  21356615.62049
 -18025448.32149 -14045792.48247         0.00041  21914570.34947  21914570.69749
 -12811198.26308  -9982742.57008  22890280.04308  22890281.05808         0.00001
 -25560425.53509 -19917188.45308  20487606.77409  20487607.10908         0.00001
  17813867.55648  13880941.61944         0.00041  25292564.11644  25292569.56648
 94 02 11 03 12 00.0000000  0  7 02 05 07 09 12 13 27
  -9594119.52948  -7475913.40347         0.00041  22046407.88847  22046408.02148
  -4011841.24148  -3126106.57345         0.00041  24521635.46045  24521635.02748
 -19603615.85949 -15275509.17848         0.00041  21367854.07748  21367854.22249
 -18093970.77049 -14099186.57847         0.00041  21901530.91947  21901531.17949
 -12896319.61808 -10049070.85408  22874081.98708  22874082.94508         0.00001
 -25578064.98709 -19930933.47308  20484250.09609  20484250.41308         0.00001
  17931312.08048  13972456.85144         0.00041  25314916.34744  25314918.43648
 94 02 11 03 12 30.0000000  0  7 02 05 07 09 12 13 27
  -9544797.87948  -7437480.95447         0.00041  22055793.57647  22055793.66848
  -4091334.76448  -3188049.51645         0.00041  24506507.67545  24506507.72748
 -19544317.80649 -15229302.90147         0.00041  21379138.14347  21379138.27949
 -18162116.33149 -14152287.00047         0.00041  21888563.07947  21888563.44649
 -12981266.48408 -10115263.17208  22857917.09708  22857918.01208         0.00001
 -25595139.05109 -19944237.93108  20481000.99009  20481001.32308         0.00001
  18048806.12848  14064010.65744         0.00041  25337278.98744  25337276.63548
 94 02 11 03 13 00.0000000  0  7 02 05 07 09 12 13 27
  -9495255.83448  -7398876.76447         0.00041  22065220.51847  22065221.19748
  -4170853.15048  -3250011.85145         0.00041  24491374.83745  24491375.69348
 -19484783.30849 -15182912.38447         0.00041  21390467.11147  21390467.22149
 -18229888.32249 -14205096.32247         0.00041  21875666.36147  21875666.85949
 -13066042.03808 -10181322.00108  22841784.77208  22841785.77908         0.00001
 -25611653.96409 -19957106.68308  20477858.30209  20477858.64608         0.00001
  18166357.50248  14155609.16944         0.00041  25359651.67344  25359646.06748
 94 02 11 03 13 30.0000000  0  7 02 05 07 09 12 13 27
  -9445498.23848  -7360104.61647         0.00041  22074689.40747  22074689.66648
  -4250400.53548  -3311996.74345         0.00041  24476238.75045  24476238.11548
 -19425031.60249 -15136352.60947         0.00041  21401837.45747  21401837.55149
 -18297291.45049 -14257618.22047         0.00041  21862840.18247  21862840.52949
 -13150647.22308 -10247248.07608  22825684.91008  22825685.93208         0.00001
 -25627613.98309 -19969543.05408  20474821.19809  20474821.52208         0.00001
  18283966.39248  14247252.39344         0.00041  25382025.37544  25382026.10348
 94 02 11 03 14 00.0000000  0  7 02 05 07 09 12 13 27
  -9395533.90448  -7321171.37247         0.00041  22084197.26947  22084197.54948
  -4329968.21348  -3373997.42645         0.00041  24461097.12845  24461096.84548
 -19365074.10749 -15089632.48447         0.00041  21413246.94947  21413247.14849
 -18364317.37049 -14309846.19647         0.00041  21850085.52047  21850085.86649
 -13235088.05108 -10313046.08208  22809616.32208  22809617.36608         0.00001
 -25643027.87809 -19981553.87108  20471888.01609  20471888.34508         0.00001
  18401600.78548  14338915.56344         0.00041  25404408.27144  25404411.07448
 94 02 11 03 14 30.0000000  0  7 02 05 07 09 12 13 27
  -9345349.60848  -7282066.72946         0.00041  22093747.12746  22093747.34248
  -4409568.90848  -3436023.88345         0.00041  24445951.04945  24445949.19248
 -19304911.81349 -15042752.77047         0.00041  21424695.49347  21424695.61149
 -18430958.14049 -14361774.04847         0.00041  21837403.97447  21837404.39049
 -13319364.25108 -10378715.81408  22793579.07808  22793580.06608         0.00001
 -25657898.50309 -19993141.36208  20469058.21409  20469058.57508         0.00001
  18519256.87848  14430595.67644         0.00041  25426797.08744  25426800.22148
 94 02 11 03 15 00.0000000  0  7 02 05 07 09 12 13 27
  -9294935.62848  -7242783.11046         0.00041  22103340.30446  22103340.77248
  -4489212.48048  -3498083.70445         0.00041  24430794.09945  24430793.58348
 -19244560.36949 -14995725.66947         0.00041  21436180.14747  21436180.11249
 -18497207.43249 -14413396.85547         0.00041  21824797.39447  21824797.79449
 -13403472.20908 -10444254.45208  22777573.81708  22777574.79808         0.00001
 -25672225.47609 -20004305.22708  20466331.87509  20466332.22408         0.00001
  18636922.29048  14522283.08644         0.00041  25449187.77044  25449191.37848
 94 02 11 03 15 30.0000000  0  7 02 05 07 09 12 13 27
  -9244278.11148  -7203309.72746         0.00041  22112980.39046  22112980.52148
  -4568880.45248  -3560162.57345         0.00041  24415632.37145  24415633.55848
 -19184014.78149 -14948547.28647         0.00041  21447701.52547  21447701.53549
 -18563058.91149 -14464709.68347         0.00041  21812266.21747  21812266.62049
 -13487406.39408 -10509657.68808  22761601.65608  22761602.60508         0.00001
 -25686006.36509 -20015043.57108  20463709.44909  20463709.76008         0.00001
  18754594.03848  14613975.33044         0.00041  25471582.98644  25471583.53148
 94 02 11 03 16 00.0000000  0  7 02 05 07 09 12 13 27
  -9193373.78648  -7163644.02046         0.00041  22122667.07546  22122667.26548
  -4648573.54748  -3622261.06145         0.00041  24400468.89045  24400468.24448
 -19123266.15149 -14901210.68647         0.00041  21459261.82847  21459261.77449
 -18628503.84249 -14515705.71747         0.00041  21799812.38447  21799812.78249
 -13571169.44408 -10574927.57608  22745662.07608  22745663.00108         0.00001
 -25699247.03509 -20025360.96408  20461189.81709  20461190.15508         0.00001
  18872270.03047  14705671.03944         0.00041  25493984.31844  25493976.87047
 94 02 11 03 16 30.0000000  0  6 02 05 07 09 12 13
  -9142229.35448  -7123791.21746         0.00041  22132399.60346  22132399.81548
  -4728310.32048  -3684393.52945         0.00041  24385298.95545  24385294.59148
 -19062319.55949 -14853719.83147         0.00041  21470859.34947  21470859.47749
 -18693550.36549 -14566391.30547         0.00041  21787434.64847  21787434.84849
 -13654760.88808 -10640063.74708  22729755.13908  22729756.13208         0.00001
 -25711950.38409 -20035259.66608  20458772.42309  20458772.76108         0.00001
 94 02 11 03 17 00.0000000  0  6 02 05 07 09 12 13
  -9090859.24548  -7083762.56646         0.00041  22142174.82846  22142175.13148
  -4808089.75448  -3746559.26545         0.00041  24370113.05145  24370113.02148
 -19001199.53649 -14806093.83447         0.00041  21482490.06647  21482490.16649
 -18758206.22549 -14616772.48047         0.00041  21775130.91247  21775131.29549
 -13738192.23108 -10705075.16708  22713878.65708  22713879.65108         0.00001
 -25724130.95809 -20044751.00908  20456454.53209  20456454.86908         0.00001
 94 02 11 03 17 30.0000000  0  6 02 05 07 09 12 13
  -9039194.18148  -7043504.08346         0.00041  22152006.41846  22152006.66248
  -4887841.30548  -3808703.24645         0.00041  24354938.26445  24354936.86148
 -18939831.72549 -14758274.75647         0.00041  21494167.83247  21494168.09749
 -18822403.64849 -14666796.42847         0.00041  21762914.51047  21762915.02249
 -13821395.18608 -10769908.62408  22698045.72908  22698046.63408         0.00001
 -25735723.91209 -20053784.46608  20454248.44409  20454248.80308         0.00001
 94 02 11 03 18 00.0000000  0  6 02 05 07 09 12 13
  -8987307.28648  -7003072.73746         0.00041  22161880.36046  22161880.50048
  -4967643.69248  -3870886.88545         0.00041  24339753.48145  24339751.08648
 -18878284.84549 -14710316.14347         0.00041  21505879.80347  21505880.03949
 -18886197.60349 -14716505.99147         0.00041  21750775.23747  21750775.40049
 -13904429.83508 -10834610.93608  22682244.75508  22682245.64308         0.00001
 -25746792.47609 -20062409.30808  20452142.18109  20452142.53008         0.00001
 94 02 11 03 18 30.0000000  0  6 02 05 07 09 12 13
  -8935207.32748  -6962475.37846         0.00041  22171794.82046  22171794.78248
  -5047500.52948  -3933112.96545         0.00041  24324556.30645  24324554.49248
 -18816567.12249 -14662224.40947         0.00041  21517624.44447  21517624.56049
 -18949597.50049 -14765908.49247         0.00041  21738710.24047  21738710.76149
 -13987293.75708 -10899180.21608  22666476.20808  22666477.12108         0.00001
 -25757337.65309 -20070626.31408  20450135.50209  20450135.84208         0.00001
 94 02 11 03 19 00.0000000  0  6 02 05 07 09 12 13
  -8882876.91748  -6921698.44246         0.00041  22181752.82846  22181752.93448
  -5127400.14148  -3995372.36645         0.00041  24309351.08745  24309350.08948
 -18754662.44849 -14613986.99547         0.00041  21529404.49247  21529404.61449
 -19012583.46349 -14814988.44947         0.00041  21726724.55447  21726724.87149
 -14069979.79508 -10963610.88708  22650741.59708  22650742.51308         0.00001
 -25767355.74009 -20078432.60308  20448229.11609  20448229.42208         0.00001
 94 02 11 03 19 30.0000000  0  6 02 05 07 09 12 13
  -8830317.46748  -6880743.02846         0.00041  22191754.70946  22191754.65748
  -5207340.15148  -4057663.21345         0.00041  24294139.53545  24294138.24748
 -18692553.85249 -14565590.68447         0.00041  21541223.21047  21541223.35649
 -19075143.60749 -14863736.59347         0.00041  21714819.84647  21714819.97549
 -14152478.63408 -11027895.68808  22635042.58408  22635043.44808         0.00001
 -25776840.63909 -20085823.42008  20446424.18509  20446424.49308         0.00001
 94 02 11 03 20 00.0000000  0  6 02 05 07 09 12 13
  -8777550.83548  -6839626.18346         0.00041  22201795.91546  22201795.82348
  -5287323.33948  -4119987.76345         0.00041  24278918.97145  24278917.80548
 -18630257.82749 -14517048.32347         0.00041  21553077.86247  21553078.00249
 -19137278.07049 -14912153.04447         0.00041  21702995.88747  21702996.19149
 -14234787.61008 -11092032.54308  22619379.65908  22619380.59908         0.00001
 -25785793.43209 -20092799.61008  20444720.48009  20444720.83608         0.00001
 94 02 11 03 20 30.0000000  0  6 02 05 07 09 12 13
  -8724575.48148  -6798346.69246         0.00041  22211876.33746  22211876.61748
  -5367339.61248  -4182338.06645         0.00041  24263692.56245  24263691.18948
 -18567781.18749 -14468365.21847         0.00041  21564966.95747  21564966.95949
 -19198993.46149 -14960242.94147         0.00041  21691251.70947  21691252.01849
 -14316907.62908 -11156022.15608  22603752.71808  22603753.62608         0.00001
 -25794218.12909 -20099364.29708  20443117.34009  20443117.63208         0.00001
 94 02 11 03 21 00.0000000  0  6 02 05 07 09 12 13
  -8671355.20948  -6756876.35846         0.00041  22222003.99746  22222004.26748
  -5447359.30148  -4244691.02645         0.00041  24248465.24245  24248463.81448
 -18505102.05749 -14419524.33547         0.00041  21576894.38247  21576894.47149
 -19260253.85949 -15007978.30147         0.00041  21679594.38547  21679594.60249
 -14398806.05408 -11219839.09808  22588167.96008  22588168.91108         0.00001
 -25802085.69209 -20105494.85308  20441620.18509  20441620.49108         0.00001
 94 02 11 03 21 30.0000000  0  6 02 05 07 09 12 13
  -8617910.08448  -6715230.80846         0.00041  22232174.14646  22232174.41948
  -5527387.04648  -4307050.28345         0.00041  24233236.02745  24233234.97048
 -18442253.17849 -14370551.17847         0.00041  21588853.92747  21588854.17049
 -19321085.89249 -15055379.86747         0.00041  21668018.33247  21668018.67349
 -14480484.88508 -11283484.92708  22572625.02708  22572625.91408         0.00001
 -25809401.70309 -20111195.63008  20440227.98409  20440228.27808         0.00001
 94 02 11 03 22 00.0000000  0  6 02 05 07 09 12 13
  -8564234.11648  -6673405.39346         0.00041  22242388.37746  22242388.58348
  -5607426.57248  -4369418.72745         0.00041  24218005.53745  24218004.01048
 -18379247.68249 -14321455.98347         0.00041  21600843.55547  21600843.65449
 -19381496.66749 -15102453.18447         0.00041  21656522.54147  21656522.90249
 -14561942.55508 -11346958.42108  22557124.12008  22557125.01008         0.00001
 -25816167.78309 -20116467.89108  20438940.45809  20438940.76108         0.00001
 94 02 11 03 22 30.0000000  0  6 02 05 07 09 12 13
  -8510292.04148  -6631372.61946         0.00041  22252653.15146  22252653.45548
  -5687464.65048  -4431785.98245         0.00041  24202772.96245  24202773.42148
 -18316054.38849 -14272214.44947         0.00041  21612868.74347  21612868.82349
 -19441471.08149 -15149186.47947         0.00041  21645109.48747  21645110.18449
 -14643168.32808 -11410251.21508  22541667.41008  22541668.24908         0.00001
 -25822377.11309 -20121306.32108  20437758.82909  20437759.13408         0.00001
 94 02 11 03 23 00.0000000  0  6 02 05 07 09 12 13
  -8456092.43348  -6589139.16546         0.00041  22262966.54546  22262967.28248
  -5767522.43048  -4494168.64645         0.00041  24187538.19445  24187538.80548
 -18252679.67649 -14222831.55047         0.00041  21624928.65947  21624928.71749
 -19501012.67049 -15195582.51147         0.00041  21633779.21247  21633779.87049
 -14724171.51108 -11473370.55908  22526253.01008  22526253.86208         0.00001
 -25828042.57009 -20125720.95408  20436680.74409  20436681.02308         0.00001
 94 02 11 03 23 30.0000000  0  6 02 05 07 09 12 13
  -8401661.01248  -6546725.07946         0.00041  22273325.05546  22273325.27248
  -5847611.90048  -4556576.01345         0.00041  24172297.48845  24172298.03848
 -18189130.74049 -14173312.89647         0.00041  21637021.71647  21637021.70549
 -19560138.40249 -15241654.49647         0.00041  21622527.95347  21622528.49749
 -14804966.83308 -11536327.93208  22510878.14408  22510878.97108         0.00001
 -25833182.42009 -20129726.02508  20435702.63009  20435702.93808         0.00001
 94 02 11 03 24 00.0000000  0  6 02 05 07 09 12 13
  -8346980.75748  -6504117.09746         0.00041  22283730.24646  22283730.65148
  -5927714.20448  -4618993.34045         0.00041  24157056.24045  24157055.12748
 -18125370.33849 -14123629.46147         0.00041  21649154.83947  21649154.81249
 -19618812.92749 -15287374.89347         0.00041  21611362.53647  21611363.00549
 -14885539.84908 -11599112.07808  22495545.59408  22495546.40408         0.00001
 -25837785.99009 -20133313.21508  20434826.58809  20434826.90008         0.00001
 94 02 11 03 24 30.0000000  0  6 02 05 07 09 12 13
  -8292072.11048  -6461331.14246         0.00041  22294179.22746  22294179.43848
  -6007838.89348  -4681428.08546         0.00041  24141807.77446  24141808.05148
 -18061410.34449 -14073790.50047         0.00041  21661325.92347  21661326.07149
 -19677052.95149 -15332756.71747         0.00041  21600280.05347  21600280.40849
 -14965902.12208 -11661732.01008  22480253.14708  22480253.95708         0.00001
 -25841868.34009 -20136494.26108  20434049.73309  20434050.04708         0.00001
 94 02 11 03 25 00.0000000  0  6 02 05 07 09 12 13
  -8236960.54448  -6418387.07346         0.00041  22304666.57446  22304666.88348
  -6087981.44248  -4743876.75146         0.00041  24126556.77046  24126557.42048
 -17997273.29049 -14023813.57347         0.00041  21673530.95147  21673531.01649
 -19734863.58449 -15377803.95247         0.00041  21589278.78547  21589279.43249
 -15046052.92408 -11724187.15808  22465000.89308  22465001.75508         0.00001
 -25845432.52209 -20139271.54008  20433371.50209  20433371.80908         0.00001
 94 02 11 03 25 30.0000000  0  6 02 05 07 09 12 13
  -8181637.76948  -6375278.42646         0.00041  22315194.11746  22315194.34648
  -6168121.63048  -4806323.72845         0.00041  24111307.41745  24111307.18048
 -17932957.76649 -13973697.57647         0.00041  21685769.75147  21685769.81549
 -19792239.44349 -15422512.40347         0.00041  21578360.56947  21578361.16249
 -15125981.66708 -11786469.27208  22449790.97108  22449791.81208         0.00001
 -25848471.47009 -20141639.54608  20432793.19809  20432793.49508         0.00001
 94 02 11 03 26 00.0000000  0  6 02 05 07 09 12 13
  -8126093.17448  -6331996.93346         0.00041  22325763.62846  22325764.17848
  -6248274.92648  -4868780.81745         0.00041  24096055.37445  24096054.68048
 -17868480.47049 -13923455.52247         0.00041  21698039.55347  21698039.50249
 -19849176.09349 -15466878.61747         0.00041  21567526.01147  21567526.45849
 -15205687.93408 -11848578.02908  22434623.33308  22434624.21008         0.00001
 -25850988.58109 -20143600.92608  20432314.21209  20432314.52508         0.00001
 94 02 11 03 26 30.0000000  0  6 02 05 07 09 12 13
  -8070307.91648  -6288527.91046         0.00041  22336379.65246  22336379.70748
  -6328439.09148  -4931246.38245         0.00041  24080799.24245  24080799.87648
 -17803843.43249 -13873088.99947         0.00041  21710339.62147  21710339.46649
 -19905657.54249 -15510890.13047         0.00041  21556777.78547  21556778.35749
 -15285155.53208 -11910500.81008  22419501.15408  22419501.96008         0.00001
 -25852971.27409 -20145145.87508  20431936.89409  20431937.22308         0.00001
 94 02 11 03 27 00.0000000  0  6 02 05 07 09 12 13
  -8014262.49648  -6244856.16346         0.00041  22347044.35946  22347044.80248
  -6408623.29348  -4993727.55545         0.00041  24065542.79045  24065541.04848
 -17739044.42449 -13822596.26447         0.00041  21722670.15447  21722670.30549
 -19961660.86249 -15554529.07447         0.00041  21546120.89247  21546121.18849
 -15364375.99108 -11972231.01508  22404425.95308  22404426.76208         0.00001
 -25854415.18209 -20146270.99108  20431662.11309  20431662.40108         0.00001
 94 02 11 03 27 30.0000000  0  6 02 05 07 09 12 13
  -7957952.34648  -6200978.13746         0.00041  22357760.13746  22357760.34548
  -6488853.59848  -5056244.67745         0.00041  24050275.02045  24050273.97948
 -17674089.33549 -13771981.90447         0.00041  21735030.76747  21735030.91849
 -20017197.33049 -15597804.23747         0.00041  21535552.30047  21535552.86049
 -15443360.08308 -12033777.03808  22389395.75508  22389396.58008         0.00001
 -25855334.65609 -20146987.45808  20431487.13109  20431487.44108         0.00001
 94 02 11 03 28 00.0000000  0  6 02 05 07 09 12 13
  -7901380.71448  -6156896.35646         0.00041  22368525.24146  22368525.56348
  -6569134.31848  -5118801.03845         0.00041  24034997.33145  24034997.08648
 -17608970.74349 -13721240.14447         0.00041  21747422.04147  21747422.49249
 -20072258.08549 -15640708.71547         0.00041  21525074.90147  21525075.30949
 -15522104.31308 -12095136.15608  22374411.24708  22374412.08908         0.00001
 -25855729.89409 -20147295.43008  20431411.90409  20431412.24308         0.00001
 94 02 11 03 28 30.0000000  0  6 02 05 07 09 12 13
  -7844573.69548  -6112631.16546         0.00041  22379335.10146  22379335.64648
  -6649462.56248  -5181394.44045         0.00041  24019712.68145  24019711.30548
 -17543689.94349 -13670371.98247         0.00041  21759844.91847  21759844.99549
 -20126861.67149 -15683256.95847         0.00041  21514684.25747  21514684.57149
 -15600623.38908 -12156319.82908  22359469.57208  22359470.29308         0.00001
 -25855619.94109 -20147209.74608  20431432.82909  20431433.12708         0.00001
 94 02 11 03 29 00.0000000  0  6 02 05 07 09 12 13
  -7787502.06848  -6068159.77746         0.00041  22390195.39146  22390195.90048
  -6729794.99548  -5243991.10746         0.00041  24004424.30146  24004424.52548
 -17478220.95749 -13619357.18747         0.00041  21772303.37647  21772303.44249
 -20180986.09549 -15725431.82847         0.00041  21504384.54747  21504385.18749
 -15678887.99608 -12217305.21308  22344576.27108  22344577.03908         0.00001
 -25854979.04009 -20146710.33608  20431554.77709  20431555.12808         0.00001
 94 02 11 03 29 30.0000000  0  6 02 05 07 09 12 13
  -7730190.99948  -6023501.81146         0.00041  22401101.72846  22401101.79948
  -6810118.08248  -5306580.49146         0.00041  23989141.28246  23989139.24448
 -17412574.36249 -13568203.99347         0.00041  21784795.09947  21784795.41849
 -20234650.92249 -15767248.57047         0.00041  21494172.60547  21494173.08049
 -15756906.55608 -12278098.87408  22329729.77608  22329730.60008         0.00001
 -25853819.51009 -20145806.80008  20431775.43809  20431775.74908         0.00001
 94 02 11 03 30 00.0000000  0  6 02 05 07 09 12 13
  -7672642.92148  -5978659.17146         0.00041  22412053.07346  22412052.94148
  -6890420.21348  -5369153.48546         0.00041  23973859.02146  23973858.21448
 -17346755.73949 -13516916.75247         0.00041  21797320.11347  21797320.23149
 -20287854.64249 -15808706.00447         0.00041  21484047.85047  21484048.54449
 -15834675.48808 -12338698.01808  22314930.86208  22314931.63108         0.00001
 -25852141.60009 -20144499.33108  20432094.73909  20432095.03208         0.00001
 94 02 11 03 30 30.0000000  0  6 02 05 07 09 12 13
  -7614865.47448  -5933637.79546         0.00041  22423047.61846  22423047.69448
  -6970713.25148  -5431719.45845         0.00041  23958579.67045  23958579.04348
 -17280796.11449 -13465519.64147         0.00041  21809871.94047  21809871.98449
 -20340611.45849 -15849815.20347         0.00041  21474008.71847  21474009.36449
 -15912205.40208 -12399110.91608  22300177.42708  22300178.14308         0.00001
 -25849959.99309 -20142799.37108  20432509.86909  20432510.14108         0.00001
 94 02 11 03 31 00.0000000  0  6 02 05 07 09 12 13
  -7556848.84148  -5888430.03446         0.00041  22434087.56346  22434087.88148
  -7051008.87248  -5494287.42246         0.00041  23943299.16046  23943299.15548
 -17214715.46549 -13414028.22447         0.00041  21822446.55647  21822446.71649
 -20392920.37349 -15890575.38747         0.00041  21464054.72347  21464055.41649
 -15989491.50208 -12459333.82508  22285470.33108  22285471.02608         0.00001
 -25847273.86309 -20140706.27608  20433021.02309  20433021.30608         0.00001
 94 02 11 03 31 30.0000000  0  6 02 05 07 09 12 13
  -7498588.45348  -5843032.33846         0.00041  22445174.07346  22445174.44248
  -7131300.11148  -5556851.94546         0.00041  23928021.80246  23928020.31048
 -17148501.63449 -13362433.02547         0.00041  21835046.80047  21835046.75049
 -20444771.19349 -15930978.61547         0.00041  21454188.04347  21454188.54249
 -16066520.00008 -12519356.00708  22270812.25308  22270812.98008         0.00001
 -25844073.30209 -20138212.32608  20433630.07809  20433630.34908         0.00001
 94 02 11 03 32 00.0000000  0  6 02 05 07 09 12 13
  -7440106.58048  -5797462.06046         0.00041  22456302.56946  22456303.16448
  -7211629.27248  -5619446.02846         0.00041  23912735.37546  23912734.15548
 -17082182.37049 -13310755.67647         0.00041  21847667.01547  21847667.00349
 -20496180.85349 -15971038.08047         0.00041  21444405.01147  21444405.53049
 -16143316.01308 -12579197.03008  22256198.43908  22256199.15808         0.00001
 -25840387.51309 -20135340.27508  20434331.44409  20434331.73008         0.00001
 94 02 11 03 32 30.0000000  0  6 02 05 07 09 12 13
  -7381410.79848  -5751725.09846         0.00041  22467472.75746  22467472.59848
  -7292001.11248  -5682073.37946         0.00041  23897439.33746  23897439.60148
 -17015752.33149 -13258992.00847         0.00041  21860308.08947  21860308.12749
 -20547140.20249 -16010746.65447         0.00041  21434707.51747  21434708.23749
 -16219872.84808 -12638851.68208  22241630.11708  22241630.83908         0.00001
 -25836213.79609 -20132088.02108  20435125.66009  20435125.96008         0.00001
 94 02 11 03 33 00.0000000  0  6 02 05 07 09 12 13
  -7322509.75748  -5705828.19546         0.00041  22478681.24846  22478681.16448
  -7372414.91448  -5744733.41846         0.00041  23882138.09046  23882137.34448
 -16949195.32649 -13207129.40647         0.00041  21872973.21447  21872973.55449
 -20597656.89149 -16050110.29647         0.00041  21425094.44047  21425095.18949
 -16296185.15708 -12698315.79408  22227108.35508  22227109.06508         0.00001
 -25831550.97609 -20128454.64608  20436012.94709  20436013.25408         0.00001
 94 02 11 03 33 30.0000000  0  6 02 05 07 09 12 13
  -7263400.82648  -5659769.30246         0.00041  22489929.00946  22489929.15848
  -7452851.89148  -5807411.52046         0.00041  23866829.65146  23866830.66448
 -16882486.53649 -13155148.53147         0.00041  21885667.76047  21885667.78149
 -20647713.52349 -16089115.45447         0.00041  21415569.17247  21415569.86549
 -16372240.25808 -12757579.48708  22212635.55008  22212636.24708         0.00001
 -25826390.31209 -20124433.34108  20436994.99709  20436995.27108         0.00001
 94 02 11 03 34 00.0000000  0  6 02 05 07 09 12 13
  -7204069.71448  -5613537.27746         0.00041  22501219.45946  22501219.50848
  -7533309.70148  -5870105.86246         0.00041  23851520.77546  23851520.04048
 -16815608.90549 -13103036.09147         0.00041  21898394.22747  21898394.14249
 -20697285.75349 -16127743.15247         0.00041  21406135.83747  21406136.50649
 -16448019.22508 -12816628.01008  22198215.27908  22198215.94108         0.00001
 -25820716.91109 -20120012.50108  20438074.60709  20438074.89008         0.00001
 94 02 11 03 34 30.0000000  0  6 02 05 07 09 12 13
  -7144500.93148  -5567120.06246         0.00041  22512554.38546  22512555.06848
  -7613775.17048  -5932806.18946         0.00041  23836207.73546  23836207.94748
 -16748567.67049 -13050796.16947         0.00041  21911151.48447  21911151.72049
 -20746368.91349 -16165989.76147         0.00041  21396795.61747  21396796.31049
 -16523510.72708 -12875452.53508  22183849.68308  22183850.41708         0.00001
 -25814523.48809 -20115186.44808  20439253.15809  20439253.46908         0.00001
 94 02 11 03 35 00.0000000  0  6 02 05 07 09 12 13
  -7084663.38248  -5520493.41546         0.00041  22523942.22146  22523941.76948
  -7694231.35748  -5995499.26746         0.00041  23820898.11346  23820897.76648
 -16681361.67249 -12998427.85647         0.00041  21923940.42347  21923940.58649
 -20794944.40449 -16203840.78247         0.00041  21387551.76747  21387552.48449
 -16598706.73808 -12934046.80608  22169540.32208  22169541.06008         0.00001
 -25807806.35009 -20109952.30608  20440531.36509  20440531.67408         0.00001
 94 02 11 03 35 30.0000000  0  6 02 05 07 09 12 13
  -7024563.83148  -5473662.61246         0.00041  22535378.21646  22535378.41148
  -7774687.88148  -6058192.61046         0.00041  23805586.57946  23805587.51448
 -16614013.85249 -12945949.03347         0.00041  21936756.51547  21936756.40549
 -20843004.75449 -16241290.39347         0.00041  21378406.37847  21378406.95649
 -16673620.63808 -12992421.25208  22155284.67708  22155285.40508         0.00001
 -25800582.88309 -20104323.62008  20441905.94409  20441906.25708         0.00001
 94 02 11 03 36 00.0000000  0  6 02 05 07 09 12 13
  -6964195.92048  -5426622.69946         0.00041  22546866.13146  22546865.99548
  -7855140.99448  -6120883.30946         0.00041  23790276.87346  23790277.62348
 -16546536.42148 -12893369.21847         0.00041  21949596.84447  21949596.92248
 -20890543.93249 -16278333.89848         0.00041  21369359.76548  21369360.50749
 -16748247.40808 -13050571.96208  22141083.67508  22141084.37808         0.00001
 -25792852.24609 -20098299.73708  20443377.01709  20443377.30108         0.00001
 94 02 11 03 36 30.0000000  0  6 02 05 07 09 12 13
  -6903551.95848  -5379367.68246         0.00041  22558405.62946  22558406.17748
  -7935581.99148  -6183564.54846         0.00041  23774971.56746  23774970.02048
 -16478930.46548 -12840689.25347         0.00041  21962461.53347  21962461.90948
 -20937560.95049 -16314970.52548         0.00041  21360413.04648  21360413.54649
 -16822586.20508 -13108498.27708  22126937.46108  22126938.15208         0.00001
 -25784617.85609 -20091883.31808  20444943.95309  20444944.23208         0.00001
 94 02 11 03 37 00.0000000  0  6 02 05 07 09 12 13
  -6842676.82748  -5331932.53646         0.00041  22569989.67546  22569990.42848
  -8016044.73148  -6246262.75346         0.00041  23759658.85846  23759658.43148
 -16411199.60148 -12787911.95847         0.00041  21975350.55447  21975350.84348
 -20984078.48749 -16351217.94748         0.00041  21351561.03948  21351561.62849
 -16896661.03608 -13166218.90708  22112841.48208  22112842.21208         0.00001
 -25775907.81509 -20085096.26208  20446601.43809  20446601.71808         0.00001
 94 02 11 03 37 30.0000000  0  6 02 05 07 09 12 13
  -6781594.06248  -5284335.58846         0.00041  22581613.73946  22581614.16948
  -8096543.28548  -6308988.85846         0.00041  23744339.65946  23744340.15848
 -16343344.76548 -12735038.06247         0.00041  21988262.86047  21988263.16548
 -21030110.96149 -16387087.39548         0.00041  21342801.20648  21342801.87749
 -16970468.05008 -13223730.85108  22098796.45908  22098797.18608         0.00001
 -25766722.53209 -20077938.88708  20448349.31309  20448349.58808         0.00001
 94 02 11 03 38 00.0000000  0  6 02 05 07 09 12 13
  -6720285.75748  -5236562.89946         0.00041  22593280.81746  22593280.77548
  -8177077.23248  -6371742.56746         0.00041  23729015.29646  23729015.07648
 -16275341.92048 -12682048.83247         0.00041  22001203.27247  22001203.65648
 -21075658.57849 -16422579.03848         0.00041  21334133.82048  21334134.54049
 -17043988.01008 -13281019.11808  22084806.05108  22084806.77708         0.00001
 -25757047.16809 -20070399.63108  20450190.49309  20450190.75408         0.00001
 94 02 11 03 38 30.0000000  0  6 02 05 07 09 12 13
  -6658737.24348  -5188603.04046         0.00041  22604992.81146  22604993.07448
  -8257629.87748  -6434510.83946         0.00041  23713686.69246  23713686.26748
 -16207166.93648 -12628925.46847         0.00041  22014176.89447  22014176.88748
 -21120720.72249 -16457692.38848         0.00041  21325558.79848  21325559.39549
 -17117202.98808 -13338069.73608  22070873.71008  22070874.43008         0.00001
 -25746867.86809 -20062467.70008  20452127.53909  20452127.79608         0.00001
 94 02 11 03 39 00.0000000  0  6 02 05 07 09 12 13
  -6596942.46848  -5140451.28746         0.00041  22616752.41946  22616752.19648
  -8338183.85148  -6497280.13146         0.00041  23698356.13746  23698357.43648
 -16138821.95848 -12575669.63947         0.00041  22027182.22447  22027182.37448
 -21165291.09749 -16492422.54248         0.00041  21317077.22848  21317077.71649
 -17190098.28208 -13394871.25208  22057002.20508  22057002.87808         0.00001
 -25736173.98709 -20054134.79708  20454162.48309  20454162.78508         0.00001
 94 02 11 03 39 30.0000000  0  6 02 05 07 09 12 13
  -6534880.09948  -5092091.01946         0.00041  22628562.54146  22628562.36348
  -8418714.01148  -6560030.88746         0.00041  23683033.61546  23683033.02948
 -16070315.43648 -12522287.94147         0.00041  22040218.72847  22040218.85748
 -21209373.40949 -16526772.38548         0.00041  21308688.86148  21308689.36249
 -17262664.20808 -13451416.12108  22043193.33908  22043194.03408         0.00001
 -25724960.43509 -20045396.95608  20456296.34009  20456296.63308         0.00001
 94 02 11 03 40 00.0000000  0  6 02 05 07 09 12 13
  -6472530.03548  -5043506.57446         0.00041  22640427.27446  22640427.14548
  -8499203.45748  -6622749.90746         0.00041  23667716.15746  23667716.26048
 -16001648.34248 -12468781.11647         0.00041  22053285.87447  22053285.81248
 -21252953.77549 -16560731.10548         0.00041  21300395.75948  21300396.35649
 -17334897.96808 -13507702.15808  22029447.71408  22029448.39708         0.00001
 -25713228.53509 -20036255.20908  20458528.85909  20458529.14008         0.00001
 94 02 11 03 40 30.0000000  0  6 02 05 07 09 12 13
  -6409901.32548  -4994705.00046         0.00041  22652344.43646  22652344.99048
  -8579639.54248  -6685427.33946         0.00041  23652409.93946  23652409.74248
 -15932843.31948 -12415166.81147         0.00041  22066378.73447  22066378.91348
 -21296018.31849 -16594287.88348         0.00041  21292200.68148  21292201.38349
 -17406802.98308 -13563732.03008  22015764.62008  22015765.39308         0.00001
 -25700986.24909 -20026715.75908  20460858.47909  20460858.75208         0.00001
 94 02 11 03 41 00.0000000  0  6 02 05 07 09 12 13
  -6347018.05348  -4945705.07146         0.00041  22664311.28746  22664311.28448
  -8660043.55348  -6748079.79446         0.00041  23637108.19446  23637109.29348
 -15863923.96148 -12361463.41247         0.00041  22079493.51147  22079493.74448
 -21338564.10349 -16627440.43248         0.00041  21284104.48948  21284105.18049
 -17478397.37108 -13619519.85808  22002140.71508  22002141.36708         0.00001
 -25688255.80009 -20016795.92408  20463281.01409  20463281.29708         0.00001
 94 02 11 03 41 30.0000000  0  6 02 05 07 09 12 13
  -6283889.23748  -4896513.80146         0.00041  22676324.01246  22676324.24048
  -8740430.31148  -6810718.79946         0.00041  23621812.57846  23621812.25348
 -15794892.16348 -12307672.40347         0.00041  22092629.83547  22092630.05548
 -21380583.96749 -16660183.17348         0.00041  21276108.53848  21276109.05449
 -17549690.71208 -13675073.10408  21988574.01408  21988574.67708         0.00001
 -25675051.17009 -20006506.59508  20465793.77209  20465794.02208         0.00001
 94 02 11 03 42 00.0000000  0  6 02 05 07 09 12 13
  -6220530.73248  -4847143.56246         0.00041  22688380.99746  22688380.99648
  -8820831.83348  -6873369.30746         0.00041  23606513.14846  23606512.43648
 -15725765.94048 -12253807.81747         0.00041  22105784.39647  22105784.18748
 -21422072.66549 -16692512.02348         0.00041  21268213.38348  21268213.98849
 -17620696.04508 -13730401.92808  21975062.15708  21975062.81208         0.00001
 -25661389.83409 -19995861.39308  20468393.43809  20468393.68708         0.00001
 94 02 11 03 42 30.0000000  0  6 02 05 07 09 12 13
  -6156956.33348  -4797605.09146         0.00041  22700478.34946  22700478.83748
  -8901247.02048  -6936030.46346         0.00041  23591209.31846  23591209.70448
 -15656540.87548 -12199866.20847         0.00041  22118957.13047  22118957.32848
 -21463035.74949 -16724431.29848         0.00041  21260418.28748  21260419.05449
 -17691412.13808 -13785505.37108  21961605.29908  21961605.99408         0.00001
 -25647274.72709 -19984862.60208  20471079.42509  20471079.72008         0.00001
 94 02 11 03 43 00.0000000  0  6 02 05 07 09 12 13
  -6093178.58048  -4747908.15546         0.00041  22712614.91046  22712615.47748
  -8981696.97148  -6998718.70746         0.00041  23575900.09846  23575900.50248
 -15587226.31548 -12145854.86947         0.00041  22132147.35447  22132147.57548
 -21503492.95849 -16755956.38648         0.00041  21252719.65348  21252720.24849
 -17761846.31508 -13840389.13808  21948202.09208  21948202.79608         0.00001
 -25632718.03009 -19973519.71508  20473849.46809  20473849.76108         0.00001
 94 02 11 03 43 30.0000000  0  6 02 05 07 09 12 13
  -6029173.47148  -4698034.06146         0.00041  22724794.66046  22724795.20348
  -9062174.41448  -7061428.37546         0.00041  23560585.66346  23560586.39548
 -15517813.95748 -12091767.31947         0.00041  22145356.16047  22145356.42348
 -21543439.25349 -16787083.36648         0.00041  21245118.12648  21245118.74049
 -17831980.67608 -13895039.28208  21934855.96708  21934856.67208         0.00001
 -25617705.76509 -19961821.84008  20476706.16609  20476706.48308         0.00001
 94 02 11 03 44 00.0000000  0  6 02 05 07 09 12 13
  -5964928.84048  -4647973.34246         0.00041  22737020.62046  22737020.51048
  -9142659.53648  -7124144.01646         0.00041  23545270.98546  23545270.61048
 -15448296.85548 -12037598.15147         0.00041  22158584.65347  22158585.11248
 -21582880.79349 -16817817.02548         0.00041  21237612.48348  21237613.14649
 -17901797.83108 -13949442.25408  21921570.20308  21921570.88108         0.00001
 -25602225.18409 -19949759.04408  20479652.02509  20479652.32708         0.00001
 94 02 11 03 44 30.0000000  0  6 02 05 07 09 12 13
  -5900451.42648  -4597731.21746         0.00041  22749289.60646  22749290.18148
  -9223135.55448  -7186852.57546         0.00041  23529957.32646  23529956.34748
 -15378677.35248 -11983349.19146         0.00041  22171832.88446  22171833.17248
 -21621824.03649 -16848162.40348         0.00041  21230201.78248  21230202.49849
 -17971289.84108 -14003591.86408  21908346.27108  21908346.97208         0.00001
 -25586272.65509 -19937328.49608  20482687.69009  20482688.00208         0.00001
 94 02 11 03 45 00.0000000  0  6 02 05 07 09 12 13
  -5835719.78848  -4547291.00446         0.00041  22761607.40246  22761608.17448
  -9303595.88548  -7249548.91346         0.00041  23514645.50746  23514645.05848
 -15308946.68248 -11929013.60246         0.00041  22185102.35046  22185102.44848
 -21660252.97649 -16878107.02348         0.00041  21222889.12448  21222889.75349
 -18040438.81008 -14057474.16908  21895187.67508  21895188.39608         0.00001
 -25569834.85309 -19924519.81308  20485815.70909  20485815.97008         0.00001
 94 02 11 03 45 30.0000000  0  6 02 05 07 09 12 13
  -5770728.94848  -4496648.81046         0.00041  22773974.97846  22773975.62548
  -9384035.56648  -7312229.15146         0.00041  23499337.91746  23499338.05548
 -15239097.82548 -11874585.92546         0.00041  22198393.98346  22198394.36148
 -21698181.51449 -16907661.76448         0.00041  21215671.43448  21215672.21049
 -18109248.49808 -14111092.10008  21882093.63108  21882094.32008         0.00001
 -25552919.89809 -19911339.32208  20489034.52509  20489034.78608         0.00001
 94 02 11 03 46 00.0000000  0  6 02 05 07 09 12 13
  -5705494.33248  -4445816.67246         0.00041  22786388.85646  22786389.41548
  -9464451.92848  -7374891.21146         0.00041  23484034.92846  23484035.23548
 -15169134.92748 -11820069.38846         0.00041  22211707.71446  22211707.94348
 -21735619.05149 -16936833.82548         0.00041  21208547.38248  21208547.92349
 -18177725.13408 -14164450.51008  21869062.97308  21869063.63208         0.00001
 -25535538.44209 -19897795.32508  20492342.07809  20492342.33308         0.00001
 94 02 11 03 46 30.0000000  0  6 02 05 07 09 12 13
  -5640009.20848  -4394789.32446         0.00041  22798851.10846  22798850.81448
  -9544852.80548  -7437541.22046         0.00041  23468735.69646  23468735.39148
 -15099050.50048 -11765458.15346         0.00041  22225044.28746  22225044.56348
 -21772550.29849 -16965611.40948         0.00041  21201519.68148  21201520.33749
 -18245870.01108 -14217550.40508  21856095.45108  21856096.04708         0.00001
 -25517696.41309 -19883892.43808  20495737.29309  20495737.58108         0.00001
 94 02 11 03 47 00.0000000  0  6 02 05 07 09 12 13
  -5574261.23448  -4343557.16046         0.00041  22811361.78846  22811362.19048
  -9625255.35848  -7500192.53746         0.00041  23453435.36746  23453435.21348
 -15028831.97848 -11710742.42146         0.00041  22238406.36046  22238406.61548
 -21808968.85249 -16993989.49948         0.00041  21194589.51648  21194590.13849
 -18313684.72808 -14270393.03208  21843190.72808  21843191.35008         0.00001
 -25499399.85309 -19869635.37308  20499219.00909  20499219.26308         0.00001
 94 02 11 03 47 30.0000000  0  6 02 05 07 09 12 13
  -5508265.89248  -4292132.25246         0.00041  22823920.42046  22823920.81148
  -9705670.32048  -7562853.52046         0.00041  23438132.96546  23438132.88248
 -14958502.10248 -11655939.92846         0.00041  22251789.49046  22251789.79748
 -21844878.00849 -17021970.65248         0.00041  21187756.15548  21187756.77249
 -18381180.81708 -14322987.37708  21830346.58708  21830347.23508         0.00001
 -25480664.66209 -19855036.51808  20502784.20909  20502784.47808         0.00001
 94 02 11 03 48 00.0000000  0  6 02 05 07 09 12 13
  -5442024.60648  -4240515.69246         0.00041  22836526.42646  22836526.17648
  -9786094.65748  -7625521.79546         0.00041  23422828.57546  23422828.60448
 -14888072.54348 -11601059.75846         0.00041  22265192.09746  22265192.11448
 -21880249.09549 -17049532.53448         0.00041  21181025.14448  21181025.83349
 -18448348.31208 -14375325.67408  21817565.02408  21817565.65508         0.00001
 -25461485.62309 -19840091.80608  20506433.84809  20506434.12608         0.00001
 94 02 11 03 48 30.0000000  0  6 02 05 07 09 12 13
  -5375536.54148  -4188706.83746         0.00041  22849178.63146  22849178.37848
  -9866534.89048  -7688202.47446         0.00041  23407521.10346  23407521.34648
 -14817545.86148 -11546103.90246         0.00041  22278612.61946  22278612.95348
 -21915066.13849 -17076662.69248         0.00041  21174399.78848  21174400.35749
 -18515184.40808 -14427405.73908  21804846.57508  21804847.16408         0.00001
 -25441864.15009 -19824802.34108  20510167.65609  20510167.97508         0.00001
 94 02 11 03 49 00.0000000  0  6 02 05 07 09 12 13
  -5308823.52748  -4136722.70046         0.00041  22861873.10246  22861873.38948
  -9946979.16748  -7750886.28746         0.00041  23392214.36646  23392213.31248
 -14746937.10848 -11491084.09746         0.00041  22292049.46746  22292049.39348
 -21949336.68549 -17103367.01048         0.00041  21167878.09048  21167878.96949
 -18581686.04808 -14479225.18608  21792191.74108  21792192.34908         0.00001
 -25421801.86409 -19809169.38608  20513985.38309  20513985.68208         0.00001
 94 02 11 03 49 30.0000000  0  6 02 05 07 09 12 13
  -5241884.25148  -4084562.24846         0.00041  22874611.76746  22874611.51648
 -10027386.11548  -7813541.02446         0.00041  23376912.38246  23376912.25748
 -14676250.99148 -11436004.00846         0.00041  22305500.46046  22305500.38548
 -21983060.29049 -17129645.13748         0.00041  21161460.71148  21161461.63749
 -18647836.68008 -14530771.12108  21779603.67408  21779604.26008         0.00001
 -25401286.67109 -19793183.51608  20517889.31009  20517889.59108         0.00001
 94 02 11 03 50 00.0000000  0  6 02 05 07 09 12 13
  -5174725.68948  -4032230.93246         0.00041  22887391.38846  22887391.46148
 -10107766.02048  -7876174.67646         0.00041  23361616.01546  23361616.32848
 -14605476.56348 -11380855.10446         0.00041  22318968.13846  22318968.28648
 -22016248.27549 -17155505.90248         0.00041  21155145.34748  21155146.13249
 -18713636.32408 -14582043.56008  21767082.44408  21767083.01008         0.00001
 -25380323.35009 -19776848.45408  20521878.49909  20521878.77708         0.00001
 94 02 11 03 50 30.0000000  0  6 02 05 07 09 12 13
  -5107347.09848  -3979728.15346         0.00041  22900213.42946  22900213.30848
 -10188118.47948  -7938786.94046         0.00041  23346326.35546  23346325.86148
 -14534603.12548 -11325629.05446         0.00041  22332454.86546  22332455.12348
 -22048915.93449 -17180961.21648         0.00041  21148928.87148  21148929.61649
 -18779081.43008 -14633039.73308  21754628.60508  21754629.24908         0.00001
 -25358912.76709 -19760164.87708  20525952.76609  20525953.04108         0.00001
 94 02 11 03 51 00.0000000  0  6 02 05 07 09 12 13
  -5039738.61848  -3927046.24946         0.00041  22913078.74546  22913078.63448
 -10268423.61248  -8001362.34446         0.00041  23331045.04946  23331044.39348
 -14463631.19648 -11270326.25546         0.00041  22345960.45246  22345960.67248
 -22081071.85849 -17206017.77748         0.00041  21142809.91448  21142810.55349
 -18844159.49408 -14683749.90108  21742244.65408  21742245.27708         0.00001
 -25337046.90409 -19743126.53508  20530113.70909  20530113.98008         0.00001
 94 02 11 03 51 30.0000000  0  6 02 05 07 09 12 13
  -4971886.56748  -3874174.54946         0.00041  22925990.13746  22925990.62848
 -10348708.26648  -8063921.75446         0.00041  23315766.91546  23315766.76848
 -14392567.06848 -11214951.61846         0.00041  22359483.07446  22359483.70248
 -22112711.77449 -17230672.25548         0.00041  21136788.96948  21136789.73149
 -18908870.88108 -14734174.34708  21729930.51108  21729931.10908         0.00001
 -25314730.90109 -19725737.43508  20534360.27809  20534360.56908         0.00001
 94 02 11 03 52 00.0000000  0  6 02 05 07 09 12 13
  -4903781.85748  -3821105.96646         0.00041  22938950.13346  22938950.48048
 -10428988.28948  -8126477.58946         0.00041  23300489.99446  23300489.68548
 -14321401.16748 -11159497.66646         0.00041  22373026.05946  22373026.10148
 -22143818.63749 -17254911.36648         0.00041  21130869.62048  21130870.31349
 -18973214.19708 -14784311.98508  21717686.37108  21717686.96508         0.00001
 -25291967.73709 -19707999.89708  20538691.97609  20538692.24608         0.00001
 94 02 11 03 52 30.0000000  0  6 02 05 07 09 12 13
  -4835418.95648  -3767836.19546         0.00041  22951959.52646  22951959.42248
 -10509251.33048  -8189020.17946         0.00041  23285215.67446  23285216.08748
 -14250149.36148 -11103976.78546         0.00041  22386584.61146  22386584.75848
 -22174385.47649 -17278729.68048         0.00041  21125052.80648  21125053.51349
 -19037190.20108 -14834163.40708  21705512.12708  21705512.72808         0.00001
 -25268762.92509 -19689918.22008  20543107.70609  20543107.95508         0.00001
 94 02 11 03 53 00.0000000  0  6 02 05 07 09 12 13
  -4766776.04548  -3714348.24446         0.00041  22965021.53346  22965021.69448
 -10589487.03448  -8251541.46646         0.00041  23269947.75346  23269947.77348
 -14178804.78148 -11048383.60646         0.00041  22400161.20846  22400161.42548
 -22204386.68549 -17302107.24248         0.00041  21119343.61648  21119344.41949
 -19100781.70308 -14883715.21708  21693411.03308  21693411.65708         0.00001
 -25245103.69109 -19671482.44508  20547609.91609  20547610.17008         0.00001
 94 02 11 03 53 30.0000000  0  6 02 05 07 09 12 13
  -4697867.39648  -3660653.22446         0.00041  22978134.25446  22978134.70248
 -10669728.01248  -8314066.87046         0.00041  23254678.26646  23254678.40648
 -14107369.41348 -10992719.69146         0.00041  22413755.01446  22413755.04248
 -22233825.17049 -17325046.31848         0.00041  21113741.60148  21113742.33449
 -19164010.07008 -14932984.06508  21681379.07308  21681379.66408         0.00001
 -25221016.24109 -19652712.99608  20552193.59009  20552193.81808         0.00001
 94 02 11 03 54 00.0000000  0  6 02 05 07 09 12 13
  -4628710.15248  -3606764.49246         0.00041  22991295.35446  22991294.74848
 -10749965.81448  -8376589.80046         0.00041  23239409.19546  23239409.61248
 -14035836.64648 -10936979.87646         0.00041  22427367.19046  22427367.33448
 -22262706.87149 -17347551.53848         0.00041  21108245.68048  21108246.46749
 -19226877.72208 -14981971.83708  21669415.77008  21669416.36808         0.00001
 -25196507.52409 -19633615.28908  20556857.42009  20556857.69708         0.00001
 94 02 11 03 54 30.0000000  0  6 02 05 07 09 12 13
  -4559320.71648  -3552694.81146         0.00041  23004500.21846  23004499.36848
 -10830201.69148  -8439111.22546         0.00041  23224141.65646  23224141.09748
 -13964217.17948 -10881172.50246         0.00041  22440995.47746  22440996.05348
 -22291037.82049 -17369627.59948         0.00041  21102854.75348  21102855.39449
 -19289381.92808 -15030676.40408  21657521.56708  21657522.20008         0.00001
 -25171579.30609 -19614190.69608  20561601.10409  20561601.32808         0.00001
 94 02 11 03 55 00.0000000  0  6 02 05 07 09 12 13
  -4489725.03748  -3498464.43446         0.00041  23017743.43946  23017742.94048
 -10910448.12048  -8501640.88646         0.00041  23208870.91746  23208870.81148
 -13892517.29648 -10825302.46746         0.00041  22454639.81846  22454640.12548
 -22318833.27749 -17391286.39448         0.00041  21097565.43548  21097566.10149
 -19351528.11008 -15079101.99208  21645695.55408  21645696.17108         0.00001
 -25146241.95209 -19594447.29608  20566422.62009  20566422.90808         0.00001
 94 02 11 03 55 30.0000000  0  6 02 05 07 09 12 13
  -4419907.65948  -3444061.31546         0.00041  23031027.92746  23031028.61348
 -10990665.16448  -8564147.65446         0.00041  23193606.43646  23193606.07348
 -13820705.53348 -10769345.25046         0.00041  22468305.13646  22468305.25348
 -22346064.23149 -17412505.31748         0.00041  21092383.57748  21092384.24449
 -19413283.70708 -15127223.22808  21633943.82708  21633944.50808         0.00001
 -25120466.91009 -19574362.84108  20571327.43309  20571327.73308         0.00001
 94 02 11 03 56 00.0000000  0  6 02 05 07 09 12 13
  -4349876.59648  -3389491.69146         0.00041  23044354.99246  23044355.33048
 -11070837.76848  -8626619.78946         0.00041  23178349.62246  23178349.78748
 -13748805.79848 -10713319.48946         0.00041  22481987.42046  22481987.25148
 -22372741.10749 -17433292.49248         0.00041  21087307.10248  21087307.70649
 -19474639.86208 -15175033.21208  21622268.15008  21622268.76208         0.00001
 -25094250.64809 -19553934.57808  20576316.23009  20576316.50908         0.00001
 94 02 11 03 56 30.0000000  0  7 02 04 05 07 09 12 13
  -4279588.86148  -3334722.05046         0.00041  23057729.83946  23057730.57648
        -1.07759        -0.57258         0.00051  20722106.11158  20722107.53359
 -11150932.79048  -8689031.47246         0.00041  23163108.35746  23163108.19448
 -13676801.07248 -10657211.91746         0.00041  22495689.73146  22495689.28948
 -22398830.26149 -17453621.69848         0.00041  21082342.31648  21082342.96549
 -19535562.38108 -15222505.29908  21610674.93408  21610675.55208         0.00001
 -25067562.97809 -19533138.98508  20581394.70909  20581394.98408         0.00001
 94 02 11 03 57 00.0000000  0  7 02 04 05 07 09 12 13
  -4209064.21548  -3279767.80246         0.00041  23071150.92546  23071150.94548
    -24908.80449    -19409.17848         0.00041  20717366.41448  20717367.77949
 -11230985.85848  -8751410.46246         0.00041  23147875.09646  23147874.49948
 -13604723.80348 -10601047.81546         0.00041  22509405.37646  22509405.24348
 -22424370.38949 -17473523.09548         0.00041  21077482.28748  21077482.87149
 -19596085.59508 -15269666.23908  21599157.77408  21599158.38608         0.00001
 -25040443.46109 -19512006.88908  20586555.37909  20586555.66308         0.00001
 94 02 11 03 57 30.0000000  0  7 02 04 05 07 09 12 13
  -4138289.05848  -3224618.37146         0.00041  23084619.30646  23084619.10048
    -49218.60649    -38351.86948         0.00041  20712740.50048  20712741.74549
 -11310999.25748  -8813758.55346         0.00041  23132648.58346  23132648.31048
 -13532577.47048 -10544829.90046         0.00041  22523134.22046  22523134.31748
 -22449354.38849 -17492991.14448         0.00041  21072728.02548  21072728.57649
 -19656211.14308 -15316517.31008  21587716.23808  21587716.88908         0.00001
 -25012897.62309 -19490542.59408  20591797.18109  20591797.43308         0.00001
 94 02 11 03 58 00.0000000  0  7 02 04 05 07 09 12 13
  -4067226.95848  -3169245.32446         0.00041  23098142.47346  23098141.69148
    -72900.60649    -56805.36548         0.00041  20708233.90148  20708235.13649
 -11390947.84048  -8876056.14046         0.00041  23117434.77146  23117434.77848
 -13460334.03248 -10488536.31546         0.00041  22536881.61146  22536881.77348
 -22473743.99049 -17511996.02748         0.00041  21068086.69348  21068087.49149
 -19715909.26208 -15363035.31908  21576356.05808  21576356.69408         0.00001
 -24984900.82009 -19468726.89908  20597124.80409  20597125.06008         0.00001
 94 02 11 03 58 30.0000000  0  7 02 04 05 07 09 12 13
  -3995895.01148  -3113662.02446         0.00041  23111716.24046  23111715.80048
    -95999.59449    -74804.56748         0.00041  20703838.19248  20703839.55349
 -11470860.31448  -8938325.58246         0.00041  23102227.86646  23102228.08948
 -13387997.61748 -10432170.28746         0.00041  22550646.96146  22550647.09748
 -22497565.60249 -17530558.32048         0.00041  21063553.53448  21063554.40349
 -19775210.19708 -15409243.83208  21565071.47308  21565072.11108         0.00001
 -24956487.97009 -19446587.01108  20602531.56909  20602531.83408         0.00001
 94 02 11 03 59 00.0000000  0  7 02 04 05 07 09 12 13
  -3924300.10848  -3057873.80646         0.00041  23125339.93546  23125339.87748
   -118520.92849    -92353.64948         0.00041  20699552.66448  20699553.81949
 -11550739.73948  -9000569.26146         0.00041  23087027.26646  23087027.47848
 -13315562.37048 -10375727.23746         0.00041  22564430.46246  22564431.02748
 -22520829.18149 -17548685.78548         0.00041  21059126.70048  21059127.61449
 -19834122.39908 -15455149.43808  21553860.83808  21553861.45308         0.00001
 -24927672.03709 -19424133.03308  20608015.04109  20608015.29808         0.00001
 94 02 11 03 59 30.0000000  0  7 02 04 05 07 09 12 13
  -3852461.40648  -3001895.63546         0.00041  23139011.55446  23139010.18248
   -140485.53149   -109468.91548         0.00041  20695372.97248  20695374.13849
 -11630590.93548  -9062790.96746         0.00041  23071832.51446  23071832.11048
 -13243038.76948 -10319215.34946         0.00041  22578231.68046  22578231.81848
 -22543540.15549 -17566382.64548         0.00041  21054804.92248  21054805.81949
 -19892649.85008 -15500755.23808  21542723.42908  21542724.08208         0.00001
 -24898461.80109 -19401371.80508  20613573.56909  20613573.83808         0.00001
 94 02 11 04 00 00.0000000  0  7 02 04 05 07 09 12 13
  -3780395.49748  -2945740.41446         0.00041  23152724.62246  23152723.87048
   -161915.61549   -126167.67548         0.00041  20691294.83248  20691296.11949
 -11710431.53848  -9125004.40846         0.00041  23056638.38246  23056638.88348
 -13170441.14748 -10262645.77646         0.00041  22592046.52846  22592046.65948
 -22565736.64949 -17583678.61448         0.00041  21050581.16748  21050581.98349
 -19950808.90308 -15546073.97508  21531656.13008  21531656.78508         0.00001
 -24868878.22309 -19378319.66208  20619203.14009  20619203.38408         0.00001
 94 02 11 04 00 30.0000000  0  7 02 04 05 07 09 12 13
  -3708090.05948  -2889398.55646         0.00041  23166483.67246  23166483.28248
   -182793.52549   -142436.16748         0.00041  20687321.82448  20687323.17549
 -11790242.70348  -9187194.91146         0.00041  23041451.73946  23041451.43948
 -13097757.25348 -10206008.98046         0.00041  22605877.76446  22605877.81248
 -22587419.73949 -17600574.52948         0.00041  21046455.09248  21046455.79449
 -20008579.09008 -15591089.69908  21520662.85108  21520663.46408         0.00001
 -24838905.38509 -19354964.20108  20624906.75509  20624907.03408         0.00001
 94 02 11 04 01 00.0000000  0  7 02 04 05 07 09 12 13
  -3635567.59548  -2832887.59146         0.00041  23180284.74746  23180284.04348
   -203122.70749   -158277.08048         0.00041  20683453.42048  20683454.68149
 -11870034.56248  -9249370.37346         0.00041  23026267.85246  23026267.57848
 -13025013.78148 -10149325.75346         0.00041  22619720.50146  22619720.61148
 -22608587.22749 -17617068.67648         0.00041  21042427.01048  21042427.81749
 -20065957.46608 -15635800.11708  21509744.10208  21509744.71708         0.00001
 -24808545.13209 -19331306.85808  20630684.13609  20630684.38608         0.00001
 94 02 11 04 01 30.0000000  0  7 02 04 05 07 09 12 13
  -3562814.27348  -2776196.70046         0.00041  23194128.61546  23194128.45348
   -222891.58249   -173681.39348         0.00041  20679691.36648  20679692.75149
 -11949786.98348  -9311515.08546         0.00041  23011091.29546  23011091.14948
 -12952199.92448 -10092587.68646         0.00041  22633576.53246  22633576.69648
 -22629219.68649 -17633145.91448         0.00041  21038500.85248  21038501.55249
 -20122920.65308 -15680187.00908  21498904.37108  21498904.99608         0.00001
 -24777778.59109 -19307332.92808  20636538.81509  20636539.07608         0.00001
 94 02 11 04 02 00.0000000  0  7 02 04 05 07 09 12 13
  -3489819.73448  -2719317.89046         0.00041  23208019.87046  23208018.91748
   -242081.00749   -188634.18248         0.00041  20676039.85348  20676041.07949
 -12029488.78448  -9373620.39546         0.00041  22995924.34046  22995924.38548
 -12879309.02248 -10035789.58546         0.00041  22647446.54946  22647447.21048
 -22649301.90649 -17648794.39848         0.00041  21034679.20948  21034680.04349
 -20179461.36008 -15724244.69908  21488145.04208  21488145.63308         0.00001
 -24746603.15609 -19283040.37908  20642471.31009  20642471.55508         0.00001
 94 02 11 04 02 30.0000000  0  7 02 04 05 07 09 12 13
  -3416598.81848  -2662262.66946         0.00041  23221952.07946  23221952.53148
   -260688.12649   -203133.22948         0.00041  20672498.95948  20672500.26249
 -12109140.03048  -9435686.24146         0.00041  22980767.28546  22980767.22848
 -12806351.98448  -9978939.94746         0.00041  22661330.39146  22661330.63148
 -22668809.07049 -17663994.78748         0.00041  21030967.10548  21030967.89949
 -20235578.86408 -15767972.62008  21477466.24908  21477466.81508         0.00001
 -24715023.01009 -19258432.47208  20648480.83709  20648481.06008         0.00001
 94 02 11 04 03 00.0000000  0  7 02 04 05 07 09 12 13
  -3343149.81348  -2605029.72746         0.00041  23235928.58046  23235929.38548
   -278703.57449   -217171.23348         0.00041  20669070.81948  20669072.07849
 -12188741.35548  -9497713.22346         0.00041  22965619.40346  22965619.59848
 -12733334.77248  -9922043.43246         0.00041  22675225.10446  22675225.36448
 -22687718.38149 -17678729.31648         0.00041  21027368.87948  21027369.63549
 -20291269.20008 -15811367.68508  21466868.68408  21466869.30108         0.00001
 -24683038.63809 -19233509.58408  20654567.22709  20654567.46208         0.00001
 94 02 11 04 03 30.0000000  0  7 02 04 05 07 09 12 13
  -3269477.47148  -2547622.72646         0.00041  23249948.99046  23249948.63148
   -296129.19349   -230749.63148         0.00041  20665754.85948  20665756.09949
 -12268299.42148  -9559706.49246         0.00041  22950480.04846  22950480.16248
 -12660270.88848  -9865110.53246         0.00041  22689128.77246  22689128.88448
 -22706040.06149 -17693005.94848         0.00041  21023882.57348  21023883.10949
 -20346543.93908 -15854438.90708  21456350.28108  21456350.88108         0.00001
 -24650666.29809 -19208284.38408  20660727.48209  20660727.75108         0.00001
